[[{"header":{"parameterUnit":"m.s-1","parameterCategory":1,"la1":31.0,"la2":29.5877,"lo1":-88.7671,"lo2":-86.6584,"dy":0.0162,"dx":0.0185,"nx":115,"ny":88,"refTime":"2024-10-06T18:00:00:Z","depth":0,"parameterNumber":2,"parameterNumberName":"U-component_of_WINDS"},"data":[0.0,0.0,0.0,0.0,0.0,0.0,0.0,0.0,0.0,0.0,0.0,0.0,0.0,0.0,0.0,0.0,0.0,0.0,0.0,0.0,0.0,0.0,0.0,0.0,0.0,0.0,0.0,0.0,0.0,0.0,0.0,0.0,0.0,0.0,0.0,0.0,0.0,0.0,0.0,0.0,0.0,0.0,0.0,0.0,0.0,0.0,0.0,0.0,0.0,0.0,0.0,0.0,0.0,0.0,0.0,0.0,0.0,0.0,0.0,0.0,0.0,0.0,0.0,0.0,0.0,0.0,0.0,0.0,0.0,0.0,0.0,0.0,0.0,0.0,0.0,0.0,0.0,0.0,0.0,0.0,0.0,0.0,0.0,0.0,0.0,0.0,0.0,0.0,0.0,0.0,0.0,0.0,0.0,0.0,0.0,0.0,0.0,0.0,0.0,0.0,0.0,0.0,0.0,0.0,0.0,0.0,0.0,0.0,0.0,0.0,0.0,0.0,0.0,0.0,0.0,0.0,0.0,0.0,0.0,0.0,0.0,0.0,0.0,0.0,0.0,0.0,0.0,0.0,0.0,0.0,0.0,0.0,0.0,0.0,0.0,0.0,0.0,0.0,0.0,0.0,0.0,0.0,0.0,0.0,0.0,0.0,0.0,0.0,0.0,0.0,0.0,0.0,0.0,0.0,0.0,0.0,0.0,0.0,0.0,0.0,0.0,0.0,0.0,0.0,0.0,0.0,0.0,0.0,0.0,0.0,0.0,0.0,0.0,0.0,0.0,0.0,0.0,0.0,0.0,0.0,0.0,0.0,0.0,0.0,0.0,0.0,0.0,0.0,0.0,0.0,0.0,0.0,0.0,0.0,0.0,0.0,0.0,0.0,0.0,0.0,0.0,0.0,0.0,0.0,0.0,0.0,0.0,0.0,0.0,0.0,0.0,0.0,0.0,0.0,0.0,0.0,0.0,0.0,0.0,0.0,0.0,0.0,0.0,0.0,0.0,0.0,0.0,0.0,0.0,0.0,0.0,0.0,0.0,0.0,0.0,0.0,0.0,0.0,0.0,0.0,0.0,0.0,0.0,0.0,0.0,0.0,0.0,0.0,0.0,0.0,0.0,0.0,0.0,0.0,0.0,0.0,0.0,0.0,0.0,0.0,0.0,0.0,0.0,0.0,0.0,0.0,0.0,0.0,0.0,0.0,0.0,0.0,0.0,0.0,0.0,0.0,0.0,0.0,0.0,0.0,0.0,0.0,0.0,0.0,0.0,0.0,0.0,0.0,0.0,0.0,0.0,0.0,0.0,0.0,0.0,0.0,0.0,0.0,0.0,0.0,0.0,0.0,0.0,0.0,0.0,0.0,0.0,0.0,0.0,0.0,0.0,0.0,0.0,0.0,0.0,0.0,0.0,0.0,0.0,0.0,0.0,0.0,0.0,0.0,0.0,0.0,0.0,0.0,0.0,0.0,0.0,0.0,0.0,0.0,0.0,0.0,0.0,0.0,0.0,0.0,0.0,0.0,0.0,0.0,0.0,0.0,0.0,0.0,0.0,0.0,0.0,0.0,0.0,0.0,0.0,0.0,0.0,0.0,0.0,0.0,0.0,0.0,0.0,0.0,0.0,0.0,0.0,0.0,0.0,0.0,0.0,0.0,0.0,0.0,0.0,0.0,0.0,0.0,0.0,0.0,0.0,0.0,0.0,0.0,0.0,0.0,0.0,0.0,0.0,0.0,0.0,0.0,0.0,0.0,0.0,0.0,0.0,0.0,0.0,0.0,0.0,0.0,0.0,0.0,0.0,0.0,0.0,0.0,0.0,0.0,0.0,0.0,0.0,0.0,0.0,0.0,0.0,0.0,0.0,0.0,0.0,0.0,0.0,0.0,0.0,0.0,0.0,0.0,0.0,0.0,0.0,0.0,0.0,0.0,0.0,0.0,0.0,0.0,0.0,0.0,0.0,0.0,0.0,0.0,0.0,0.0,0.0,0.0,0.0,0.0,0.0,0.0,0.0,0.0,0.0,0.0,0.0,0.0,0.0,0.0,0.0,0.0,0.0,0.0,0.0,0.0,0.0,0.0,0.0,0.0,0.0,0.0,0.0,0.0,0.0,0.0,0.0,0.0,0.0,0.0,0.0,0.0,0.0,0.0,0.0,0.0,0.0,0.0,0.0,0.0,0.0,0.0,0.0,0.0,0.0,0.0,0.0,0.0,0.0,0.0,0.0,0.0,0.0,0.0,0.0,0.0,0.0,0.0,0.0,0.0,0.0,0.0,0.0,0.0,0.0,0.0,0.0,0.0,0.0,0.0,0.0,0.0,0.0,0.0,0.0,0.0,0.0,0.0,0.0,0.0,0.0,0.0,0.0,0.0,0.0,0.0,0.0,0.0,0.0,0.0,0.0,0.0,0.0,0.0,0.0,0.0,0.0,0.0,0.0,0.0,0.0,0.0,0.0,0.0,0.0,0.0,0.0,0.0,0.0,0.0,0.0,0.0,0.0,0.0,0.0,0.0,0.0,0.0,0.0,0.0,0.0,0.0,0.0,0.0,0.0,0.0,0.0,0.0,0.0,0.0,0.0,0.0,0.0,0.0,0.0,0.0,0.0,0.0,0.0,0.0,0.0,0.0,0.0,0.0,0.0,0.0,0.0,0.0,0.0,0.0,0.0,0.0,0.0,0.0,0.0,0.0,0.0,0.0,0.0,0.0,0.0,0.0,0.0,0.0,0.0,0.0,0.0,0.0,0.0,0.0,0.0,0.0,0.0,0.0,0.0,0.0,0.0,0.0,0.0,0.0,0.0,0.0,0.0,0.0,0.0,0.0,0.0,0.0,0.0,0.0,0.0,0.0,0.0,0.0,0.0,0.0,0.0,0.0,0.0,0.0,0.0,0.0,0.0,0.0,0.0,0.0,0.0,0.0,0.0,0.0,0.0,0.0,0.0,0.0,0.0,0.0,0.0,0.0,0.0,0.0,0.0,0.0,0.0,0.0,0.0,0.0,0.0,0.0,0.0,0.0,0.0,0.0,0.0,0.0,0.0,0.0,0.0,0.0,0.0,0.0,0.0,0.0,0.0,0.0,0.0,0.0,0.0,0.0,0.0,0.0,0.0,0.0,0.0,0.0,0.0,0.0,0.0,0.0,0.0,0.0,0.0,0.0,0.0,0.0,0.0,0.0,0.0,0.0,0.0,0.0,0.0,0.0,0.0,0.0,0.0,0.0,0.0,0.0,0.0,0.0,0.0,0.0,0.0,0.0,0.0,0.0,0.0,0.0,0.0,0.0,0.0,0.0,0.0,0.0,0.0,0.0,0.0,0.0,0.0,0.0,0.0,0.0,0.0,0.0,0.0,0.0,0.0,0.0,0.0,0.0,0.0,0.0,0.0,0.0,0.0,0.0,0.0,0.0,0.0,0.0,0.0,0.0,0.0,0.0,0.0,0.0,0.0,0.0,0.0,0.0,0.0,0.0,0.0,0.0,0.0,0.0,0.0,0.0,0.0,0.0,0.0,0.0,0.0,0.0,0.0,0.0,0.0,0.0,0.0,0.0,0.0,0.0,0.0,0.0,0.0,0.0,0.0,0.0,0.0,0.0,0.0,0.0,0.0,0.0,0.0,0.0,0.0,0.0,0.0,0.0,0.0,0.0,0.0,0.0,0.0,0.0,0.0,0.0,0.0,0.0,0.0,0.0,0.0,0.0,0.0,0.0,0.0,0.0,0.0,0.0,0.0,0.0,0.0,0.0,0.0,0.0,0.0,0.0,0.0,0.0,0.0,0.0,0.0,0.0,0.0,0.0,0.0,0.0,0.0,0.0,0.0,0.0,0.0,0.0,0.0,0.0,0.0,0.0,0.0,0.0,0.0,0.0,0.0,0.0,0.0,0.0,0.0,0.0,0.0,0.0,0.0,0.0,0.0,0.0,0.0,0.0,0.0,0.0,0.0,0.0,0.0,0.0,0.0,0.0,0.0,0.0,0.0,0.0,0.0,0.0,0.0,0.0,0.0,0.0,0.0,0.0,0.0,0.0,0.0,0.0,0.0,0.0,0.0,0.0,0.0,0.0,0.0,0.0,0.0,0.0,0.0,0.0,0.0,0.0,0.0,0.0,0.0,0.0,0.0,0.0,0.0,0.0,0.0,0.0,0.0,0.0,0.0,0.0,0.0,0.0,0.0,0.0,0.0,0.0,0.0,0.0,0.0,0.0,0.0,0.0,0.0,0.0,0.0,0.0,0.0,0.0,0.0,0.0,0.0,0.0,0.0,0.0,0.0,0.0,0.0,0.0,3.7781,0.0,0.0,0.0,0.0,0.0,0.0,0.0,0.0,0.0,0.0,0.0,0.0,0.0,0.0,0.0,0.0,0.0,0.0,0.0,0.0,0.0,0.0,0.0,0.0,0.0,0.0,0.0,0.0,0.0,0.0,0.0,0.0,0.0,0.0,0.0,0.0,0.0,0.0,0.0,0.0,0.0,0.0,0.0,0.0,0.0,0.0,0.0,0.0,0.0,0.0,0.0,0.0,0.0,0.0,0.0,0.0,0.0,0.0,0.0,0.0,0.0,0.0,0.0,0.0,0.0,0.0,0.0,0.0,0.0,0.0,0.0,0.0,0.0,0.0,0.0,0.0,0.0,0.0,0.0,0.0,0.0,0.0,0.0,0.0,0.0,0.0,0.0,0.0,0.0,0.0,0.0,0.0,0.0,0.0,0.0,0.0,0.0,0.0,0.0,0.0,0.0,0.0,0.0,0.0,0.0,0.0,0.0,0.0,0.0,0.0,3.9818,4.0085,3.9396,3.8673,3.7916,0.0,0.0,0.0,0.0,0.0,0.0,0.0,0.0,0.0,0.0,0.0,0.0,0.0,0.0,0.0,0.0,0.0,0.0,0.0,0.0,0.0,0.0,0.0,0.0,0.0,0.0,0.0,0.0,0.0,0.0,0.0,0.0,0.0,0.0,0.0,0.0,0.0,0.0,0.0,0.0,0.0,0.0,0.0,0.0,0.0,0.0,0.0,0.0,0.0,0.0,0.0,0.0,0.0,0.0,0.0,0.0,0.0,0.0,0.0,0.0,0.0,0.0,0.0,0.0,0.0,0.0,0.0,0.0,0.0,0.0,0.0,0.0,0.0,0.0,0.0,0.0,0.0,0.0,0.0,0.0,0.0,0.0,0.0,0.0,0.0,0.0,0.0,0.0,0.0,0.0,0.0,0.0,0.0,0.0,0.0,0.0,0.0,0.0,0.0,0.0,0.0,0.0,0.0,0.0,0.0,0.0,0.0,0.0,0.0,0.0,0.0,0.0,3.9463,3.874,3.7646,0.0,0.0,0.0,0.0,0.0,0.0,0.0,0.0,0.0,0.0,0.0,0.0,0.0,0.0,0.0,0.0,0.0,0.0,0.0,0.0,0.0,0.0,0.0,0.0,0.0,0.0,0.0,0.0,0.0,0.0,0.0,0.0,0.0,0.0,0.0,0.0,0.0,0.0,0.0,0.0,0.0,0.0,0.0,0.0,0.0,0.0,0.0,0.0,0.0,0.0,0.0,0.0,0.0,0.0,0.0,0.0,0.0,0.0,0.0,0.0,0.0,0.0,0.0,0.0,0.0,0.0,0.0,0.0,0.0,0.0,0.0,0.0,0.0,0.0,0.0,0.0,0.0,0.0,0.0,0.0,0.0,0.0,0.0,0.0,0.0,0.0,0.0,0.0,0.0,0.0,0.0,0.0,0.0,0.0,0.0,0.0,0.0,0.0,0.0,0.0,0.0,0.0,0.0,0.0,0.0,0.0,0.0,0.0,0.0,0.0,3.9167,3.9125,3.9666,0.0,3.7026,0.0,0.0,0.0,0.0,0.0,0.0,0.0,0.0,0.0,0.0,0.0,0.0,0.0,0.0,0.0,0.0,0.0,0.0,0.0,0.0,0.0,0.0,0.0,0.0,0.0,0.0,0.0,0.0,0.0,0.0,0.0,0.0,0.0,0.0,0.0,0.0,0.0,0.0,0.0,0.0,0.0,0.0,0.0,0.0,0.0,0.0,0.0,0.0,0.0,0.0,0.0,0.0,0.0,0.0,0.0,0.0,0.0,0.0,0.0,0.0,0.0,0.0,0.0,0.0,0.0,0.0,0.0,0.0,0.0,0.0,0.0,0.0,0.0,0.0,0.0,0.0,0.0,0.0,0.0,0.0,0.0,0.0,0.0,0.0,0.0,0.0,0.0,0.0,0.0,0.0,0.0,0.0,0.0,0.0,0.0,0.0,0.0,0.0,0.0,0.0,0.0,0.0,0.0,0.0,0.0,0.0,0.0,0.0,0.0,0.0,0.0,3.8983,3.8442,3.7297,0.0,0.0,0.0,0.0,0.0,0.0,0.0,0.0,0.0,0.0,0.0,0.0,0.0,0.0,0.0,0.0,0.0,0.0,0.0,0.0,0.0,0.0,0.0,0.0,0.0,0.0,0.0,0.0,0.0,0.0,0.0,0.0,0.0,0.0,0.0,0.0,0.0,0.0,0.0,0.0,0.0,0.0,0.0,0.0,0.0,0.0,0.0,0.0,0.0,0.0,0.0,0.0,0.0,0.0,0.0,0.0,0.0,0.0,0.0,0.0,0.0,0.0,0.0,0.0,0.0,0.0,0.0,0.0,0.0,0.0,0.0,0.0,0.0,0.0,0.0,0.0,0.0,0.0,0.0,0.0,0.0,0.0,0.0,0.0,0.0,0.0,0.0,0.0,0.0,0.0,0.0,0.0,0.0,0.0,0.0,0.0,0.0,0.0,0.0,0.0,0.0,0.0,0.0,0.0,0.0,0.0,0.0,0.0,0.0,0.0,3.791,0.0,3.8599,3.7867,3.6417,3.4269,0.0,0.0,0.0,0.0,0.0,0.0,0.0,0.0,0.0,0.0,0.0,0.0,0.0,0.0,0.0,0.0,0.0,0.0,0.0,0.0,0.0,0.0,0.0,0.0,0.0,0.0,0.0,0.0,0.0,0.0,0.0,0.0,0.0,0.0,0.0,0.0,0.0,0.0,0.0,0.0,0.0,0.0,0.0,0.0,0.0,0.0,0.0,0.0,0.0,0.0,0.0,0.0,0.0,0.0,0.0,0.0,0.0,0.0,0.0,0.0,0.0,0.0,0.0,0.0,0.0,0.0,0.0,0.0,0.0,0.0,0.0,0.0,0.0,0.0,0.0,0.0,0.0,0.0,0.0,0.0,0.0,0.0,0.0,0.0,0.0,0.0,0.0,0.0,0.0,0.0,0.0,0.0,0.0,0.0,0.0,0.0,0.0,0.0,0.0,0.0,0.0,0.0,0.0,0.0,0.0,0.0,0.0,0.0,0.0,3.7877,3.7922,3.7984,3.8577,3.7184,0.0,0.0,0.0,0.0,0.0,0.0,0.0,0.0,0.0,0.0,0.0,0.0,0.0,0.0,0.0,0.0,0.0,0.0,0.0,0.0,0.0,0.0,0.0,0.0,0.0,0.0,0.0,0.0,0.0,0.0,0.0,0.0,0.0,0.0,0.0,0.0,0.0,0.0,0.0,0.0,0.0,0.0,0.0,0.0,0.0,0.0,0.0,0.0,0.0,0.0,0.0,0.0,0.0,0.0,0.0,0.0,0.0,0.0,0.0,0.0,0.0,0.0,0.0,0.0,0.0,0.0,0.0,0.0,0.0,0.0,0.0,0.0,0.0,0.0,0.0,0.0,0.0,0.0,0.0,0.0,0.0,0.0,0.0,0.0,0.0,0.0,0.0,0.0,0.0,0.0,0.0,0.0,0.0,0.0,0.0,0.0,0.0,0.0,0.0,0.0,0.0,0.0,0.0,0.0,0.0,0.0,0.0,0.0,0.0,3.6422,3.6935,3.7658,3.8497,3.7015,3.5458,0.0,0.0,0.0,0.0,0.0,0.0,0.0,0.0,0.0,0.0,0.0,0.0,0.0,0.0,0.0,0.0,0.0,0.0,0.0,0.0,0.0,0.0,0.0,0.0,0.0,0.0,0.0,0.0,0.0,0.0,0.0,0.0,0.0,0.0,0.0,0.0,0.0,0.0,0.0,0.0,0.0,0.0,0.0,0.0,0.0,0.0,0.0,0.0,0.0,0.0,0.0,0.0,0.0,0.0,0.0,0.0,0.0,0.0,0.0,0.0,0.0,0.0,0.0,0.0,0.0,0.0,0.0,0.0,0.0,0.0,0.0,0.0,0.0,0.0,0.0,0.0,0.0,0.0,0.0,0.0,0.0,0.0,0.0,0.0,0.0,0.0,0.0,0.0,0.0,0.0,0.0,0.0,0.0,0.0,0.0,0.0,0.0,0.0,0.0,0.0,0.0,0.0,0.0,0.0,0.0,0.0,0.0,0.0,0.0,3.5988,0.0,3.7771,0.0,3.6575,3.4917,0.0,0.0,0.0,0.0,0.0,0.0,0.0,0.0,0.0,0.0,0.0,0.0,0.0,0.0,0.0,0.0,0.0,0.0,0.0,0.0,0.0,0.0,0.0,0.0,0.0,0.0,0.0,0.0,0.0,0.0,0.0,0.0,0.0,0.0,0.0,0.0,0.0,0.0,0.0,0.0,0.0,0.0,0.0,0.0,0.0,0.0,0.0,0.0,0.0,0.0,0.0,0.0,0.0,0.0,0.0,0.0,0.0,0.0,0.0,0.0,0.0,0.0,0.0,0.0,0.0,0.0,0.0,0.0,0.0,0.0,0.0,0.0,0.0,0.0,0.0,0.0,0.0,0.0,0.0,0.0,0.0,0.0,0.0,0.0,0.0,0.0,0.0,0.0,0.0,0.0,0.0,0.0,0.0,0.0,0.0,0.0,0.0,0.0,0.0,0.0,0.0,0.0,0.0,0.0,0.0,0.0,0.0,0.0,3.5266,3.6722,3.8165,3.8273,3.6919,3.7415,3.5723,0.0,0.0,0.0,0.0,0.0,0.0,0.0,0.0,0.0,0.0,0.0,0.0,0.0,0.0,0.0,0.0,0.0,0.0,0.0,0.0,0.0,0.0,0.0,0.0,0.0,0.0,0.0,0.0,0.0,0.0,0.0,0.0,0.0,0.0,0.0,0.0,0.0,0.0,0.0,0.0,0.0,0.0,0.0,0.0,0.0,0.0,0.0,0.0,0.0,0.0,0.0,0.0,0.0,0.0,0.0,0.0,0.0,0.0,0.0,0.0,0.0,0.0,0.0,0.0,0.0,0.0,0.0,0.0,0.0,0.0,0.0,0.0,0.0,0.0,0.0,0.0,0.0,0.0,0.0,0.0,0.0,0.0,0.0,0.0,0.0,0.0,0.0,0.0,0.0,0.0,0.0,0.0,0.0,0.0,0.0,0.0,0.0,0.0,0.0,0.0,0.0,0.0,0.0,0.0,0.0,0.0,0.0,0.0,0.0,3.5983,3.7443,3.8261,3.8273,3.6507,3.4917,0.0,0.0,0.0,0.0,0.0,0.0,0.0,0.0,0.0,0.0,0.0,0.0,0.0,0.0,0.0,0.0,0.0,0.0,0.0,0.0,0.0,0.0,0.0,0.0,0.0,0.0,0.0,0.0,0.0,0.0,0.0,0.0,0.0,0.0,0.0,0.0,0.0,0.0,0.0,0.0,0.0,0.0,0.0,0.0,0.0,0.0,0.0,0.0,0.0,0.0,0.0,0.0,0.0,0.0,0.0,0.0,0.0,0.0,0.0,0.0,0.0,0.0,0.0,0.0,0.0,0.0,0.0,0.0,0.0,0.0,0.0,0.0,0.0,0.0,0.0,0.0,0.0,0.0,0.0,0.0,0.0,0.0,0.0,0.0,0.0,0.0,0.0,0.0,0.0,0.0,0.0,0.0,0.0,0.0,0.0,0.0,0.0,0.0,0.0,0.0,0.0,0.0,0.0,0.0,0.0,0.0,0.0,0.0,0.0,3.609,3.7821,3.8673,3.8599,3.6197,3.4511,3.367,0.0,0.0,0.0,0.0,0.0,0.0,0.0,0.0,0.0,0.0,0.0,0.0,0.0,0.0,0.0,0.0,0.0,0.0,0.0,0.0,0.0,0.0,0.0,0.0,0.0,0.0,0.0,0.0,0.0,0.0,0.0,0.0,0.0,0.0,0.0,0.0,0.0,0.0,0.0,0.0,0.0,0.0,0.0,0.0,0.0,0.0,0.0,0.0,0.0,0.0,0.0,0.0,0.0,0.0,0.0,0.0,0.0,0.0,0.0,0.0,0.0,0.0,0.0,0.0,0.0,0.0,0.0,0.0,0.0,0.0,0.0,0.0,0.0,0.0,0.0,0.0,0.0,0.0,0.0,0.0,0.0,0.0,0.0,0.0,0.0,0.0,0.0,0.0,0.0,0.0,0.0,0.0,0.0,0.0,0.0,0.0,0.0,0.0,0.0,0.0,0.0,0.0,0.0,0.0,0.0,0.0,0.0,0.0,3.6863,3.8996,3.9429,3.8091,3.645,3.4596,0.0,0.0,0.0,0.0,0.0,0.0,0.0,0.0,0.0,0.0,0.0,0.0,0.0,0.0,0.0,0.0,0.0,0.0,0.0,0.0,0.0,0.0,0.0,0.0,0.0,0.0,0.0,0.0,0.0,0.0,0.0,0.0,0.0,0.0,0.0,0.0,0.0,0.0,0.0,0.0,0.0,0.0,0.0,0.0,0.0,0.0,0.0,0.0,0.0,0.0,0.0,0.0,0.0,0.0,0.0,0.0,0.0,0.0,0.0,0.0,0.0,0.0,0.0,0.0,0.0,0.0,0.0,0.0,0.0,0.0,0.0,0.0,0.0,0.0,0.0,0.0,0.0,0.0,0.0,0.0,0.0,0.0,0.0,0.0,0.0,0.0,0.0,0.0,0.0,0.0,0.0,0.0,0.0,0.0,0.0,0.0,0.0,0.0,0.0,0.0,0.0,0.0,0.0,0.0,0.0,0.0,0.0,0.0,0.0,3.7618,3.922,3.9903,3.9491,3.6963,3.5335,0.0,0.0,0.0,0.0,0.0,0.0,0.0,0.0,0.0,0.0,0.0,0.0,0.0,0.0,0.0,0.0,0.0,0.0,0.0,0.0,0.0,0.0,0.0,0.0,0.0,0.0,0.0,0.0,0.0,0.0,0.0,0.0,0.0,0.0,0.0,0.0,0.0,0.0,0.0,0.0,0.0,0.0,0.0,0.0,0.0,0.0,0.0,0.0,0.0,0.0,0.0,0.0,0.0,0.0,0.0,0.0,0.0,0.0,0.0,0.0,0.0,0.0,0.0,0.0,0.0,0.0,0.0,0.0,0.0,0.0,0.0,0.0,0.0,0.0,0.0,0.0,0.0,0.0,0.0,0.0,0.0,0.0,0.0,0.0,0.0,0.0,0.0,0.0,0.0,0.0,0.0,0.0,0.0,0.0,0.0,0.0,0.0,0.0,0.0,0.0,0.0,0.0,0.0,0.0,0.0,0.0,0.0,0.0,3.6535,3.7415,3.9193,3.9943,3.9626,3.7646,3.6118,0.0,0.0,0.0,0.0,0.0,0.0,0.0,0.0,0.0,0.0,0.0,0.0,0.0,0.0,0.0,0.0,0.0,0.0,0.0,0.0,0.0,0.0,0.0,0.0,0.0,0.0,0.0,0.0,0.0,0.0,0.0,0.0,0.0,0.0,0.0,0.0,0.0,0.0,0.0,0.0,0.0,0.0,0.0,0.0,0.0,0.0,0.0,0.0,0.0,0.0,0.0,0.0,0.0,0.0,0.0,0.0,0.0,0.0,0.0,0.0,0.0,0.0,0.0,0.0,0.0,0.0,0.0,0.0,0.0,0.0,0.0,0.0,0.0,0.0,0.0,0.0,0.0,0.0,0.0,0.0,0.0,0.0,0.0,0.0,0.0,0.0,0.0,0.0,0.0,0.0,0.0,0.0,0.0,0.0,0.0,0.0,0.0,0.0,0.0,0.0,0.0,0.0,0.0,0.0,0.0,0.0,0.0,0.0,3.6897,3.6959,3.8928,3.9626,3.891,3.8159,3.68,0.0,0.0,0.0,0.0,0.0,0.0,0.0,0.0,0.0,0.0,0.0,0.0,0.0,0.0,0.0,0.0,0.0,0.0,0.0,0.0,0.0,0.0,0.0,0.0,0.0,0.0,0.0,0.0,0.0,0.0,0.0,0.0,0.0,0.0,0.0,0.0,0.0,0.0,0.0,0.0,0.0,0.0,0.0,0.0,0.0,0.0,0.0,0.0,0.0,0.0,0.0,0.0,0.0,0.0,0.0,0.0,0.0,0.0,0.0,0.0,0.0,0.0,0.0,0.0,0.0,0.0,0.0,0.0,0.0,0.0,0.0,0.0,0.0,0.0,0.0,0.0,0.0,0.0,0.0,0.0,0.0,0.0,0.0,0.0,0.0,0.0,0.0,0.0,0.0,0.0,0.0,0.0,0.0,0.0,0.0,0.0,0.0,0.0,0.0,0.0,0.0,0.0,0.0,0.0,0.0,0.0,0.0,0.0,3.7652,3.768,3.8673,3.8882,3.8153,3.7427,3.6507,0.0,0.0,0.0,0.0,0.0,0.0,0.0,0.0,0.0,0.0,0.0,0.0,0.0,0.0,0.0,0.0,0.0,0.0,0.0,0.0,0.0,0.0,0.0,0.0,0.0,0.0,0.0,0.0,0.0,0.0,0.0,0.0,0.0,0.0,0.0,0.0,0.0,0.0,0.0,0.0,0.0,0.0,0.0,0.0,0.0,0.0,0.0,0.0,3.6515,0.0,0.0,0.0,0.0,0.0,0.0,0.0,0.0,0.0,0.0,0.0,0.0,0.0,0.0,0.0,0.0,0.0,0.0,0.0,0.0,0.0,0.0,0.0,0.0,0.0,0.0,0.0,0.0,0.0,0.0,0.0,0.0,0.0,0.0,0.0,0.0,0.0,0.0,0.0,0.0,0.0,0.0,0.0,0.0,0.0,0.0,0.0,0.0,0.0,0.0,0.0,0.0,0.0,0.0,0.0,0.0,0.0,0.0,0.0,3.7753,3.7415,3.8097,3.8125,3.7427,3.7026,3.6276,0.0,0.0,0.0,0.0,0.0,0.0,0.0,0.0,0.0,0.0,0.0,0.0,0.0,0.0,0.0,0.0,0.0,0.0,0.0,0.0,0.0,0.0,0.0,0.0,0.0,0.0,0.0,0.0,0.0,0.0,0.0,0.0,0.0,0.0,0.0,0.0,0.0,0.0,0.0,0.0,0.0,0.0,0.0,0.0,0.0,0.0,0.0,0.0,0.0,0.0,0.0,0.0,0.0,0.0,0.0,0.0,0.0,0.0,0.0,0.0,0.0,0.0,0.0,0.0,0.0,0.0,0.0,0.0,0.0,0.0,0.0,0.0,0.0,0.0,0.0,0.0,0.0,0.0,0.0,0.0,0.0,0.0,0.0,0.0,0.0,0.0,0.0,0.0,0.0,0.0,0.0,0.0,0.0,0.0,0.0,0.0,0.0,0.0,0.0,0.0,0.0,0.0,0.0,0.0,0.0,0.0,0.0,3.6812,3.7483,3.7021,3.7455,3.7387,3.6648,3.6615,3.5904,3.437,0.0,0.0,0.0,0.0,0.0,0.0,0.0,0.0,0.0,0.0,0.0,0.0,0.0,0.0,0.0,0.0,0.0,0.0,0.0,0.0,0.0,0.0,0.0,0.0,0.0,0.0,0.0,0.0,0.0,0.0,0.0,0.0,0.0,0.0,0.0,0.0,0.0,0.0,3.5937,3.7014,0.0,0.0,0.0,0.0,0.0,0.0,0.0,0.0,3.713,0.0,0.0,0.0,0.0,0.0,0.0,0.0,0.0,0.0,0.0,0.0,0.0,0.0,0.0,0.0,0.0,0.0,0.0,0.0,0.0,0.0,0.0,0.0,0.0,0.0,0.0,0.0,0.0,0.0,0.0,0.0,0.0,0.0,0.0,0.0,0.0,0.0,0.0,0.0,0.0,0.0,0.0,0.0,0.0,0.0,0.0,0.0,0.0,0.0,0.0,0.0,0.0,0.0,0.0,0.0,0.0,3.7308,3.7122,3.7218,3.7719,3.7218,3.6609,3.5847,3.5814,3.5109,3.3655,0.0,0.0,0.0,0.0,0.0,0.0,0.0,0.0,0.0,0.0,0.0,0.0,0.0,0.0,0.0,0.0,0.0,0.0,0.0,0.0,0.0,0.0,0.0,0.0,0.0,0.0,0.0,0.0,0.0,0.0,0.0,0.0,0.0,0.0,0.0,0.0,0.0,0.0,0.0,3.8527,3.8916,0.0,0.0,0.0,0.0,0.0,0.0,0.0,0.0,3.7024,0.0,0.0,0.0,0.0,0.0,0.0,0.0,0.0,0.0,0.0,0.0,0.0,0.0,0.0,0.0,0.0,0.0,0.0,0.0,0.0,0.0,0.0,0.0,0.0,0.0,0.0,0.0,0.0,0.0,0.0,0.0,0.0,0.0,0.0,0.0,0.0,0.0,0.0,0.0,0.0,0.0,0.0,0.0,0.0,0.0,0.0,0.0,0.0,0.0,0.0,0.0,0.0,0.0,0.0,0.0,3.6591,3.7144,3.755,3.7843,3.6772,3.5988,3.5605,3.4861,3.3954,0.0,0.0,0.0,0.0,0.0,0.0,0.0,0.0,0.0,0.0,0.0,0.0,0.0,0.0,0.0,0.0,0.0,0.0,0.0,0.0,0.0,0.0,0.0,0.0,0.0,0.0,0.0,0.0,0.0,0.0,0.0,0.0,0.0,0.0,0.0,0.0,0.0,0.0,0.0,0.0,3.904,3.9438,3.916,0.0,0.0,0.0,0.0,0.0,0.0,3.7652,3.7563,0.0,0.0,0.0,0.0,0.0,0.0,0.0,0.0,0.0,0.0,0.0,0.0,0.0,0.0,0.0,0.0,0.0,0.0,0.0,0.0,0.0,0.0,0.0,0.0,0.0,0.0,0.0,0.0,0.0,0.0,0.0,0.0,0.0,0.0,0.0,0.0,0.0,0.0,0.0,0.0,0.0,0.0,0.0,0.0,0.0,0.0,0.0,0.0,0.0,0.0,0.0,0.0,0.0,0.0,0.0,3.5571,3.6789,3.7606,3.7809,3.6383,3.5605,3.5605,3.4461,3.3355,0.0,0.0,0.0,0.0,0.0,0.0,0.0,0.0,0.0,0.0,0.0,0.0,0.0,0.0,0.0,0.0,0.0,0.0,0.0,0.0,0.0,0.0,0.0,0.0,0.0,0.0,0.0,0.0,0.0,0.0,0.0,0.0,0.0,0.0,0.0,0.0,0.0,0.0,0.0,0.0,0.0,4.0134,3.9273,3.9638,0.0,0.0,0.0,0.0,3.8075,3.8571,0.0,0.0,0.0,0.0,0.0,0.0,0.0,0.0,0.0,0.0,0.0,0.0,0.0,0.0,0.0,0.0,0.0,0.0,0.0,0.0,0.0,0.0,0.0,0.0,0.0,0.0,0.0,0.0,0.0,0.0,0.0,0.0,0.0,0.0,0.0,0.0,0.0,0.0,0.0,0.0,0.0,0.0,0.0,0.0,0.0,0.0,0.0,0.0,0.0,0.0,0.0,0.0,0.0,0.0,0.0,0.0,3.5504,3.5769,3.6518,3.7741,3.6383,3.5605,3.5605,3.5436,3.4404,0.0,0.0,0.0,0.0,0.0,0.0,0.0,0.0,0.0,0.0,0.0,0.0,0.0,0.0,0.0,0.0,0.0,0.0,0.0,0.0,0.0,0.0,0.0,0.0,0.0,0.0,0.0,0.0,0.0,0.0,0.0,0.0,0.0,0.0,0.0,0.0,0.0,0.0,0.0,0.0,0.0,4.1625,3.9883,4.0542,4.0913,0.0,0.0,0.0,4.0068,4.0616,0.0,0.0,0.0,0.0,0.0,0.0,0.0,0.0,0.0,0.0,0.0,0.0,0.0,0.0,0.0,0.0,0.0,0.0,0.0,0.0,0.0,0.0,0.0,0.0,0.0,0.0,0.0,0.0,0.0,0.0,0.0,0.0,0.0,0.0,0.0,0.0,0.0,0.0,0.0,0.0,0.0,0.0,0.0,0.0,0.0,0.0,0.0,0.0,0.0,0.0,0.0,0.0,0.0,0.0,0.0,3.3485,3.556,3.6862,3.7646,3.7849,3.6834,3.6056,3.5605,3.4794,3.3519,0.0,0.0,0.0,0.0,0.0,0.0,0.0,0.0,0.0,0.0,0.0,0.0,0.0,0.0,0.0,0.0,0.0,0.0,0.0,0.0,0.0,0.0,0.0,0.0,0.0,0.0,0.0,0.0,0.0,0.0,0.0,0.0,0.0,0.0,0.0,0.0,0.0,0.0,0.0,0.0,0.0,0.0,4.0775,4.176,0.0,0.0,0.0,4.0965,4.0965,0.0,0.0,0.0,0.0,0.0,0.0,0.0,0.0,0.0,0.0,0.0,0.0,0.0,0.0,0.0,0.0,0.0,0.0,0.0,0.0,0.0,0.0,0.0,0.0,0.0,0.0,0.0,0.0,0.0,0.0,0.0,0.0,0.0,0.0,0.0,0.0,0.0,0.0,0.0,0.0,0.0,0.0,0.0,0.0,0.0,0.0,0.0,0.0,0.0,0.0,0.0,0.0,0.0,0.0,0.0,0.0,0.0,3.5605,3.7849,3.874,3.8159,3.7252,3.6507,3.5881,3.4625,0.0,0.0,0.0,0.0,0.0,0.0,0.0,0.0,0.0,0.0,0.0,0.0,0.0,0.0,0.0,0.0,0.0,0.0,0.0,0.0,0.0,0.0,0.0,0.0,0.0,0.0,0.0,2.7656,0.0,0.0,0.0,0.0,0.0,0.0,0.0,0.0,0.0,0.0,0.0,0.0,0.0,0.0,4.1852,4.1673,4.28,4.3329,0.0,0.0,4.1813,4.1682,4.1364,4.0487,0.0,0.0,0.0,0.0,0.0,0.0,0.0,0.0,0.0,0.0,0.0,0.0,0.0,0.0,0.0,0.0,0.0,0.0,0.0,0.0,0.0,0.0,0.0,0.0,0.0,0.0,0.0,0.0,0.0,0.0,0.0,0.0,0.0,0.0,0.0,0.0,0.0,0.0,0.0,0.0,0.0,0.0,0.0,0.0,0.0,0.0,0.0,0.0,0.0,0.0,0.0,0.0,0.0,0.0,0.0,3.56,3.7849,3.8971,3.8876,3.7528,3.6761,3.6722,3.5887,3.4089,0.0,0.0,0.0,0.0,0.0,0.0,0.0,0.0,0.0,0.0,0.0,0.0,0.0,0.0,0.0,0.0,0.0,0.0,0.0,0.0,0.0,0.0,0.0,0.0,0.0,0.0,0.0,0.0,0.0,0.0,0.0,0.0,0.0,0.0,0.0,0.0,0.0,0.0,0.0,0.0,0.0,4.305,4.244,4.3429,4.4426,0.0,0.0,4.298,4.2431,4.2761,4.2044,3.8901,0.0,0.0,0.0,0.0,0.0,0.0,0.0,0.0,0.0,0.0,0.0,0.0,0.0,0.0,0.0,0.0,0.0,0.0,0.0,0.0,0.0,0.0,0.0,0.0,0.0,0.0,0.0,0.0,0.0,0.0,0.0,0.0,0.0,0.0,0.0,0.0,0.0,0.0,0.0,0.0,0.0,0.0,0.0,0.0,0.0,0.0,0.0,0.0,0.0,0.0,0.0,0.0,0.0,3.3989,3.5184,3.7661,3.8955,3.8959,3.799,3.7252,3.6823,3.6022,3.4296,0.0,0.0,0.0,0.0,0.0,0.0,0.0,0.0,0.0,0.0,0.0,0.0,0.0,0.0,0.0,0.0,0.0,0.0,0.0,0.0,0.0,0.0,0.0,0.0,0.0,0.0,0.0,0.0,3.2556,3.3186,3.4073,0.0,0.0,0.0,0.0,0.0,0.0,0.0,0.0,0.0,0.0,4.3409,4.3539,4.4347,0.0,0.0,4.4237,4.3818,4.3599,4.31,4.2043,3.9948,3.952,0.0,0.0,0.0,0.0,0.0,0.0,0.0,0.0,0.0,0.0,0.0,0.0,0.0,0.0,0.0,0.0,0.0,0.0,0.0,0.0,0.0,0.0,0.0,0.0,0.0,0.0,0.0,0.0,0.0,0.0,0.0,0.0,0.0,0.0,0.0,0.0,0.0,0.0,0.0,0.0,0.0,0.0,0.0,0.0,0.0,0.0,0.0,0.0,0.0,0.0,0.0,0.0,3.3737,3.494,3.7551,3.8931,3.9066,3.8514,3.7894,3.7156,3.636,3.4762,0.0,0.0,0.0,0.0,0.0,0.0,0.0,0.0,0.0,0.0,0.0,0.0,0.0,0.0,0.0,0.0,0.0,0.0,0.0,0.0,0.0,0.0,0.0,0.0,0.0,0.0,0.0,0.0,3.3687,3.424,3.537,0.0,0.0,0.0,0.0,0.0,0.0,0.0,0.0,0.0,0.0,4.3997,4.4267,4.4885,4.5155,4.4676,4.4267,4.4007,4.3997,4.324,4.2292,4.1184,0.0,0.0,0.0,0.0,0.0,0.0,0.0,0.0,0.0,0.0,0.0,0.0,0.0,0.0,0.0,0.0,0.0,0.0,0.0,0.0,0.0,0.0,0.0,0.0,0.0,0.0,0.0,0.0,0.0,0.0,0.0,0.0,0.0,0.0,0.0,0.0,0.0,0.0,0.0,0.0,0.0,0.0,0.0,0.0,0.0,0.0,0.0,0.0,0.0,0.0,0.0,0.0,0.0,0.0,3.5072,3.7556,3.9002,3.9196,3.9041,3.8599,3.7883,3.715,3.569,3.3391,0.0,0.0,0.0,0.0,0.0,0.0,0.0,0.0,0.0,0.0,0.0,0.0,0.0,0.0,0.0,0.0,0.0,0.0,0.0,0.0,0.0,0.0,0.0,0.0,0.0,0.0,3.3544,3.4099,3.4757,0.0,0.0,0.0,0.0,0.0,0.0,0.0,0.0,0.0,0.0,4.3639,4.5035,4.4426,4.4885,4.5274,4.5285,4.4207,4.3359,4.3389,4.3329,4.307,0.0,0.0,0.0,0.0,0.0,0.0,0.0,0.0,0.0,0.0,0.0,0.0,0.0,0.0,0.0,0.0,0.0,0.0,0.0,0.0,0.0,0.0,0.0,0.0,0.0,0.0,0.0,3.1168,3.0403,0.0,0.0,0.0,0.0,0.0,0.0,0.0,0.0,0.0,0.0,0.0,3.462,3.5121,0.0,0.0,0.0,0.0,0.0,0.0,0.0,0.0,0.0,0.0,0.0,0.0,3.3236,3.4605,3.6943,3.8502,3.9176,3.9068,3.8673,3.7922,3.7184,3.5729,3.3485,0.0,0.0,0.0,0.0,0.0,0.0,0.0,0.0,0.0,0.0,0.0,0.0,0.0,0.0,0.0,0.0,0.0,0.0,0.0,0.0,0.0,0.0,0.0,0.0,0.0,3.433,0.0,0.0,0.0,0.0,0.0,0.0,0.0,0.0,0.0,0.0,0.0,4.2122,4.318,4.4466,4.5225,4.4975,4.5165,4.5274,0.0,0.0,0.0,0.0,0.0,0.0,0.0,0.0,0.0,0.0,0.0,0.0,0.0,0.0,4.8315,4.5473,4.4796,4.4586,4.4367,0.0,0.0,0.0,0.0,0.0,0.0,0.0,0.0,0.0,0.0,0.0,0.0,0.0,0.0,0.0,0.0,3.2433,0.0,0.0,0.0,0.0,0.0,0.0,0.0,0.0,3.4818,3.5661,3.6409,3.6926,3.7101,0.0,3.633,3.4903,0.0,0.0,0.0,0.0,0.0,0.0,0.0,0.0,3.3229,3.4637,3.6496,3.7836,3.8537,3.8686,3.8407,3.7688,3.7139,3.6148,3.4646,3.4069,3.3451,0.0,0.0,0.0,0.0,0.0,0.0,0.0,0.0,0.0,0.0,0.0,0.0,0.0,0.0,0.0,0.0,0.0,0.0,0.0,0.0,0.0,0.0,0.0,3.5019,0.0,0.0,0.0,0.0,0.0,0.0,0.0,0.0,0.0,4.1124,4.2451,4.3708,4.4546,4.5424,4.5813,4.5364,0.0,0.0,0.0,0.0,0.0,0.0,0.0,4.4984,4.4984,4.5204,4.5713,4.682,4.8962,5.0476,5.0226,0.0,0.0,4.7818,4.7149,4.6999,4.6999,4.7717,4.8106,4.7489,4.8207,4.8775,0.0,0.0,0.0,0.0,0.0,0.0,0.0,0.0,3.3639,3.4066,0.0,3.3777,0.0,0.0,0.0,0.0,0.0,0.0,0.0,0.0,3.7263,3.7845,3.7389,3.7912,3.7874,3.738,3.7883,3.7306,3.5611,3.3477,0.0,0.0,0.0,0.0,0.0,0.0,3.3427,3.5141,3.6343,3.7064,3.7439,3.8016,3.801,3.7303,3.7071,3.6934,3.6856,3.7362,3.6842,3.4889,3.4715,0.0,0.0,0.0,0.0,0.0,0.0,0.0,0.0,0.0,0.0,0.0,0.0,0.0,0.0,0.0,0.0,0.0,0.0,0.0,0.0,3.513,0.0,0.0,0.0,0.0,0.0,0.0,0.0,0.0,0.0,0.0,4.264,4.4157,4.5304,4.5345,0.0,0.0,0.0,0.0,4.6091,4.5494,4.5374,4.5394,4.5404,4.5892,4.63,4.633,0.0,0.0,4.8248,4.9942,5.0978,5.0327,5.0757,5.1187,5.0996,5.0458,5.0177,5.0166,5.0177,5.0039,4.9535,4.9751,4.9998,3.3052,0.0,0.0,0.0,0.0,3.3649,3.4249,3.5122,3.5282,3.5177,3.49,3.4701,0.0,0.0,0.0,0.0,0.0,0.0,3.6027,3.6751,3.7322,3.7709,3.7941,3.8115,3.8115,3.797,3.8115,3.796,3.7443,3.6623,3.476,3.2005,0.0,0.0,0.0,0.0,3.397,3.5187,3.6321,3.7064,3.7402,3.8409,3.8798,3.849,3.7495,3.7195,3.7554,3.6968,3.6545,3.6332,3.5072,0.0,0.0,0.0,0.0,0.0,0.0,0.0,0.0,0.0,0.0,0.0,0.0,0.0,0.0,0.0,0.0,0.0,0.0,0.0,3.5865,3.6096,3.6776,0.0,0.0,0.0,0.0,0.0,0.0,0.0,0.0,0.0,4.5155,4.5653,4.6001,0.0,0.0,4.6461,4.6061,4.6181,4.639,4.6681,0.0,0.0,0.0,4.6491,4.648,4.6939,4.7967,4.8936,4.9572,5.0488,5.0985,5.0327,5.0757,5.0918,5.0103,5.087,5.1546,5.1606,5.1636,5.1397,5.084,5.0787,5.0858,3.4448,3.414,3.3854,3.3936,3.4279,3.4502,3.5087,3.5822,3.6054,3.6019,3.5854,3.5864,3.4928,3.336,3.35,0.0,0.0,0.0,3.6304,3.7176,3.7354,3.7602,3.7967,3.8127,3.8212,3.8212,3.8212,3.8212,3.8212,3.8047,3.6631,3.4125,0.0,0.0,3.3291,3.3765,3.4506,3.5491,3.6191,3.6716,3.7059,3.7991,3.8573,3.8703,3.8168,3.8032,3.8382,3.7695,3.7379,3.7492,3.5938,3.4652,0.0,0.0,0.0,0.0,0.0,0.0,0.0,0.0,0.0,0.0,0.0,3.2924,3.1816,0.0,0.0,0.0,3.5481,3.6926,3.7593,3.8131,0.0,0.0,0.0,0.0,0.0,0.0,0.0,4.5135,4.5764,4.6251,4.664,4.67,4.6689,4.6689,4.6689,4.6689,4.6689,0.0,4.685,4.7238,4.7298,4.7298,4.7298,4.6969,4.6839,4.7238,4.8199,4.9086,4.9722,5.0182,5.0391,5.0278,5.0338,5.0272,4.9733,5.0631,5.1528,5.1768,5.2037,5.2067,5.1666,5.1367,5.1217,3.57,3.5648,3.4875,3.4588,3.4643,3.5204,3.5463,3.5557,3.6117,3.6555,3.6881,3.6891,3.6245,3.5116,3.451,0.0,0.0,3.5779,3.6397,3.7047,3.7442,3.7625,3.7682,3.8014,3.8212,3.8212,3.8212,3.8212,3.8212,3.823,3.7766,3.6866,3.6067,3.5601,3.5481,3.4907,3.5044,3.5943,3.5989,3.6195,3.6562,3.704,3.7677,3.8362,3.8872,3.9142,3.9182,3.9089,3.881,3.8203,3.7067,3.5842,3.4612,0.0,0.0,0.0,0.0,0.0,0.0,0.0,0.0,0.0,0.0,0.0,0.0,0.0,0.0,0.0,3.7494,0.0,3.9571,4.0735,0.0,0.0,0.0,4.262,4.2731,4.4317,4.5404,4.5454,0.0,0.0,0.0,0.0,4.7298,4.7298,4.7298,4.7298,4.7298,4.7268,4.7298,4.7298,4.7298,4.7298,4.7298,4.7279,4.7238,4.7309,4.7848,4.8558,4.9097,4.9348,4.9546,4.9901,4.9613,4.9396,4.9901,5.0028,5.0387,5.0948,5.1546,5.1995,5.1989,5.1517,5.1086,3.57,3.5672,3.5501,3.5432,3.5432,3.5568,3.5623,3.567,3.5796,3.5911,3.6011,3.6001,3.5837,3.5544,3.5397,3.5601,3.61,3.6239,3.673,3.7452,3.7567,3.7739,3.8052,3.8146,3.8212,3.8212,3.8212,3.8212,3.8221,3.8529,3.8293,3.757,3.7147,3.646,3.5519,3.5332,3.5423,3.576,3.5934,3.6398,3.7156,3.6807,3.7395,3.8921,3.8701,3.8742,3.9156,3.8318,3.7752,3.7599,3.6879,3.6044,3.5087,3.3718,0.0,0.0,0.0,0.0,0.0,0.0,0.0,0.0,0.0,3.578,3.3664,0.0,3.7883,0.0,3.9508,4.0954,4.1622,4.1982,0.0,0.0,4.3976,4.4365,4.5679,4.5966,4.6251,4.677,4.71,4.7298,4.7298,4.7298,4.7298,4.7298,4.7298,4.7298,4.7298,4.7298,4.7298,4.7298,4.7298,4.7298,4.7298,4.7298,4.7298,4.7298,4.7859,4.8338,4.8517,4.8977,4.9187,4.8865,4.9097,4.8947,4.8196,4.9142,4.9979,4.9864,5.0242,5.0835,5.1307,5.0918,5.0607,3.57,3.57,3.57,3.57,3.57,3.57,3.57,3.57,3.57,3.57,3.57,3.57,3.57,3.57,3.57,3.5858,3.6088,3.6088,3.6338,3.6764,3.7153,3.7471,3.7692,3.8033,3.8212,3.8212,3.8212,3.8212,3.8192,3.8173,3.7996,3.7776,3.7089,3.6458,3.593,3.5378,3.4994,3.4867,3.507,3.5628,3.6493,3.6706,3.7298,3.8318,3.887,3.8981,3.881,3.8162,3.7672,3.741,3.6838,3.6375,3.6081,3.5026,3.4334,0.0,0.0,0.0,0.0,0.0,0.0,0.0,0.0,0.0,0.0,0.0,3.9493,0.0,4.156,0.0,4.3318,4.3942,4.4663,4.5615,4.5548,4.5818,4.667,4.6753,4.6836,4.7087,4.7233,4.7298,4.7298,4.7298,4.7298,4.7298,4.7298,4.7298,4.7298,4.7298,4.7298,4.7298,4.7298,4.7298,4.7298,4.7298,4.7298,4.7339,4.7608,4.7938,4.8218,4.8338,4.8379,4.8319,4.8368,4.8188,4.7519,4.8345,4.9224,4.9056,4.9355,5.011,5.0996,5.0907,5.0787,3.551,3.5591,3.5581,3.5635,3.57,3.57,3.57,3.57,3.57,3.57,3.57,3.57,3.57,3.57,3.57,3.572,3.577,3.577,3.5841,3.5981,3.6715,3.7095,3.7182,3.7872,3.8212,3.8212,3.8212,3.8164,3.8077,3.7571,3.7443,3.7502,3.6481,3.6056,3.6178,3.5094,3.429,3.3849,3.4035,3.4547,3.5366,3.6378,3.7041,3.7331,3.8817,3.9176,3.8236,3.8269,3.804,3.7431,3.6948,3.6881,3.7272,3.6539,3.5999,0.0,3.5144,0.0,0.0,0.0,0.0,0.0,0.0,0.0,0.0,4.028,4.1169,4.2228,4.3431,4.4314,4.48,4.5931,4.6569,4.6546,4.6745,4.6778,4.6609,4.6942,4.7168,4.6898,4.7106,4.7298,4.7255,4.7277,4.7298,4.7298,4.7298,4.7298,4.7298,4.7298,4.7298,4.7298,4.7298,4.7298,4.7298,4.7298,4.7298,4.7298,4.7339,4.7519,4.8038,4.7709,4.7519,4.7948,4.7728,4.7388,4.7399,4.7908,4.8338,4.8528,4.9056,4.9823,5.0727,5.0996,5.1098,3.4541,3.4957,3.4975,3.5256,3.57,3.57,3.57,3.57,3.57,3.57,3.57,3.57,3.57,3.57,3.57,3.5928,3.6248,3.6286,3.6624,3.7231,3.7423,3.7644,3.7967,3.8136,3.8212,3.8212,3.8212,3.797,3.7476,3.7641,3.7205,3.6299,3.6323,3.5897,0.0,0.0,0.0,0.0,3.3896,3.4334,3.5272,3.496,3.5566,3.7155,3.7129,0.0,3.7577,3.8104,3.8126,3.7521,3.7727,0.0,0.0,0.0,0.0,0.0,0.0,0.0,0.0,0.0,0.0,0.0,4.1213,4.0654,4.0012,4.1517,4.3016,4.4001,4.4545,4.5225,4.612,4.6432,4.6502,4.6325,4.6491,4.6558,4.6336,4.6701,4.6898,4.6679,4.7019,4.7222,4.7029,4.7149,4.7298,4.7298,4.7298,4.7298,4.7298,4.7298,4.7298,4.7298,4.7298,4.7298,4.7298,4.7298,4.7298,4.7298,4.7298,4.7369,4.7489,4.7448,4.7298,4.7519,4.7388,4.7489,4.7967,4.8229,4.8498,4.9018,4.9583,5.0099,5.0327,5.0387,5.0548,3.4088,0.0,3.4666,3.4975,0.0,3.5591,3.57,3.57,3.57,3.57,3.57,3.57,3.57,3.57,3.57,3.5958,3.6405,3.6405,3.6723,3.7289,3.7519,3.7692,3.7929,3.8099,3.8212,3.8202,3.7874,3.7629,3.7392,3.6927,3.6483,3.6052,3.5932,3.5557,3.5019,3.4989,3.4487,3.3522,3.3769,3.4234,3.4909,3.5477,3.6433,3.7725,0.0,0.0,0.0,0.0,0.0,0.0,0.0,0.0,0.0,0.0,0.0,3.8876,3.8918,3.9038,3.9379,4.0588,4.1764,4.2751,4.2949,4.2798,4.2286,4.3104,4.3878,4.4567,4.4299,4.4261,4.4673,4.5161,4.5401,4.531,4.5938,4.6314,4.6146,4.6469,4.6657,4.6491,4.6811,4.704,4.6931,4.7157,4.7287,4.7298,4.7298,4.7298,4.7298,4.7298,4.7298,4.7298,4.7298,4.7298,4.7298,4.7298,4.7298,4.7298,4.7298,4.7298,4.7298,4.7298,4.7298,4.7298,4.7298,4.7519,4.8158,4.8558,4.8887,4.9318,5.0062,5.0506,5.0327,5.0446,5.0787,3.3664,3.3809,3.4279,3.4541,3.4666,3.5164,3.5445,3.5554,0.0,0.0,0.0,3.57,3.574,3.58,3.581,3.6118,3.6585,3.6623,3.6831,3.7221,3.7548,3.772,3.7739,3.8042,3.8154,3.8028,3.7535,3.723,3.714,3.614,3.5798,3.5984,3.5609,3.5581,3.5832,3.584,3.514,3.381,3.4234,3.4642,3.5022,3.6584,3.7696,3.8367,3.9302,3.963,3.9251,3.9353,3.9176,3.8668,3.8666,3.9107,3.997,4.0025,4.0403,4.1302,4.1523,4.1573,4.1613,4.2831,4.3658,4.3815,4.4008,4.4343,4.4827,4.4096,4.3877,4.4575,4.3507,4.2777,4.2816,4.3713,4.4231,4.409,4.5298,4.6023,4.5719,4.618,4.6425,4.6247,4.6569,4.6844,4.6855,4.7051,4.7266,4.7298,4.7298,4.7298,4.7298,4.7298,4.7298,4.7298,4.7298,4.7298,4.7298,4.7298,4.7298,4.7298,4.7298,4.7298,4.7298,4.7298,4.7298,4.7298,4.7358,4.7788,4.8368,4.9026,4.9486,4.9606,5.044,5.1056,5.0596,5.0817,5.1158,3.2743,3.3214,3.3286,3.3593,3.4033,3.4115,3.4459,3.4947,3.5483,3.57,3.57,3.57,3.5938,3.6305,3.6315,3.6703,3.7423,3.7442,3.7644,0.0,3.8089,3.8108,3.8118,3.8174,3.7941,3.7447,3.736,3.6812,3.5947,3.5885,3.568,3.5479,3.5972,3.6563,3.7088,3.7118,3.6914,3.6443,3.6399,3.658,3.6918,3.7157,3.7636,3.8259,3.8075,3.8133,3.8616,3.9203,3.9378,3.9134,4.0052,4.0603,4.0604,4.0944,4.1252,4.1413,4.1952,4.2261,4.2281,4.3836,4.5052,4.5672,4.5056,4.5012,4.5788,4.3306,4.2381,4.4043,4.2556,4.1838,4.2707,4.3614,4.3843,4.3273,4.4759,4.5583,4.4736,4.5571,4.618,4.5978,4.6347,4.6635,4.6668,4.6833,4.7062,4.7244,4.7298,4.7298,4.7298,4.7298,4.7298,4.7298,4.7298,4.7298,4.7298,4.7298,4.7298,4.7298,4.7298,4.7298,4.7298,4.7298,4.7328,4.7328,4.7728,4.8349,4.9018,4.9673,5.0159,5.0619,5.1068,5.1146,5.0996,5.1146,5.1247,3.2372,3.2644,3.2979,3.3232,3.3512,3.3782,3.427,3.4812,3.5093,3.5381,3.572,3.5978,3.6188,3.6415,3.6624,3.7046,3.7605,3.7605,3.7796,3.8193,3.8212,3.8212,3.8212,3.8212,3.8038,3.7767,3.7447,3.7099,3.679,3.6563,3.6428,3.6424,3.6794,3.7135,3.7404,3.7755,3.7923,3.7908,3.7622,3.7609,3.7942,3.8323,3.8805,3.9442,3.9232,3.9261,3.956,3.983,3.9898,3.9781,4.0445,4.0973,4.1234,4.1667,4.2092,4.2422,4.2731,4.3021,4.326,4.4552,4.5577,4.6085,4.4436,4.3767,4.4657,4.2575,4.1498,4.2079,4.1061,4.0567,4.1083,4.2024,4.2425,4.1987,4.3796,4.4793,4.4533,4.5298,4.6007,4.5962,4.6169,4.6425,4.6609,4.6778,4.7008,4.7255,4.7298,4.7298,4.7298,4.7298,4.7298,4.7298,4.7298,4.7298,4.7298,4.7298,4.7298,4.7298,4.7298,4.7298,4.7298,4.7298,4.7448,4.7758,4.8128,4.8697,4.9553,4.9991,5.0488,5.1026,5.1217,5.1217,5.1217,5.1457,5.1726,3.22,3.2237,3.2698,3.2979,3.3142,3.3673,3.425,3.4804,3.493,3.5296,3.5864,3.6266,3.6454,3.6565,3.6958,3.7337,3.7711,3.772,3.7891,3.8174,3.8212,3.8212,3.8212,3.8212,3.8154,3.7979,3.7552,3.7461,3.7543,3.719,3.7196,3.7579,3.7605,3.7695,3.7845,3.8353,3.8728,3.8883,3.8603,3.8615,3.8895,3.9459,3.9999,4.0452,4.0474,4.0505,4.0462,4.0502,4.0458,4.0422,4.0873,4.1345,4.1831,4.2328,4.284,4.324,4.329,4.3548,4.4126,4.4979,4.5636,4.5821,4.3638,4.2381,4.2569,4.1484,4.0644,4.0379,3.9904,3.9611,3.9904,4.0655,4.1107,4.1007,4.2716,4.3902,4.4043,4.4886,4.5674,4.5821,4.6034,4.6247,4.6535,4.6734,4.6942,4.7233,4.7298,4.7298,4.7298,4.7298,4.7298,4.7298,4.7298,4.7298,4.7298,4.7298,4.7298,4.7298,4.7298,4.7388,4.7489,4.7549,4.7799,4.8368,4.8656,4.9123,4.9968,5.0357,5.0637,5.1128,5.1217,5.1217,5.1247,5.1696,5.2127,3.22,3.22,3.2309,3.259,3.316,3.3683,3.4242,3.4807,3.5262,3.5768,3.6308,3.6395,3.6624,3.6987,3.7375,3.7739,3.8108,3.8146,3.8155,3.8193,3.8212,3.8212,3.8231,3.8212,3.7903,3.7533,3.7552,3.7441,3.7184,3.7191,3.756,3.8234,3.8311,3.8601,3.9122,3.9242,3.94,3.9594,3.9771,3.9904,4.0121,4.0321,4.0452,4.0474,4.0505,4.0444,4.0384,4.0821,4.0987,4.0779,4.1765,4.2374,4.2389,4.288,4.324,4.33,4.3319,4.3656,4.448,4.4968,4.5161,4.4911,4.3144,4.1571,4.0672,3.9703,3.9497,3.9953,3.9496,3.9258,3.9686,4.0554,4.0806,4.0275,4.1753,4.2937,4.3189,4.3831,4.4816,4.581,4.5933,4.609,4.6532,4.6686,4.6862,4.7255,4.7298,4.7298,4.7298,4.7298,4.7298,4.7298,4.7298,4.7298,4.7298,4.7298,4.7369,4.7339,4.7328,4.7597,4.7967,4.8188,4.8397,4.9056,4.9583,4.9938,5.0267,5.0667,5.1056,5.1158,5.1247,5.1247,5.1265,5.1846,5.2276,3.24,3.2735,3.2735,3.306,3.3574,3.3799,3.425,3.4824,3.5283,3.5826,3.6439,3.6899,3.7211,3.7394,3.7768,3.8052,3.8212,3.8212,3.8212,3.8212,3.8212,3.8405,3.8725,3.8376,3.8288,3.8535,3.8288,3.8177,3.8213,3.8406,3.868,3.8943,3.8981,3.9131,3.9391,3.9412,3.9445,3.9526,3.9851,4.0046,4.0152,4.0375,4.0505,4.0496,4.0436,4.0532,4.0803,4.0902,4.1016,4.1303,4.2064,4.2448,4.241,4.296,4.325,4.313,4.3215,4.3796,4.487,4.4694,4.4629,4.4861,4.244,4.069,4.0191,3.8807,3.8211,3.885,3.9222,3.9484,3.9711,4.0096,4.0364,4.0604,4.1394,4.2304,4.3594,4.4055,4.4724,4.5708,4.6001,4.6191,4.6546,4.6862,4.7081,4.7277,4.7298,4.7298,4.7298,4.7298,4.7298,4.7298,4.7298,4.7298,4.7328,4.7668,4.7668,4.7549,4.7978,4.8588,4.8338,4.8708,4.9097,4.9703,5.0039,5.0416,5.0757,5.0936,5.1217,5.1307,5.1606,5.1786,5.1798,5.2636,5.3234,3.2924,3.3313,3.3486,3.385,3.4335,3.4525,3.4893,3.5425,3.5871,3.6324,3.6773,3.7443,3.7863,3.8055,3.8157,3.8289,3.8463,3.8454,3.858,3.8696,3.8725,3.8996,3.9363,3.8986,3.9101,3.9613,3.9357,3.9348,3.9709,3.9866,3.9948,3.9969,3.9969,3.9948,3.9939,3.993,3.996,4.0005,4.0305,4.0494,4.0584,4.0776,4.087,4.0795,4.0835,4.1047,4.1394,4.1297,4.1426,4.1872,4.2369,4.2661,4.2651,4.3031,4.314,4.2989,4.3163,4.3696,4.4609,4.4272,4.4117,4.4149,4.1731,4.0189,3.9837,3.8484,3.7761,3.8303,3.9361,4.0058,3.9723,3.971,4.0147,4.1045,4.1194,4.2035,4.3961,4.4312,4.4724,4.5697,4.6068,4.6336,4.6646,4.7026,4.7287,4.7298,4.7298,4.7298,4.7298,4.7298,4.7369,4.7529,4.7578,4.7589,4.7608,4.7919,4.8038,4.8218,4.8738,4.9067,4.8835,4.9325,4.9774,5.032,5.0387,5.0596,5.0996,5.1217,5.1606,5.1786,5.2115,5.2546,5.2815,5.3653,5.4132,3.3844,3.3971,3.4496,3.4997,3.5485,3.5999,3.6502,3.6833,3.7318,3.7529,3.7634,3.8034,3.8542,3.9044,3.8551,3.858,3.9102,3.916,3.9421,3.9867,3.9915,4.0002,4.006,4.0051,4.0159,4.0451,4.0489,4.0747,4.1156,4.1235,4.1313,4.1283,4.1194,4.1254,4.1224,4.1164,4.1283,4.1183,4.14,4.1628,4.1835,4.1832,4.176,4.162,4.1951,4.2035,4.2033,4.2314,4.2454,4.237,4.291,4.324,4.322,4.3071,4.294,4.2807,4.307,4.3334,4.3536,4.3771,4.3733,4.304,4.1352,4.0133,4.0001,3.8869,3.8376,3.8806,4.0156,4.068,3.9968,3.9878,4.0313,4.1244,4.1244,4.2157,4.4125,4.4394,4.4805,4.5685,4.6135,4.6458,4.6844,4.7117,4.7317,4.7369,4.7339,4.7399,4.7519,4.7429,4.7709,4.8158,4.8308,4.8278,4.8278,4.8536,4.8757,4.8876,4.9157,4.9516,4.9871,5.0207,5.0566,5.0847,5.0936,5.1056,5.1277,5.1696,5.2306,5.2648,5.2917,5.3276,5.3563,5.3952,5.4401,3.4298,3.4989,3.5838,3.6312,3.6522,3.7109,3.744,3.7654,3.8447,3.8806,3.8875,3.9247,3.9538,3.9741,3.9538,3.9538,3.977,3.977,3.9886,4.0089,4.0089,4.0331,4.069,4.0489,4.0695,4.1195,4.1075,4.1127,4.1375,4.1413,4.1413,4.1413,4.1413,4.1413,4.1413,4.1413,4.1413,4.1422,4.1582,4.1735,4.1898,4.2334,4.2575,4.2474,4.2094,4.2075,4.2374,4.2444,4.2629,4.297,4.318,4.329,4.326,4.299,4.2905,4.3062,4.3096,4.3447,4.408,4.3464,4.3182,4.3423,4.1178,3.9867,3.9938,3.9695,3.9402,3.9297,4.0308,4.0919,4.0794,4.0655,4.1357,4.268,4.2047,4.234,4.4441,4.492,4.4966,4.5871,4.6425,4.6789,4.713,4.7255,4.7459,4.7859,4.7948,4.8098,4.8468,4.8547,4.8727,4.9243,4.9224,4.9247,5.014,4.9751,4.9602,4.9595,4.9756,5.0092,5.0416,5.0656,5.0996,5.1247,5.1367,5.1606,5.1816,5.2426,5.3007,5.3246,5.3528,5.3935,5.4149,5.4491,5.482,3.5199,3.604,3.6947,3.7386,3.7588,3.8153,3.8515,3.8673,3.9371,3.9702,3.9762,3.9971,4.0205,4.0418,4.0437,4.0554,4.0709,4.0554,4.0525,4.0738,4.0728,4.1029,4.1401,4.125,4.1459,4.2011,4.1931,4.1878,4.2003,4.2013,4.2022,4.2043,4.2013,4.2013,4.2013,4.2022,4.2013,4.2041,4.2128,4.2253,4.24,4.2838,4.3117,4.3125,4.256,4.2434,4.2953,4.2788,4.2851,4.325,4.329,4.324,4.309,4.3057,4.3046,4.3194,4.328,4.367,4.4342,4.353,4.3166,4.3598,4.1989,4.0713,4.0477,4.0863,4.0654,4.0241,4.0846,4.1778,4.2035,4.1912,4.2438,4.3792,4.303,4.3174,4.5452,4.5475,4.5743,4.6625,4.7274,4.7632,4.7864,4.7938,4.8188,4.8588,4.8618,4.8828,4.9168,4.9318,4.9505,5.0039,4.9811,5.0051,5.0619,5.0529,5.038,5.0361,5.0403,5.0679,5.0966,5.1176,5.1415,5.1636,5.1876,5.2127,5.2546,5.3144,5.3503,5.3755,5.4174,5.4623,5.482,5.4999,5.5324,3.6588,3.7007,3.7654,3.8167,3.8587,3.9226,3.9742,4.0,4.0156,4.0262,4.031,4.0234,4.0612,4.0999,4.1105,4.1435,4.1754,4.1347,4.1406,4.187,4.1949,4.2091,4.2284,4.2267,4.2471,4.2882,4.314,4.322,4.312,4.309,4.312,4.321,4.312,4.306,4.323,4.312,4.318,4.315,4.315,4.3298,4.3596,4.3368,4.3388,4.3576,4.3318,4.3298,4.3585,4.3388,4.324,4.33,4.329,4.31,4.2957,4.3288,4.3493,4.3283,4.3652,4.4001,4.4077,4.4052,4.3773,4.3636,4.3333,4.2551,4.1746,4.2118,4.2199,4.1526,4.2032,4.3057,4.3725,4.3321,4.3261,4.4125,4.4102,4.4538,4.5652,4.6149,4.6656,4.7759,4.8402,4.895,4.9179,4.9187,4.9247,4.9366,4.9516,4.9587,4.9756,4.9786,4.9744,5.0129,5.0338,5.0607,5.0936,5.1187,5.1158,5.1158,5.1199,5.1337,5.1606,5.1846,5.2127,5.2366,5.2594,5.2863,5.3623,5.4162,5.4461,5.473,5.5089,5.5281,5.5491,5.5653,5.5811,3.7298,3.7518,3.8398,3.888,3.915,4.0133,4.0675,4.0844,4.125,4.1482,4.1482,4.1482,4.1599,4.1715,4.1773,4.1889,4.2063,4.186,4.1889,4.2104,4.2247,4.2331,4.2443,4.2678,4.296,4.318,4.327,4.329,4.329,4.329,4.329,4.329,4.329,4.329,4.329,4.329,4.329,4.329,4.329,4.3339,4.3409,4.3369,4.3359,4.3389,4.3329,4.3339,4.3399,4.3339,4.33,4.329,4.329,4.3329,4.3429,4.3602,4.3707,4.3764,4.428,4.4629,4.4657,4.4828,4.5001,4.4841,4.4249,4.3665,4.3261,4.3009,4.278,4.2343,4.2659,4.3225,4.3984,4.4055,4.4254,4.5258,4.477,4.5033,4.6567,4.7539,4.8422,4.9229,4.9302,4.9407,4.9788,4.9961,5.0212,5.0601,5.0942,5.1151,5.1211,5.1031,5.1331,5.1546,5.1355,5.1056,5.1427,5.1636,5.1606,5.1636,5.1696,5.1858,5.2157,5.2576,5.2857,5.3246,5.3443,5.388,5.464,5.4999,5.5251,5.5431,5.5551,5.5803,5.6072,5.6248,5.6363,3.8398,3.862,3.9546,3.9905,4.0031,4.1047,4.1482,4.1541,4.1928,4.2092,4.2092,4.2092,4.2082,4.2082,4.2082,4.2082,4.2113,4.2175,4.2187,4.2236,4.232,4.2463,4.2617,4.296,4.318,4.328,4.329,4.329,4.329,4.329,4.329,4.329,4.329,4.329,4.329,4.329,4.329,4.329,4.329,4.329,4.33,4.329,4.329,4.33,4.33,4.329,4.329,4.329,4.329,4.3339,4.3439,4.3615,4.3722,4.4028,4.4296,4.4483,4.5111,4.5634,4.5624,4.6039,4.6099,4.592,4.5499,4.4768,4.4391,4.3878,4.4145,4.3467,4.3404,4.3784,4.4655,4.4568,4.492,4.5776,4.5327,4.5769,4.744,4.8864,4.9946,5.0627,5.0858,5.096,5.1187,5.1337,5.1457,5.1917,5.2097,5.2187,5.2127,5.1887,5.1947,5.1935,5.1756,5.1696,5.2037,5.2097,5.2007,5.2055,5.2115,5.2336,5.2588,5.3204,5.3653,5.4486,5.4862,5.5222,5.585,5.5683,5.5743,5.5893,5.6149,5.6389,5.6658,5.6628,5.6727,3.9743,4.0156,4.0786,4.0999,4.1086,4.1754,4.2005,4.2073,4.2092,4.2082,4.2082,4.2082,4.2082,4.2082,4.2082,4.2082,4.2123,4.2279,4.2382,4.2412,4.2484,4.2648,4.299,4.318,4.327,4.329,4.329,4.329,4.329,4.329,4.329,4.329,4.329,4.329,4.329,4.329,4.329,4.329,4.329,4.329,4.329,4.329,4.329,4.329,4.329,4.329,4.329,4.3379,4.3409,4.3399,4.3765,4.3918,4.4023,4.472,4.5051,4.5075,4.6174,4.6557,4.6859,4.7155,4.7237,4.6492,4.6914,4.6762,4.4863,4.5338,4.5553,4.4513,4.4254,4.4655,4.5395,4.5402,4.5459,4.603,4.6382,4.7117,4.8566,5.0099,5.1315,5.2169,5.2827,5.3198,5.3007,5.3007,5.3007,5.3067,5.2785,5.2636,5.2474,5.2324,5.1606,5.1696,5.2115,5.2276,5.2546,5.2618,5.2588,5.2665,5.2875,5.3324,5.3575,5.4204,5.476,5.5581,5.6072,5.6492,5.6688,5.6492,5.6539,5.6868,5.7034,5.7124,5.7167,5.7223,5.7547,3.9991,4.0176,4.0815,4.1115,4.1192,4.1802,4.2082,4.2082,4.2082,4.2082,4.2082,4.2082,4.2092,4.2092,4.2092,4.2082,4.2175,4.2339,4.2504,4.2617,4.2779,4.297,4.318,4.327,4.329,4.329,4.329,4.329,4.329,4.329,4.329,4.329,4.329,4.329,4.329,4.329,4.329,4.329,4.329,4.329,4.329,4.3329,4.329,4.329,4.3329,4.3359,4.3359,4.3778,4.3946,4.3834,4.3922,4.4277,4.4741,4.5149,4.5631,4.6237,4.6569,4.6818,4.6963,4.7491,4.7629,4.7423,4.764,4.7483,4.6809,4.5997,4.576,4.5229,4.4851,4.4868,4.5879,4.6392,4.7077,4.8301,4.8488,4.8998,5.02,5.1631,5.2874,5.3521,5.3396,5.3486,5.3713,5.3605,5.3545,5.3862,5.385,5.3611,5.3491,5.3312,5.2833,5.2695,5.2917,5.2917,5.3007,5.3097,5.3169,5.3276,5.3815,5.47,5.5059,5.5641,5.6166,5.6808,5.6778,5.7077,5.7274,5.7304,5.7573,5.7709,5.7573,5.7496,5.7832,5.8034,5.8586,4.0931,4.097,4.1366,4.1512,4.158,4.1947,4.2082,4.2082,4.2082,4.2082,4.2082,4.2082,4.2144,4.2236,4.2226,4.2259,4.2372,4.2576,4.2708,4.285,4.304,4.318,4.328,4.329,4.329,4.329,4.329,4.329,4.329,4.329,4.329,4.329,4.329,4.329,4.329,4.329,4.3319,4.329,4.329,4.329,4.329,4.3599,4.3718,4.3808,4.3938,4.4147,4.4217,4.4526,4.4633,4.4556,4.4836,4.5264,4.5592,4.609,4.6572,4.7219,4.7451,4.7631,4.7729,4.8217,4.8444,4.8246,4.82,4.8026,4.7676,4.6825,4.6482,4.6559,4.5936,4.6114,4.6879,4.7703,4.8768,4.991,5.0603,5.1101,5.1648,5.2789,5.3658,5.397,5.3922,5.3862,5.4508,5.4221,5.4593,5.5102,5.5251,5.494,5.464,5.4431,5.4132,5.3815,5.3725,5.3785,5.4054,5.4246,5.4576,5.4623,5.5119,5.5974,5.6226,5.6765,5.7184,5.7513,5.7513,5.7633,5.7902,5.8082,5.8068,5.8098,5.7932,5.8048,5.8444,5.8907,5.9478,4.2082,4.2092,4.2092,4.2082,4.2063,4.2092,4.2082,4.2082,4.2082,4.2082,4.2082,4.2082,4.2185,4.2391,4.2331,4.2494,4.2627,4.283,4.2961,4.3051,4.319,4.3349,4.3499,4.3359,4.3329,4.329,4.329,4.329,4.3349,4.3389,4.3449,4.3569,4.3569,4.3559,4.3748,4.3658,4.3539,4.3658,4.3758,4.3758,4.3808,4.4147,4.4386,4.4486,4.4825,4.5155,4.5294,4.5442,4.5468,4.5348,4.6139,4.637,4.6425,4.7334,4.7747,4.791,4.8263,4.8542,4.8716,4.9001,4.9245,4.8728,4.8641,4.8496,4.8048,4.778,4.7688,4.755,4.7479,4.7601,4.8277,4.9109,5.0052,5.1089,5.2108,5.2732,5.3102,5.3727,5.4341,5.4389,5.4418,5.473,5.5162,5.5418,5.5688,5.606,5.6119,5.576,5.5538,5.5448,5.4999,5.4503,5.4503,5.464,5.5072,5.5504,5.594,5.6269,5.6812,5.7337,5.7214,5.7573,5.7949,5.8188,5.8218,5.8381,5.868,5.8726,5.8607,5.8647,5.8627,5.885,5.9161,5.9697,6.0246,4.2082,4.2082,4.2082,4.2082,4.2082,4.2082,4.2082,4.2082,4.2082,4.2092,4.2092,4.2092,4.2154,4.2206,4.2372,4.2443,4.2586,4.287,4.309,4.324,4.327,4.3638,4.3848,4.3658,4.3359,4.3389,4.3329,4.3319,4.3439,4.3878,4.4087,4.4147,4.4486,4.4845,4.4785,4.4696,4.4845,4.4855,4.4825,4.4766,4.4755,4.4935,4.5095,4.5155,4.5334,4.5633,4.6049,4.6398,4.6767,4.7047,4.6937,4.6997,4.7409,4.7724,4.8084,4.8438,4.8612,4.8728,4.8757,4.8902,4.8902,4.8844,4.8786,4.8658,4.8554,4.8537,4.8287,4.7986,4.7899,4.8452,4.9296,5.0287,5.1053,5.1858,5.2677,5.3388,5.389,5.4526,5.5059,5.5478,5.5671,5.5983,5.6539,5.6149,5.6419,5.6928,5.6868,5.6479,5.6389,5.6406,5.5987,5.5478,5.5568,5.5777,5.597,5.6449,5.6915,5.7334,5.7919,5.8264,5.8128,5.8291,5.8637,5.8816,5.8906,5.9099,5.9219,5.9085,5.8876,5.9107,5.9307,5.9438,5.9693,6.0307,6.1031,4.2082,4.2082,4.2082,4.2082,4.2082,4.2082,4.2082,4.2082,4.2082,4.2164,4.2236,4.2247,4.2331,4.2525,4.2657,4.2729,4.284,4.302,4.3379,4.3678,4.3818,4.4147,4.4606,4.4446,4.4247,4.4247,4.4267,4.4237,4.4366,4.4546,4.4766,4.4796,4.5155,4.5185,4.5274,4.5334,4.5244,4.5244,4.5274,4.5274,4.5304,4.5633,4.5992,4.6262,4.6501,4.6901,4.7258,4.7625,4.8104,4.8342,4.8108,4.7955,4.8366,4.8591,4.8839,4.9088,4.9175,4.9175,4.9175,4.9175,4.9204,4.9175,4.9175,4.9175,4.9223,4.9272,4.9426,4.9301,4.9228,4.9337,5.0018,5.1052,5.1786,5.2336,5.3396,5.4221,5.461,5.4999,5.5281,5.57,5.588,5.6389,5.6688,5.6808,5.7317,5.7872,5.8112,5.7782,5.7363,5.732,5.7124,5.6825,5.6855,5.6915,5.6974,5.7304,5.7769,5.8158,5.8547,5.8726,5.8667,5.8949,5.9308,5.9249,5.9085,5.9398,5.9488,5.9338,5.9368,5.9605,5.979,5.9866,6.022,6.0913,6.17,4.2082,4.2082,4.2082,4.2082,4.2082,4.2082,4.2082,4.2082,4.2082,4.2206,4.2361,4.2392,4.2565,4.288,4.297,4.314,4.3439,4.3688,4.4077,4.4396,4.4456,4.4845,4.5264,4.5384,4.5443,4.5544,4.5244,4.5195,4.5185,4.5404,4.5454,4.5484,4.5644,4.5813,4.5693,4.5644,4.5793,4.5823,4.5813,4.5783,4.5813,4.6262,4.676,4.7339,4.7948,4.8248,4.8391,4.8674,4.911,4.9539,4.9463,4.9408,4.9441,4.949,4.9722,4.9681,4.9751,4.9838,4.9838,4.9838,4.9838,4.9867,4.9722,4.973,4.9761,4.9907,5.0262,5.0585,5.0572,5.0263,5.0442,5.1367,5.2097,5.2636,5.4042,5.497,5.5341,5.5431,5.57,5.597,5.6568,5.7124,5.7436,5.7646,5.8261,5.8756,5.8936,5.8966,5.8487,5.8188,5.7949,5.7902,5.7902,5.7902,5.7962,5.7932,5.8427,5.8607,5.8996,5.9026,5.9056,5.9398,5.9578,5.9265,5.9205,5.9668,5.9997,5.9997,6.0086,6.022,6.036,6.0552,6.0998,6.158,6.2353,4.2082,4.2082,4.2082,4.2082,4.2082,4.2082,4.2082,4.2082,4.2092,4.2216,4.2431,4.2402,4.2645,4.2868,4.297,4.3428,4.4117,4.4516,4.4905,4.5125,4.5155,4.5484,4.6042,4.6132,4.639,4.652,4.6052,4.5484,4.5574,4.5832,4.6102,4.6251,4.6591,4.683,4.682,4.6939,4.686,4.6871,4.692,4.695,4.701,4.716,4.7489,4.8158,4.8798,4.9097,4.9175,4.9303,4.9521,4.9844,5.0422,5.0645,5.051,5.0081,4.988,4.9954,5.034,5.0556,5.0419,5.0543,5.0535,5.0407,5.0178,4.9973,5.0065,5.0198,5.082,5.1309,5.1557,5.1393,5.1092,5.1858,5.2438,5.3067,5.3875,5.488,5.576,5.6419,5.6915,5.7274,5.762,5.7872,5.8112,5.8334,5.865,5.8919,5.9009,5.9099,5.886,5.877,5.877,5.877,5.886,5.886,5.889,5.88,5.8919,5.889,5.9099,5.9145,5.9308,5.9727,5.9787,5.9907,6.0103,6.0551,6.0745,6.0685,6.0775,6.0864,6.1075,6.1255,6.1731,6.2268,6.2906,4.2082,4.2082,4.2082,4.2082,4.2082,4.2082,4.2082,4.2113,4.2206,4.2576,4.2977,4.3188,4.3539,4.3941,4.4143,4.4474,4.4825,4.5095,4.5484,4.5723,4.5862,4.6161,4.6749,4.679,4.6999,4.7059,4.661,4.6292,4.6352,4.664,4.6779,4.6869,4.7179,4.7309,4.7399,4.7608,4.7758,4.7859,4.8109,4.8289,4.8308,4.8308,4.8558,4.8858,4.9374,4.9733,4.9814,5.0079,5.0337,5.0667,5.0908,5.1119,5.1146,5.1017,5.0697,5.0793,5.1112,5.1125,5.0996,5.1112,5.1353,5.0801,5.0828,5.1081,5.1179,5.1398,5.1726,5.2253,5.2809,5.2819,5.2354,5.2546,5.2857,5.3276,5.4114,5.5132,5.6102,5.7034,5.7799,5.8457,5.8547,5.865,5.88,5.8949,5.9069,5.9099,5.9099,5.9129,5.9159,5.9219,5.9249,5.9249,5.9249,5.9279,5.9338,5.9398,5.9428,5.9398,5.9368,5.9428,5.9727,6.025,6.0789,6.1148,6.1373,6.1433,6.1373,6.1313,6.1433,6.1523,6.1709,6.1938,6.2394,6.2942,6.3523,4.2082,4.2082,4.2082,4.2082,4.2082,4.2082,4.2123,4.2195,4.2496,4.3054,4.3735,4.4086,4.4569,4.5173,4.5384,4.5503,4.5503,4.5633,4.6082,4.6401,4.651,4.6809,4.7149,4.7298,4.7268,4.7238,4.7209,4.7298,4.713,4.7189,4.7268,4.7238,4.7268,4.7429,4.7608,4.8008,4.8278,4.8648,4.8959,4.9258,4.9318,4.9426,4.9486,4.9546,5.0081,5.0387,5.0423,5.0768,5.1071,5.1364,5.155,5.1683,5.192,5.2006,5.2093,5.2128,5.2205,5.1762,5.1671,5.1983,5.2218,5.165,5.2024,5.2162,5.235,5.2539,5.3138,5.3467,5.373,5.3898,5.3384,5.3384,5.3516,5.3875,5.4743,5.5748,5.6628,5.7513,5.8351,5.8846,5.9159,5.9249,5.9219,5.9099,5.9099,5.9099,5.9129,5.9412,5.9442,5.9488,5.9518,5.9518,5.9518,5.9578,5.9668,5.9817,5.9907,6.0027,6.0027,6.0086,6.0446,6.0864,6.1387,6.1836,6.2002,6.2002,6.1942,6.1986,6.2121,6.2225,6.2328,6.2558,6.293,6.343,6.3978,4.2082,4.2082,4.2082,4.2082,4.2121,4.2131,4.2245,4.2497,4.3067,4.354,4.4166,4.4625,4.5087,4.5472,4.6012,4.6151,4.63,4.664,4.692,4.7029,4.7089,4.7179,4.7339,4.7298,4.7478,4.7578,4.7489,4.7298,4.7459,4.7489,4.7369,4.7369,4.7519,4.7578,4.8188,4.8476,4.8618,4.9097,4.9288,4.9378,4.9456,4.9871,5.0081,5.0278,5.0637,5.0966,5.1033,5.1351,5.1677,5.1842,5.2639,5.3074,5.3246,5.3469,5.3755,5.3677,5.337,5.2811,5.2715,5.3057,5.3166,5.275,5.2796,5.2588,5.3087,5.3642,5.4129,5.4077,5.4281,5.4281,5.4162,5.4059,5.4371,5.476,5.5311,5.6406,5.7363,5.7334,5.8261,5.9129,5.9398,5.9368,5.9338,5.9219,5.9099,5.9099,5.9189,5.9518,5.9787,5.9907,5.9997,6.0027,6.0116,6.0146,6.0116,6.0266,6.0372,6.0551,6.0595,6.0685,6.1044,6.1417,6.1776,6.2165,6.2361,6.2613,6.267,6.273,6.2853,6.2894,6.2947,6.3139,6.3389,6.3878,6.4356,4.277,4.2092,4.2082,4.2295,4.2606,4.2771,4.308,4.3516,4.4072,4.4596,4.513,4.5534,4.5998,4.6371,4.679,4.6879,4.6929,4.7209,4.7298,4.7339,4.7369,4.7549,4.7818,4.7919,4.7978,4.8308,4.8438,4.8517,4.8338,4.8038,4.7859,4.7919,4.8218,4.8588,4.8876,4.9224,4.9512,4.9841,5.0163,5.0361,5.0451,5.0619,5.0757,5.0745,5.1056,5.1187,5.1332,5.1762,5.2149,5.2384,5.3098,5.355,5.3781,5.3908,5.3977,5.4235,5.4161,5.376,5.3377,5.3845,5.3854,5.3761,5.3726,5.4288,5.4652,5.4996,5.5311,5.5341,5.5341,5.5162,5.485,5.476,5.491,5.5251,5.5521,5.6119,5.6928,5.7363,5.7812,5.874,5.9651,5.9787,5.9967,6.0086,5.9997,5.9771,5.9967,6.0342,6.0521,6.0641,6.0685,6.0685,6.0775,6.0851,6.0791,6.0791,6.0851,6.097,6.094,6.1134,6.1553,6.1956,6.2255,6.2525,6.2778,6.3016,6.328,6.3293,6.3203,6.3348,6.3551,6.3693,6.3835,6.4047,6.4468,4.3459,4.2669,4.2577,4.2828,4.3245,4.3528,4.3878,4.4392,4.498,4.5548,4.603,4.6386,4.6839,4.7179,4.7238,4.7209,4.7268,4.7459,4.7549,4.7578,4.7758,4.8128,4.8427,4.8588,4.8809,4.9318,4.9108,4.9127,4.9097,4.8966,4.8745,4.8588,4.8899,4.9307,4.9583,4.9871,5.0159,5.0488,5.0858,5.1068,5.1128,5.1128,5.1187,5.1187,5.1217,5.1217,5.1337,5.2085,5.2652,5.2876,5.3519,5.4069,5.4433,5.4235,5.4265,5.4458,5.4514,5.437,5.4218,5.4404,5.4421,5.4442,5.4696,5.547,5.5897,5.6295,5.6432,5.6329,5.609,5.5863,5.5564,5.5341,5.5162,5.5162,5.5281,5.5683,5.6222,5.7124,5.8141,5.9279,6.016,6.0699,6.0894,6.1134,6.0984,6.0579,6.0715,6.112,6.1299,6.1389,6.1433,6.1463,6.1672,6.1672,6.1463,6.1433,6.1419,6.1479,6.1479,6.1672,6.2165,6.2405,6.2614,6.2898,6.3092,6.3266,6.3395,6.3467,6.3522,6.3679,6.3849,6.4104,6.4256,6.441,6.4552,4.4079,4.4134,4.396,4.3906,4.3975,4.4139,4.4392,4.4819,4.5609,4.606,4.6407,4.6869,4.7179,4.7279,4.7298,4.7328,4.7358,4.7948,4.8128,4.8409,4.8798,4.9037,4.9187,4.9247,4.9318,4.9438,4.9576,4.9516,4.9486,4.9931,4.9613,4.9348,4.9587,4.9763,4.9991,5.0308,5.0607,5.0877,5.1146,5.1176,5.1217,5.1217,5.1217,5.1217,5.1217,5.1217,5.1265,5.2366,5.3144,5.325,5.4046,5.4616,5.4832,5.4539,5.4564,5.4807,5.4692,5.4641,5.4819,5.4883,5.5061,5.5248,5.5543,5.6042,5.6521,5.6851,5.6987,5.6944,5.6658,5.6312,5.5983,5.5671,5.5431,5.5581,5.579,5.609,5.6718,5.7573,5.8607,5.9861,6.0609,6.1044,6.1373,6.1509,6.1583,6.1164,6.1387,6.1792,6.2091,6.2195,6.2255,6.2345,6.2644,6.2584,6.2195,6.2151,6.2285,6.2345,6.2375,6.2525,6.2838,6.2988,6.2898,6.3017,6.318,6.3352,6.3524,6.3579,6.3722,6.3948,6.416,6.4398,6.4524,6.4621,6.4705,4.5416,4.5453,4.5559,4.5357,4.4998,4.5234,4.561,4.6051,4.6575,4.6834,4.6909,4.7168,4.7298,4.7298,4.7339,4.7549,4.7889,4.8128,4.8517,4.8846,4.9187,4.9505,4.9673,4.9912,5.0062,5.0331,5.0421,5.0481,5.0571,5.0667,5.0667,5.0511,5.0343,5.0559,5.0787,5.0757,5.0966,5.1086,5.1217,5.1217,5.1217,5.1217,5.1217,5.1217,5.1217,5.1457,5.1887,5.2707,5.3306,5.3873,5.4479,5.4883,5.5146,5.4798,5.4849,5.5116,5.4913,5.4989,5.5065,5.5108,5.5181,5.5688,5.576,5.609,5.7004,5.7274,5.7393,5.7334,5.7154,5.6868,5.6658,5.6239,5.5953,5.6239,5.6449,5.6645,5.7244,5.8038,5.886,5.998,6.0655,6.1164,6.1479,6.1748,6.1792,6.1792,6.2135,6.2405,6.2614,6.2808,6.2748,6.2748,6.2958,6.3048,6.2674,6.2868,6.3108,6.3108,6.3108,6.3108,6.3108,6.3108,6.3062,6.3151,6.3266,6.3453,6.3624,6.3736,6.3948,6.4216,6.4485,6.4707,6.4791,6.4818,6.4846,4.6258,4.6347,4.658,4.6336,4.5858,4.614,4.6486,4.6894,4.716,4.7298,4.7298,4.7298,4.7429,4.7549,4.7638,4.8008,4.8517,4.8865,4.9176,4.9535,4.9853,5.0081,5.0368,5.0548,5.0709,5.1158,5.1217,5.1158,5.1068,5.1187,5.1128,5.1098,5.1217,5.1158,5.1158,5.1217,5.1217,5.1217,5.1217,5.1367,5.1457,5.1307,5.1415,5.1487,5.1576,5.1726,5.2306,5.3025,5.3713,5.4172,5.4635,5.4968,5.5082,5.5082,5.5015,5.5116,5.5222,5.5222,5.5128,5.5125,5.5317,5.5914,5.6119,5.6735,5.75,5.7829,5.8082,5.7949,5.7782,5.7573,5.7363,5.6868,5.6688,5.6885,5.6825,5.7034,5.7723,5.8487,5.9219,6.004,6.0625,6.1239,6.1792,6.2121,6.2331,6.2375,6.2555,6.2748,6.2868,6.2988,6.3018,6.2988,6.3048,6.3108,6.3078,6.3108,6.3108,6.3108,6.3108,6.3108,6.3108,6.3122,6.3137,6.3151,6.3309,6.3553,6.3823,6.4078,6.4286,6.451,6.4721,6.4846,6.486,6.486,6.4874,4.6358,4.662,4.6811,4.6627,4.6252,4.6675,4.6901,4.7005,4.726,4.7399,4.7429,4.7418,4.7799,4.8188,4.8289,4.8678,4.9224,4.974,5.0069,5.0249,5.0589,5.1008,5.1068,5.1086,5.1026,5.1158,5.1217,5.1217,5.1217,5.1217,5.1217,5.1217,5.1217,5.1217,5.1217,5.1217,5.1217,5.1217,5.1217,5.1606,5.1696,5.1546,5.1816,5.1905,5.2157,5.2276,5.2785,5.3473,5.4102,5.4436,5.4872,5.5141,5.5184,5.5196,5.5154,5.5179,5.5222,5.5222,5.5209,5.5196,5.5628,5.6239,5.6509,5.7304,5.8068,5.8517,5.886,5.8773,5.8726,5.8351,5.7962,5.7633,5.7603,5.7543,5.7513,5.7752,5.8501,5.8949,5.9638,6.0266,6.0775,6.1329,6.2002,6.2525,6.2824,6.2958,6.3048,6.3108,6.3108,6.3108,6.3108,6.3108,6.3108,6.3108,6.3108,6.3108,6.3108,6.3108,6.3108,6.3108,6.3151,6.3194,6.3194,6.318,6.3422,6.3779,6.4134,6.4443,6.461,6.4735,6.4805,6.4888,6.4901,6.4901,6.4901,4.6723,4.6822,4.7051,4.6964,4.6734,4.7008,4.719,4.726,4.7695,4.7967,4.8068,4.8409,4.8708,4.8929,4.9007,4.9295,4.9871,5.0009,5.0297,5.0877,5.1116,5.1158,5.1217,5.1247,5.1247,5.1217,5.1217,5.1247,5.1217,5.1217,5.1217,5.1217,5.1217,5.1217,5.1217,5.1217,5.1217,5.1295,5.1546,5.1816,5.1696,5.2115,5.2396,5.2306,5.2677,5.3037,5.3384,5.4072,5.4491,5.479,5.5251,5.5239,5.5251,5.5251,5.5222,5.5222,5.5251,5.5461,5.57,5.591,5.6179,5.6658,5.7064,5.7842,5.9129,5.9099,5.9415,5.9803,5.9787,5.9518,5.9308,5.883,5.865,5.859,5.865,5.8919,5.9428,5.9638,6.007,6.0595,6.112,6.1479,6.2002,6.2495,6.2854,6.3048,6.3108,6.3108,6.3108,6.3108,6.3108,6.3108,6.3108,6.3108,6.3108,6.3108,6.3108,6.3108,6.3108,6.3108,6.3165,6.3252,6.3367,6.341,6.3708,6.4047,6.4359,6.461,6.4777,6.4888,6.4963,6.5025,6.5055,6.4994,6.4901,4.6909,4.6931,4.7171,4.7182,4.7073,4.7233,4.7298,4.7388,4.7758,4.8068,4.8349,4.8757,4.9206,4.9445,4.9643,4.9942,5.0488,5.0566,5.0626,5.1217,5.1217,5.1217,5.1247,5.1397,5.1427,5.1367,5.1427,5.1487,5.1217,5.1217,5.1217,5.1217,5.1217,5.1217,5.1277,5.1397,5.1606,5.1786,5.2127,5.2576,5.2576,5.2815,5.3067,5.3114,5.3354,5.3725,5.4192,5.464,5.5059,5.5401,5.5551,5.5551,5.5534,5.5341,5.5371,5.5431,5.582,5.597,5.6132,5.6795,5.7094,5.7423,5.744,5.8321,5.9608,5.9668,6.0116,6.0521,6.0745,6.0446,6.01,5.9608,5.9564,5.9504,5.9279,5.9518,6.0086,6.0296,6.0459,6.0984,6.1239,6.1598,6.2032,6.2391,6.2794,6.2988,6.3108,6.3108,6.3108,6.3108,6.3108,6.3108,6.3108,6.3108,6.3108,6.3108,6.3108,6.3108,6.3137,6.3151,6.328,6.3395,6.351,6.3681,6.3977,6.4272,6.451,6.4749,6.4908,6.5025,6.5055,6.5117,6.5209,6.5148,6.5025,4.692,4.6953,4.7201,4.7298,4.7298,4.7358,4.7399,4.7369,4.7448,4.7848,4.8457,4.8626,4.9314,5.0129,5.0237,5.0548,5.0966,5.1086,5.1158,5.1247,5.1367,5.1337,5.1588,5.1917,5.1858,5.1708,5.1678,5.1678,5.1277,5.1217,5.1217,5.1337,5.1397,5.1487,5.1708,5.2085,5.2235,5.2306,5.2827,5.3216,5.3324,5.3516,5.3695,5.3832,5.4102,5.4329,5.479,5.5341,5.588,5.6162,5.6222,5.6222,5.6042,5.5611,5.5833,5.6162,5.6718,5.6641,5.6718,5.747,5.7876,5.8085,5.8248,5.8979,5.9727,6.0326,6.0864,6.1313,6.1553,6.0954,6.0429,6.0386,6.0342,5.9953,5.9444,5.9907,6.0611,6.0894,6.0984,6.1194,6.1299,6.1672,6.2255,6.2644,6.2854,6.2988,6.3108,6.3108,6.3108,6.3108,6.3108,6.3108,6.3108,6.3108,6.3108,6.3108,6.3108,6.3108,6.3209,6.3266,6.3381,6.3551,6.3779,6.4005,6.4244,6.4496,6.4721,6.4911,6.5075,6.5134,6.5055,6.5503,6.5688,6.5349,6.5257,4.7201,4.7212,4.7277,4.7298,4.7369,4.7829,4.8038,4.8079,4.8487,4.9086,4.968,5.017,5.0398,5.0907,5.0907,5.1026,5.1128,5.1217,5.1217,5.1337,5.1606,5.1828,5.2139,5.2438,5.2378,5.2157,5.2007,5.1917,5.1427,5.1277,5.1606,5.1846,5.1917,5.2127,5.2618,5.3264,5.2875,5.2815,5.3414,5.3725,5.4024,5.4174,5.4281,5.4389,5.467,5.494,5.5581,5.591,5.6389,5.6778,5.6838,5.6838,5.6808,5.6645,5.6748,5.6778,5.7047,5.7167,5.75,5.7889,5.8324,5.8876,5.9249,5.9907,6.0655,6.1194,6.1687,6.2032,6.2121,6.1567,6.1058,6.0894,6.0641,6.0116,5.9907,6.0492,6.112,6.1224,6.1343,6.1553,6.1658,6.2061,6.2614,6.2808,6.3018,6.3078,6.3108,6.3108,6.3108,6.3108,6.3108,6.3108,6.3108,6.3108,6.3108,6.3108,6.3108,6.3122,6.3209,6.3352,6.3553,6.375,6.4075,6.4328,6.451,6.4663,6.4846,6.4994,6.5072,6.5042,6.5025,6.5657,6.6043,6.5674,6.5657,4.7448,4.7679,4.7698,4.7829,4.8158,4.8517,4.8816,4.9045,4.9247,4.9643,5.0219,5.0548,5.0925,5.1158,5.1187,5.1187,5.1187,5.1217,5.1217,5.1367,5.1935,5.2067,5.2396,5.2857,5.2899,5.2648,5.2378,5.2187,5.1917,5.2007,5.2306,5.2558,5.2588,5.2827,5.3216,5.3635,5.3713,5.3671,5.388,5.4162,5.4473,5.4743,5.473,5.476,5.5072,5.5521,5.6162,5.6342,5.6855,5.7393,5.7483,5.7513,5.747,5.747,5.7244,5.7304,5.7752,5.7872,5.8098,5.8667,5.9056,5.9608,6.0326,6.0984,6.1373,6.1762,6.2315,6.2734,6.2525,6.2225,6.1702,6.1224,6.0715,6.019,6.0685,6.115,6.1359,6.1493,6.1702,6.1972,6.2271,6.2614,6.2928,6.3048,6.3108,6.3108,6.3108,6.3108,6.3108,6.3108,6.3108,6.3108,6.3108,6.3108,6.3108,6.3108,6.3108,6.3122,6.3165,6.3338,6.3638,6.3922,6.416,6.4454,6.4718,6.4846,6.4901,6.4932,6.4994,6.4994,6.5165,6.5705,6.6012,6.578,6.5996,4.7788,4.8368,4.8368,4.8678,4.9258,4.9318,4.9643,5.0129,4.9714,4.9774,5.0267,5.0327,5.0727,5.1146,5.1217,5.1217,5.1217,5.1217,5.1337,5.1307,5.2097,5.2456,5.2785,5.3049,5.3456,5.3156,5.2887,5.2785,5.3007,5.2977,5.2917,5.3258,5.3276,5.3456,5.3755,5.4162,5.4299,5.4341,5.461,5.4952,5.5042,5.5162,5.5222,5.5162,5.5281,5.5551,5.6252,5.6838,5.741,5.7889,5.8188,5.8188,5.8188,5.8145,5.7842,5.7962,5.853,5.871,5.8936,5.9444,5.9937,6.0535,6.1327,6.1613,6.1762,6.2195,6.2748,6.2704,6.2435,6.2016,6.1523,6.1583,6.1343,6.1148,6.1403,6.1822,6.2091,6.2181,6.2315,6.2525,6.2674,6.2988,6.2988,6.3108,6.3108,6.3108,6.3108,6.3108,6.3108,6.3108,6.3108,6.3108,6.3108,6.3108,6.3108,6.3108,6.3108,6.3122,6.3165,6.3324,6.3624,6.3936,6.4261,6.4554,6.4846,6.4874,6.4932,6.4932,6.5011,6.5195,6.5442,6.5859,6.592,6.575,6.6519,4.8438,4.9048,4.9048,4.9157,4.9378,4.9793,5.0069,5.0237,5.0607,5.0799,5.0936,5.0966,5.0996,5.1187,5.1217,5.1217,5.1217,5.1247,5.1517,5.1947,5.2516,5.3025,5.3623,5.3935,5.4234,5.4042,5.3773,5.3503,5.3366,5.3348,5.3528,5.3892,5.3982,5.4102,5.4503,5.485,5.485,5.4862,5.5012,5.5222,5.5222,5.5222,5.5222,5.5222,5.5281,5.579,5.6432,5.6958,5.7812,5.859,5.88,5.886,5.8846,5.8846,5.877,5.88,5.9279,5.9488,5.9787,6.0236,6.0745,6.1044,6.1493,6.1523,6.1822,6.2465,6.2674,6.2465,6.2211,6.1762,6.1553,6.1822,6.2032,6.2046,6.2076,6.2435,6.2794,6.2854,6.2914,6.2988,6.3078,6.3108,6.3108,6.3108,6.3108,6.3108,6.3108,6.3108,6.3108,6.3108,6.3108,6.3108,6.3108,6.3108,6.3108,6.3108,6.3108,6.318,6.3223,6.341,6.3668,6.4078,6.4485,6.4694,6.4888,6.4901,6.4901,6.4932,6.5055,6.5195,6.5288,6.552,6.5719,6.5596,6.6841,4.8846,4.9714,5.0044,5.0133,5.0223,5.0518,5.0667,5.0715,5.1068,5.1217,5.1217,5.1217,5.1217,5.1217,5.1217,5.1217,5.1217,5.1217,5.1606,5.2187,5.2695,5.3294,5.3922,5.4431,5.4521,5.4431,5.4551,5.4354,5.3785,5.4054,5.4413,5.4581,5.467,5.479,5.5222,5.5222,5.5251,5.5192,5.5251,5.5251,5.5251,5.5222,5.5222,5.5222,5.5371,5.588,5.6269,5.6778,5.7496,5.8411,5.883,5.9039,5.9039,5.9039,5.9069,5.9219,5.9578,6.01,6.0386,6.0894,6.1523,6.1732,6.1792,6.1882,6.1732,6.2225,6.1882,6.1702,6.2121,6.1822,6.1702,6.1882,6.2121,6.2195,6.2495,6.2868,6.2988,6.3018,6.3018,6.3048,6.3108,6.3108,6.3108,6.3108,6.3108,6.3108,6.3108,6.3108,6.3108,6.3108,6.3108,6.3108,6.3108,6.3108,6.3108,6.3108,6.3108,6.3194,6.3236,6.3705,6.4083,6.4394,6.4721,6.4986,6.5055,6.4901,6.4901,6.4963,6.4932,6.5025,6.5042,6.5072,6.5257,6.5596,6.6642,4.9273,5.0357,5.0936,5.1187,5.1217,5.1187,5.1187,5.1187,5.1217,5.1217,5.1217,5.1217,5.1217,5.1217,5.1217,5.1217,5.1217,5.1217,5.1636,5.2247,5.2426,5.3414,5.3922,5.4054,5.4503,5.4862,5.5042,5.479,5.4341,5.47,5.4952,5.5162,5.5222,5.5222,5.5209,5.5311,5.5444,5.5461,5.5461,5.5401,5.5341,5.5251,5.5222,5.5222,5.5341,5.5683,5.6102,5.6628,5.7197,5.7932,5.8816,5.9009,5.9232,5.9292,5.9368,5.9548,6.0236,6.0519,6.0775,6.1627,6.2002,6.2241,6.2211,6.2121,6.2002,6.1732,6.1403,6.1403,6.1792,6.1972,6.1852,6.2061,6.2301,6.2465,6.2868,6.3108,6.3108,6.3108,6.3108,6.3108,6.3108,6.3108,6.3108,6.3108,6.3108,6.3108,6.3108,6.3108,6.3108,6.3108,6.3108,6.3108,6.3108,6.3108,6.3108,6.3108,6.3108,6.3165,6.331,6.3943,6.4423,6.4528,6.4802,6.5308,6.5288,6.5134,6.5072,6.5103,6.5042,6.4963,6.4932,6.5011,6.5257,6.5626,6.632,5.0278,5.1026,5.1146,5.1217,5.1217,5.1217,5.1217,5.1217,5.1217,5.1217,5.1217,5.1217,5.1217,5.1217,5.1217,5.1217,5.1217,5.1217,5.2037,5.2845,5.2725,5.3743,5.4521,5.4593,5.4922,5.5102,5.5222,5.5102,5.482,5.5042,5.5222,5.5222,5.5222,5.5222,5.5281,5.5504,5.5833,5.5833,5.5833,5.5803,5.5773,5.5593,5.5251,5.5371,5.573,5.6299,5.6868,5.7453,5.8128,5.8697,5.9009,5.9099,5.9262,5.9532,5.9711,6.0027,6.0759,6.1297,6.1746,6.2285,6.2644,6.2734,6.2644,6.2405,6.2225,6.1912,6.1583,6.1283,6.1553,6.1732,6.1822,6.2495,6.2854,6.2868,6.3078,6.3108,6.3108,6.3108,6.3108,6.3108,6.3108,6.3108,6.3108,6.3108,6.3108,6.3108,6.3108,6.3108,6.3108,6.3108,6.3108,6.3108,6.3108,6.3108,6.3108,6.3108,6.3122,6.318,6.3397,6.4053,6.441,6.4422,6.4749,6.5372,6.5534,6.5411,6.5349,6.5134,6.5134,6.5011,6.4963,6.4994,6.5226,6.5503,6.6012]},{"header":{"parameterUnit":"m.s-1","parameterCategory":1,"la1":31.0,"la2":29.5877,"lo1":-88.7671,"lo2":-86.6584,"dy":0.0162,"dx":0.0185,"nx":115,"ny":88,"refTime":"2024-10-06T18:00:00:Z","depth":0,"parameterNumber":3,"parameterNumberName":"V-component_of_WINDS"},"data":[0.0,0.0,0.0,0.0,0.0,0.0,0.0,0.0,0.0,0.0,0.0,0.0,0.0,0.0,0.0,0.0,0.0,0.0,0.0,0.0,0.0,0.0,0.0,0.0,0.0,0.0,0.0,0.0,0.0,0.0,0.0,0.0,0.0,0.0,0.0,0.0,0.0,0.0,0.0,0.0,0.0,0.0,0.0,0.0,0.0,0.0,0.0,0.0,0.0,0.0,0.0,0.0,0.0,0.0,0.0,0.0,0.0,0.0,0.0,0.0,0.0,0.0,0.0,0.0,0.0,0.0,0.0,0.0,0.0,0.0,0.0,0.0,0.0,0.0,0.0,0.0,0.0,0.0,0.0,0.0,0.0,0.0,0.0,0.0,0.0,0.0,0.0,0.0,0.0,0.0,0.0,0.0,0.0,0.0,0.0,0.0,0.0,0.0,0.0,0.0,0.0,0.0,0.0,0.0,0.0,0.0,0.0,0.0,0.0,0.0,0.0,0.0,0.0,0.0,0.0,0.0,0.0,0.0,0.0,0.0,0.0,0.0,0.0,0.0,0.0,0.0,0.0,0.0,0.0,0.0,0.0,0.0,0.0,0.0,0.0,0.0,0.0,0.0,0.0,0.0,0.0,0.0,0.0,0.0,0.0,0.0,0.0,0.0,0.0,0.0,0.0,0.0,0.0,0.0,0.0,0.0,0.0,0.0,0.0,0.0,0.0,0.0,0.0,0.0,0.0,0.0,0.0,0.0,0.0,0.0,0.0,0.0,0.0,0.0,0.0,0.0,0.0,0.0,0.0,0.0,0.0,0.0,0.0,0.0,0.0,0.0,0.0,0.0,0.0,0.0,0.0,0.0,0.0,0.0,0.0,0.0,0.0,0.0,0.0,0.0,0.0,0.0,0.0,0.0,0.0,0.0,0.0,0.0,0.0,0.0,0.0,0.0,0.0,0.0,0.0,0.0,0.0,0.0,0.0,0.0,0.0,0.0,0.0,0.0,0.0,0.0,0.0,0.0,0.0,0.0,0.0,0.0,0.0,0.0,0.0,0.0,0.0,0.0,0.0,0.0,0.0,0.0,0.0,0.0,0.0,0.0,0.0,0.0,0.0,0.0,0.0,0.0,0.0,0.0,0.0,0.0,0.0,0.0,0.0,0.0,0.0,0.0,0.0,0.0,0.0,0.0,0.0,0.0,0.0,0.0,0.0,0.0,0.0,0.0,0.0,0.0,0.0,0.0,0.0,0.0,0.0,0.0,0.0,0.0,0.0,0.0,0.0,0.0,0.0,0.0,0.0,0.0,0.0,0.0,0.0,0.0,0.0,0.0,0.0,0.0,0.0,0.0,0.0,0.0,0.0,0.0,0.0,0.0,0.0,0.0,0.0,0.0,0.0,0.0,0.0,0.0,0.0,0.0,0.0,0.0,0.0,0.0,0.0,0.0,0.0,0.0,0.0,0.0,0.0,0.0,0.0,0.0,0.0,0.0,0.0,0.0,0.0,0.0,0.0,0.0,0.0,0.0,0.0,0.0,0.0,0.0,0.0,0.0,0.0,0.0,0.0,0.0,0.0,0.0,0.0,0.0,0.0,0.0,0.0,0.0,0.0,0.0,0.0,0.0,0.0,0.0,0.0,0.0,0.0,0.0,0.0,0.0,0.0,0.0,0.0,0.0,0.0,0.0,0.0,0.0,0.0,0.0,0.0,0.0,0.0,0.0,0.0,0.0,0.0,0.0,0.0,0.0,0.0,0.0,0.0,0.0,0.0,0.0,0.0,0.0,0.0,0.0,0.0,0.0,0.0,0.0,0.0,0.0,0.0,0.0,0.0,0.0,0.0,0.0,0.0,0.0,0.0,0.0,0.0,0.0,0.0,0.0,0.0,0.0,0.0,0.0,0.0,0.0,0.0,0.0,0.0,0.0,0.0,0.0,0.0,0.0,0.0,0.0,0.0,0.0,0.0,0.0,0.0,0.0,0.0,0.0,0.0,0.0,0.0,0.0,0.0,0.0,0.0,0.0,0.0,0.0,0.0,0.0,0.0,0.0,0.0,0.0,0.0,0.0,0.0,0.0,0.0,0.0,0.0,0.0,0.0,0.0,0.0,0.0,0.0,0.0,0.0,0.0,0.0,0.0,0.0,0.0,0.0,0.0,0.0,0.0,0.0,0.0,0.0,0.0,0.0,0.0,0.0,0.0,0.0,0.0,0.0,0.0,0.0,0.0,0.0,0.0,0.0,0.0,0.0,0.0,0.0,0.0,0.0,0.0,0.0,0.0,0.0,0.0,0.0,0.0,0.0,0.0,0.0,0.0,0.0,0.0,0.0,0.0,0.0,0.0,0.0,0.0,0.0,0.0,0.0,0.0,0.0,0.0,0.0,0.0,0.0,0.0,0.0,0.0,0.0,0.0,0.0,0.0,0.0,0.0,0.0,0.0,0.0,0.0,0.0,0.0,0.0,0.0,0.0,0.0,0.0,0.0,0.0,0.0,0.0,0.0,0.0,0.0,0.0,0.0,0.0,0.0,0.0,0.0,0.0,0.0,0.0,0.0,0.0,0.0,0.0,0.0,0.0,0.0,0.0,0.0,0.0,0.0,0.0,0.0,0.0,0.0,0.0,0.0,0.0,0.0,0.0,0.0,0.0,0.0,0.0,0.0,0.0,0.0,0.0,0.0,0.0,0.0,0.0,0.0,0.0,0.0,0.0,0.0,0.0,0.0,0.0,0.0,0.0,0.0,0.0,0.0,0.0,0.0,0.0,0.0,0.0,0.0,0.0,0.0,0.0,0.0,0.0,0.0,0.0,0.0,0.0,0.0,0.0,0.0,0.0,0.0,0.0,0.0,0.0,0.0,0.0,0.0,0.0,0.0,0.0,0.0,0.0,0.0,0.0,0.0,0.0,0.0,0.0,0.0,0.0,0.0,0.0,0.0,0.0,0.0,0.0,0.0,0.0,0.0,0.0,0.0,0.0,0.0,0.0,0.0,0.0,0.0,0.0,0.0,0.0,0.0,0.0,0.0,0.0,0.0,0.0,0.0,0.0,0.0,0.0,0.0,0.0,0.0,0.0,0.0,0.0,0.0,0.0,0.0,0.0,0.0,0.0,0.0,0.0,0.0,0.0,0.0,0.0,0.0,0.0,0.0,0.0,0.0,0.0,0.0,0.0,0.0,0.0,0.0,0.0,0.0,0.0,0.0,0.0,0.0,0.0,0.0,0.0,0.0,0.0,0.0,0.0,0.0,0.0,0.0,0.0,0.0,0.0,0.0,0.0,0.0,0.0,0.0,0.0,0.0,0.0,0.0,0.0,0.0,0.0,0.0,0.0,0.0,0.0,0.0,0.0,0.0,0.0,0.0,0.0,0.0,0.0,0.0,0.0,0.0,0.0,0.0,0.0,0.0,0.0,0.0,0.0,0.0,0.0,0.0,0.0,0.0,0.0,0.0,0.0,0.0,0.0,0.0,0.0,0.0,0.0,0.0,0.0,0.0,0.0,0.0,0.0,0.0,0.0,0.0,0.0,0.0,0.0,0.0,0.0,0.0,0.0,0.0,0.0,0.0,0.0,0.0,0.0,0.0,0.0,0.0,0.0,0.0,0.0,0.0,0.0,0.0,0.0,0.0,0.0,0.0,0.0,0.0,0.0,0.0,0.0,0.0,0.0,0.0,0.0,0.0,0.0,0.0,0.0,0.0,0.0,0.0,0.0,0.0,0.0,0.0,0.0,0.0,0.0,0.0,0.0,0.0,0.0,0.0,0.0,0.0,0.0,0.0,0.0,0.0,0.0,0.0,0.0,0.0,0.0,0.0,0.0,0.0,0.0,0.0,0.0,0.0,0.0,0.0,0.0,0.0,0.0,0.0,0.0,0.0,0.0,0.0,0.0,0.0,0.0,0.0,0.0,0.0,0.0,0.0,0.0,0.0,0.0,0.0,0.0,0.0,0.0,0.0,0.0,0.0,0.0,0.0,0.0,0.0,0.0,0.0,0.0,0.0,0.0,0.0,0.0,0.0,0.0,0.0,0.0,0.0,0.0,0.0,0.0,0.0,0.0,0.0,0.0,0.0,0.0,0.0,0.0,0.0,0.0,0.0,0.0,0.0,0.0,0.0,0.0,0.0,0.0,0.0,0.0,0.0,0.0,0.0,0.0,0.0,0.0,0.0,0.0,0.0,0.0,0.0,0.0,0.0,0.0,0.0,0.0,0.0,0.0,0.0,0.0,0.0,0.0,0.0,0.0,0.0,0.0,0.0,0.0,0.0,0.0,0.0,0.0,0.0,0.0,0.0,2.1827,0.0,0.0,0.0,0.0,0.0,0.0,0.0,0.0,0.0,0.0,0.0,0.0,0.0,0.0,0.0,0.0,0.0,0.0,0.0,0.0,0.0,0.0,0.0,0.0,0.0,0.0,0.0,0.0,0.0,0.0,0.0,0.0,0.0,0.0,0.0,0.0,0.0,0.0,0.0,0.0,0.0,0.0,0.0,0.0,0.0,0.0,0.0,0.0,0.0,0.0,0.0,0.0,0.0,0.0,0.0,0.0,0.0,0.0,0.0,0.0,0.0,0.0,0.0,0.0,0.0,0.0,0.0,0.0,0.0,0.0,0.0,0.0,0.0,0.0,0.0,0.0,0.0,0.0,0.0,0.0,0.0,0.0,0.0,0.0,0.0,0.0,0.0,0.0,0.0,0.0,0.0,0.0,0.0,0.0,0.0,0.0,0.0,0.0,0.0,0.0,0.0,0.0,0.0,0.0,0.0,0.0,0.0,0.0,0.0,0.0,2.2672,2.307,2.2702,2.2314,2.1905,0.0,0.0,0.0,0.0,0.0,0.0,0.0,0.0,0.0,0.0,0.0,0.0,0.0,0.0,0.0,0.0,0.0,0.0,0.0,0.0,0.0,0.0,0.0,0.0,0.0,0.0,0.0,0.0,0.0,0.0,0.0,0.0,0.0,0.0,0.0,0.0,0.0,0.0,0.0,0.0,0.0,0.0,0.0,0.0,0.0,0.0,0.0,0.0,0.0,0.0,0.0,0.0,0.0,0.0,0.0,0.0,0.0,0.0,0.0,0.0,0.0,0.0,0.0,0.0,0.0,0.0,0.0,0.0,0.0,0.0,0.0,0.0,0.0,0.0,0.0,0.0,0.0,0.0,0.0,0.0,0.0,0.0,0.0,0.0,0.0,0.0,0.0,0.0,0.0,0.0,0.0,0.0,0.0,0.0,0.0,0.0,0.0,0.0,0.0,0.0,0.0,0.0,0.0,0.0,0.0,0.0,0.0,0.0,0.0,0.0,0.0,0.0,2.2741,2.2353,2.1748,0.0,0.0,0.0,0.0,0.0,0.0,0.0,0.0,0.0,0.0,0.0,0.0,0.0,0.0,0.0,0.0,0.0,0.0,0.0,0.0,0.0,0.0,0.0,0.0,0.0,0.0,0.0,0.0,0.0,0.0,0.0,0.0,0.0,0.0,0.0,0.0,0.0,0.0,0.0,0.0,0.0,0.0,0.0,0.0,0.0,0.0,0.0,0.0,0.0,0.0,0.0,0.0,0.0,0.0,0.0,0.0,0.0,0.0,0.0,0.0,0.0,0.0,0.0,0.0,0.0,0.0,0.0,0.0,0.0,0.0,0.0,0.0,0.0,0.0,0.0,0.0,0.0,0.0,0.0,0.0,0.0,0.0,0.0,0.0,0.0,0.0,0.0,0.0,0.0,0.0,0.0,0.0,0.0,0.0,0.0,0.0,0.0,0.0,0.0,0.0,0.0,0.0,0.0,0.0,0.0,0.0,0.0,0.0,0.0,0.0,2.2315,2.2546,2.2858,0.0,2.1337,0.0,0.0,0.0,0.0,0.0,0.0,0.0,0.0,0.0,0.0,0.0,0.0,0.0,0.0,0.0,0.0,0.0,0.0,0.0,0.0,0.0,0.0,0.0,0.0,0.0,0.0,0.0,0.0,0.0,0.0,0.0,0.0,0.0,0.0,0.0,0.0,0.0,0.0,0.0,0.0,0.0,0.0,0.0,0.0,0.0,0.0,0.0,0.0,0.0,0.0,0.0,0.0,0.0,0.0,0.0,0.0,0.0,0.0,0.0,0.0,0.0,0.0,0.0,0.0,0.0,0.0,0.0,0.0,0.0,0.0,0.0,0.0,0.0,0.0,0.0,0.0,0.0,0.0,0.0,0.0,0.0,0.0,0.0,0.0,0.0,0.0,0.0,0.0,0.0,0.0,0.0,0.0,0.0,0.0,0.0,0.0,0.0,0.0,0.0,0.0,0.0,0.0,0.0,0.0,0.0,0.0,0.0,0.0,0.0,0.0,0.0,2.2479,2.2166,2.1493,0.0,0.0,0.0,0.0,0.0,0.0,0.0,0.0,0.0,0.0,0.0,0.0,0.0,0.0,0.0,0.0,0.0,0.0,0.0,0.0,0.0,0.0,0.0,0.0,0.0,0.0,0.0,0.0,0.0,0.0,0.0,0.0,0.0,0.0,0.0,0.0,0.0,0.0,0.0,0.0,0.0,0.0,0.0,0.0,0.0,0.0,0.0,0.0,0.0,0.0,0.0,0.0,0.0,0.0,0.0,0.0,0.0,0.0,0.0,0.0,0.0,0.0,0.0,0.0,0.0,0.0,0.0,0.0,0.0,0.0,0.0,0.0,0.0,0.0,0.0,0.0,0.0,0.0,0.0,0.0,0.0,0.0,0.0,0.0,0.0,0.0,0.0,0.0,0.0,0.0,0.0,0.0,0.0,0.0,0.0,0.0,0.0,0.0,0.0,0.0,0.0,0.0,0.0,0.0,0.0,0.0,0.0,0.0,0.0,0.0,2.1915,0.0,2.2285,2.1835,2.0986,1.9785,0.0,0.0,0.0,0.0,0.0,0.0,0.0,0.0,0.0,0.0,0.0,0.0,0.0,0.0,0.0,0.0,0.0,0.0,0.0,0.0,0.0,0.0,0.0,0.0,0.0,0.0,0.0,0.0,0.0,0.0,0.0,0.0,0.0,0.0,0.0,0.0,0.0,0.0,0.0,0.0,0.0,0.0,0.0,0.0,0.0,0.0,0.0,0.0,0.0,0.0,0.0,0.0,0.0,0.0,0.0,0.0,0.0,0.0,0.0,0.0,0.0,0.0,0.0,0.0,0.0,0.0,0.0,0.0,0.0,0.0,0.0,0.0,0.0,0.0,0.0,0.0,0.0,0.0,0.0,0.0,0.0,0.0,0.0,0.0,0.0,0.0,0.0,0.0,0.0,0.0,0.0,0.0,0.0,0.0,0.0,0.0,0.0,0.0,0.0,0.0,0.0,0.0,0.0,0.0,0.0,0.0,0.0,0.0,0.0,2.1896,2.1894,2.1944,2.2245,2.1455,0.0,0.0,0.0,0.0,0.0,0.0,0.0,0.0,0.0,0.0,0.0,0.0,0.0,0.0,0.0,0.0,0.0,0.0,0.0,0.0,0.0,0.0,0.0,0.0,0.0,0.0,0.0,0.0,0.0,0.0,0.0,0.0,0.0,0.0,0.0,0.0,0.0,0.0,0.0,0.0,0.0,0.0,0.0,0.0,0.0,0.0,0.0,0.0,0.0,0.0,0.0,0.0,0.0,0.0,0.0,0.0,0.0,0.0,0.0,0.0,0.0,0.0,0.0,0.0,0.0,0.0,0.0,0.0,0.0,0.0,0.0,0.0,0.0,0.0,0.0,0.0,0.0,0.0,0.0,0.0,0.0,0.0,0.0,0.0,0.0,0.0,0.0,0.0,0.0,0.0,0.0,0.0,0.0,0.0,0.0,0.0,0.0,0.0,0.0,0.0,0.0,0.0,0.0,0.0,0.0,0.0,0.0,0.0,0.0,2.1055,2.1338,2.1728,2.2227,2.1357,2.0459,0.0,0.0,0.0,0.0,0.0,0.0,0.0,0.0,0.0,0.0,0.0,0.0,0.0,0.0,0.0,0.0,0.0,0.0,0.0,0.0,0.0,0.0,0.0,0.0,0.0,0.0,0.0,0.0,0.0,0.0,0.0,0.0,0.0,0.0,0.0,0.0,0.0,0.0,0.0,0.0,0.0,0.0,0.0,0.0,0.0,0.0,0.0,0.0,0.0,0.0,0.0,0.0,0.0,0.0,0.0,0.0,0.0,0.0,0.0,0.0,0.0,0.0,0.0,0.0,0.0,0.0,0.0,0.0,0.0,0.0,0.0,0.0,0.0,0.0,0.0,0.0,0.0,0.0,0.0,0.0,0.0,0.0,0.0,0.0,0.0,0.0,0.0,0.0,0.0,0.0,0.0,0.0,0.0,0.0,0.0,0.0,0.0,0.0,0.0,0.0,0.0,0.0,0.0,0.0,0.0,0.0,0.0,0.0,0.0,2.0791,0.0,2.1766,0.0,2.1103,2.0147,0.0,0.0,0.0,0.0,0.0,0.0,0.0,0.0,0.0,0.0,0.0,0.0,0.0,0.0,0.0,0.0,0.0,0.0,0.0,0.0,0.0,0.0,0.0,0.0,0.0,0.0,0.0,0.0,0.0,0.0,0.0,0.0,0.0,0.0,0.0,0.0,0.0,0.0,0.0,0.0,0.0,0.0,0.0,0.0,0.0,0.0,0.0,0.0,0.0,0.0,0.0,0.0,0.0,0.0,0.0,0.0,0.0,0.0,0.0,0.0,0.0,0.0,0.0,0.0,0.0,0.0,0.0,0.0,0.0,0.0,0.0,0.0,0.0,0.0,0.0,0.0,0.0,0.0,0.0,0.0,0.0,0.0,0.0,0.0,0.0,0.0,0.0,0.0,0.0,0.0,0.0,0.0,0.0,0.0,0.0,0.0,0.0,0.0,0.0,0.0,0.0,0.0,0.0,0.0,0.0,0.0,0.0,0.0,2.0323,2.1161,2.2021,2.2069,2.1288,2.1602,2.0625,0.0,0.0,0.0,0.0,0.0,0.0,0.0,0.0,0.0,0.0,0.0,0.0,0.0,0.0,0.0,0.0,0.0,0.0,0.0,0.0,0.0,0.0,0.0,0.0,0.0,0.0,0.0,0.0,0.0,0.0,0.0,0.0,0.0,0.0,0.0,0.0,0.0,0.0,0.0,0.0,0.0,0.0,0.0,0.0,0.0,0.0,0.0,0.0,0.0,0.0,0.0,0.0,0.0,0.0,0.0,0.0,0.0,0.0,0.0,0.0,0.0,0.0,0.0,0.0,0.0,0.0,0.0,0.0,0.0,0.0,0.0,0.0,0.0,0.0,0.0,0.0,0.0,0.0,0.0,0.0,0.0,0.0,0.0,0.0,0.0,0.0,0.0,0.0,0.0,0.0,0.0,0.0,0.0,0.0,0.0,0.0,0.0,0.0,0.0,0.0,0.0,0.0,0.0,0.0,0.0,0.0,0.0,0.0,0.0,2.0801,2.1631,2.209,2.2069,2.1064,2.0147,0.0,0.0,0.0,0.0,0.0,0.0,0.0,0.0,0.0,0.0,0.0,0.0,0.0,0.0,0.0,0.0,0.0,0.0,0.0,0.0,0.0,0.0,0.0,0.0,0.0,0.0,0.0,0.0,0.0,0.0,0.0,0.0,0.0,0.0,0.0,0.0,0.0,0.0,0.0,0.0,0.0,0.0,0.0,0.0,0.0,0.0,0.0,0.0,0.0,0.0,0.0,0.0,0.0,0.0,0.0,0.0,0.0,0.0,0.0,0.0,0.0,0.0,0.0,0.0,0.0,0.0,0.0,0.0,0.0,0.0,0.0,0.0,0.0,0.0,0.0,0.0,0.0,0.0,0.0,0.0,0.0,0.0,0.0,0.0,0.0,0.0,0.0,0.0,0.0,0.0,0.0,0.0,0.0,0.0,0.0,0.0,0.0,0.0,0.0,0.0,0.0,0.0,0.0,0.0,0.0,0.0,0.0,0.0,0.0,2.085,2.1836,2.2314,2.2285,2.0898,1.9912,1.9415,0.0,0.0,0.0,0.0,0.0,0.0,0.0,0.0,0.0,0.0,0.0,0.0,0.0,0.0,0.0,0.0,0.0,0.0,0.0,0.0,0.0,0.0,0.0,0.0,0.0,0.0,0.0,0.0,0.0,0.0,0.0,0.0,0.0,0.0,0.0,0.0,0.0,0.0,0.0,0.0,0.0,0.0,0.0,0.0,0.0,0.0,0.0,0.0,0.0,0.0,0.0,0.0,0.0,0.0,0.0,0.0,0.0,0.0,0.0,0.0,0.0,0.0,0.0,0.0,0.0,0.0,0.0,0.0,0.0,0.0,0.0,0.0,0.0,0.0,0.0,0.0,0.0,0.0,0.0,0.0,0.0,0.0,0.0,0.0,0.0,0.0,0.0,0.0,0.0,0.0,0.0,0.0,0.0,0.0,0.0,0.0,0.0,0.0,0.0,0.0,0.0,0.0,0.0,0.0,0.0,0.0,0.0,0.0,2.1229,2.2457,2.2722,2.1992,2.1084,1.9999,0.0,0.0,0.0,0.0,0.0,0.0,0.0,0.0,0.0,0.0,0.0,0.0,0.0,0.0,0.0,0.0,0.0,0.0,0.0,0.0,0.0,0.0,0.0,0.0,0.0,0.0,0.0,0.0,0.0,0.0,0.0,0.0,0.0,0.0,0.0,0.0,0.0,0.0,0.0,0.0,0.0,0.0,0.0,0.0,0.0,0.0,0.0,0.0,0.0,0.0,0.0,0.0,0.0,0.0,0.0,0.0,0.0,0.0,0.0,0.0,0.0,0.0,0.0,0.0,0.0,0.0,0.0,0.0,0.0,0.0,0.0,0.0,0.0,0.0,0.0,0.0,0.0,0.0,0.0,0.0,0.0,0.0,0.0,0.0,0.0,0.0,0.0,0.0,0.0,0.0,0.0,0.0,0.0,0.0,0.0,0.0,0.0,0.0,0.0,0.0,0.0,0.0,0.0,0.0,0.0,0.0,0.0,0.0,0.0,2.1719,2.2615,2.2995,2.2771,2.1368,2.0439,0.0,0.0,0.0,0.0,0.0,0.0,0.0,0.0,0.0,0.0,0.0,0.0,0.0,0.0,0.0,0.0,0.0,0.0,0.0,0.0,0.0,0.0,0.0,0.0,0.0,0.0,0.0,0.0,0.0,0.0,0.0,0.0,0.0,0.0,0.0,0.0,0.0,0.0,0.0,0.0,0.0,0.0,0.0,0.0,0.0,0.0,0.0,0.0,0.0,0.0,0.0,0.0,0.0,0.0,0.0,0.0,0.0,0.0,0.0,0.0,0.0,0.0,0.0,0.0,0.0,0.0,0.0,0.0,0.0,0.0,0.0,0.0,0.0,0.0,0.0,0.0,0.0,0.0,0.0,0.0,0.0,0.0,0.0,0.0,0.0,0.0,0.0,0.0,0.0,0.0,0.0,0.0,0.0,0.0,0.0,0.0,0.0,0.0,0.0,0.0,0.0,0.0,0.0,0.0,0.0,0.0,0.0,0.0,2.1094,2.1602,2.2585,2.3003,2.2849,2.1748,2.0879,0.0,0.0,0.0,0.0,0.0,0.0,0.0,0.0,0.0,0.0,0.0,0.0,0.0,0.0,0.0,0.0,0.0,0.0,0.0,0.0,0.0,0.0,0.0,0.0,0.0,0.0,0.0,0.0,0.0,0.0,0.0,0.0,0.0,0.0,0.0,0.0,0.0,0.0,0.0,0.0,0.0,0.0,0.0,0.0,0.0,0.0,0.0,0.0,0.0,0.0,0.0,0.0,0.0,0.0,0.0,0.0,0.0,0.0,0.0,0.0,0.0,0.0,0.0,0.0,0.0,0.0,0.0,0.0,0.0,0.0,0.0,0.0,0.0,0.0,0.0,0.0,0.0,0.0,0.0,0.0,0.0,0.0,0.0,0.0,0.0,0.0,0.0,0.0,0.0,0.0,0.0,0.0,0.0,0.0,0.0,0.0,0.0,0.0,0.0,0.0,0.0,0.0,0.0,0.0,0.0,0.0,0.0,0.0,2.1249,2.1298,2.2418,2.2849,2.245,2.2031,2.126,0.0,0.0,0.0,0.0,0.0,0.0,0.0,0.0,0.0,0.0,0.0,0.0,0.0,0.0,0.0,0.0,0.0,0.0,0.0,0.0,0.0,0.0,0.0,0.0,0.0,0.0,0.0,0.0,0.0,0.0,0.0,0.0,0.0,0.0,0.0,0.0,0.0,0.0,0.0,0.0,0.0,0.0,0.0,0.0,0.0,0.0,0.0,0.0,0.0,0.0,0.0,0.0,0.0,0.0,0.0,0.0,0.0,0.0,0.0,0.0,0.0,0.0,0.0,0.0,0.0,0.0,0.0,0.0,0.0,0.0,0.0,0.0,0.0,0.0,0.0,0.0,0.0,0.0,0.0,0.0,0.0,0.0,0.0,0.0,0.0,0.0,0.0,0.0,0.0,0.0,0.0,0.0,0.0,0.0,0.0,0.0,0.0,0.0,0.0,0.0,0.0,0.0,0.0,0.0,0.0,0.0,0.0,0.0,2.1738,2.1768,2.2314,2.242,2.2042,2.1581,2.1064,0.0,0.0,0.0,0.0,0.0,0.0,0.0,0.0,0.0,0.0,0.0,0.0,0.0,0.0,0.0,0.0,0.0,0.0,0.0,0.0,0.0,0.0,0.0,0.0,0.0,0.0,0.0,0.0,0.0,0.0,0.0,0.0,0.0,0.0,0.0,0.0,0.0,0.0,0.0,0.0,0.0,0.0,0.0,0.0,0.0,0.0,0.0,0.0,2.995,0.0,0.0,0.0,0.0,0.0,0.0,0.0,0.0,0.0,0.0,0.0,0.0,0.0,0.0,0.0,0.0,0.0,0.0,0.0,0.0,0.0,0.0,0.0,0.0,0.0,0.0,0.0,0.0,0.0,0.0,0.0,0.0,0.0,0.0,0.0,0.0,0.0,0.0,0.0,0.0,0.0,0.0,0.0,0.0,0.0,0.0,0.0,0.0,0.0,0.0,0.0,0.0,0.0,0.0,0.0,0.0,0.0,0.0,0.0,2.1797,2.1602,2.1982,2.2012,2.1581,2.1337,2.0918,0.0,0.0,0.0,0.0,0.0,0.0,0.0,0.0,0.0,0.0,0.0,0.0,0.0,0.0,0.0,0.0,0.0,0.0,0.0,0.0,0.0,0.0,0.0,0.0,0.0,0.0,0.0,0.0,0.0,0.0,0.0,0.0,0.0,0.0,0.0,0.0,0.0,0.0,0.0,0.0,0.0,0.0,0.0,0.0,0.0,0.0,0.0,0.0,0.0,0.0,0.0,0.0,0.0,0.0,0.0,0.0,0.0,0.0,0.0,0.0,0.0,0.0,0.0,0.0,0.0,0.0,0.0,0.0,0.0,0.0,0.0,0.0,0.0,0.0,0.0,0.0,0.0,0.0,0.0,0.0,0.0,0.0,0.0,0.0,0.0,0.0,0.0,0.0,0.0,0.0,0.0,0.0,0.0,0.0,0.0,0.0,0.0,0.0,0.0,0.0,0.0,0.0,0.0,0.0,0.0,0.0,0.0,2.124,2.1641,2.1347,2.1611,2.1572,2.1132,2.1113,2.0703,1.9844,0.0,0.0,0.0,0.0,0.0,0.0,0.0,0.0,0.0,0.0,0.0,0.0,0.0,0.0,0.0,0.0,0.0,0.0,0.0,0.0,0.0,0.0,0.0,0.0,0.0,0.0,0.0,0.0,0.0,0.0,0.0,0.0,0.0,0.0,0.0,0.0,0.0,0.0,2.8046,2.8951,0.0,0.0,0.0,0.0,0.0,0.0,0.0,0.0,3.0984,0.0,0.0,0.0,0.0,0.0,0.0,0.0,0.0,0.0,0.0,0.0,0.0,0.0,0.0,0.0,0.0,0.0,0.0,0.0,0.0,0.0,0.0,0.0,0.0,0.0,0.0,0.0,0.0,0.0,0.0,0.0,0.0,0.0,0.0,0.0,0.0,0.0,0.0,0.0,0.0,0.0,0.0,0.0,0.0,0.0,0.0,0.0,0.0,0.0,0.0,0.0,0.0,0.0,0.0,0.0,0.0,2.1553,2.1405,2.1474,2.1777,2.1474,2.1123,2.0723,2.0703,2.0283,1.9443,0.0,0.0,0.0,0.0,0.0,0.0,0.0,0.0,0.0,0.0,0.0,0.0,0.0,0.0,0.0,0.0,0.0,0.0,0.0,0.0,0.0,0.0,0.0,0.0,0.0,0.0,0.0,0.0,0.0,0.0,0.0,0.0,0.0,0.0,0.0,0.0,0.0,0.0,0.0,3.044,3.0955,0.0,0.0,0.0,0.0,0.0,0.0,0.0,0.0,3.105,0.0,0.0,0.0,0.0,0.0,0.0,0.0,0.0,0.0,0.0,0.0,0.0,0.0,0.0,0.0,0.0,0.0,0.0,0.0,0.0,0.0,0.0,0.0,0.0,0.0,0.0,0.0,0.0,0.0,0.0,0.0,0.0,0.0,0.0,0.0,0.0,0.0,0.0,0.0,0.0,0.0,0.0,0.0,0.0,0.0,0.0,0.0,0.0,0.0,0.0,0.0,0.0,0.0,0.0,0.0,2.1153,2.1445,2.168,2.1876,2.123,2.0791,2.0595,2.0165,1.9628,0.0,0.0,0.0,0.0,0.0,0.0,0.0,0.0,0.0,0.0,0.0,0.0,0.0,0.0,0.0,0.0,0.0,0.0,0.0,0.0,0.0,0.0,0.0,0.0,0.0,0.0,0.0,0.0,0.0,0.0,0.0,0.0,0.0,0.0,0.0,0.0,0.0,0.0,0.0,0.0,3.1176,3.1741,3.1464,0.0,0.0,0.0,0.0,0.0,0.0,3.1577,3.1501,0.0,0.0,0.0,0.0,0.0,0.0,0.0,0.0,0.0,0.0,0.0,0.0,0.0,0.0,0.0,0.0,0.0,0.0,0.0,0.0,0.0,0.0,0.0,0.0,0.0,0.0,0.0,0.0,0.0,0.0,0.0,0.0,0.0,0.0,0.0,0.0,0.0,0.0,0.0,0.0,0.0,0.0,0.0,0.0,0.0,0.0,0.0,0.0,0.0,0.0,0.0,0.0,0.0,0.0,0.0,2.0576,2.128,2.1739,2.1857,2.1045,2.0595,2.0595,1.9921,1.9258,0.0,0.0,0.0,0.0,0.0,0.0,0.0,0.0,0.0,0.0,0.0,0.0,0.0,0.0,0.0,0.0,0.0,0.0,0.0,0.0,0.0,0.0,0.0,0.0,0.0,0.0,0.0,0.0,0.0,0.0,0.0,0.0,0.0,0.0,0.0,0.0,0.0,0.0,0.0,0.0,0.0,3.2682,3.1945,3.2548,0.0,0.0,0.0,0.0,3.1984,3.2365,0.0,0.0,0.0,0.0,0.0,0.0,0.0,0.0,0.0,0.0,0.0,0.0,0.0,0.0,0.0,0.0,0.0,0.0,0.0,0.0,0.0,0.0,0.0,0.0,0.0,0.0,0.0,0.0,0.0,0.0,0.0,0.0,0.0,0.0,0.0,0.0,0.0,0.0,0.0,0.0,0.0,0.0,0.0,0.0,0.0,0.0,0.0,0.0,0.0,0.0,0.0,0.0,0.0,0.0,0.0,0.0,2.0537,2.0703,2.1124,2.1817,2.1045,2.0595,2.0595,2.0498,1.9863,0.0,0.0,0.0,0.0,0.0,0.0,0.0,0.0,0.0,0.0,0.0,0.0,0.0,0.0,0.0,0.0,0.0,0.0,0.0,0.0,0.0,0.0,0.0,0.0,0.0,0.0,0.0,0.0,0.0,0.0,0.0,0.0,0.0,0.0,0.0,0.0,0.0,0.0,0.0,0.0,0.0,3.4313,3.2804,3.3662,3.4254,0.0,0.0,0.0,3.3621,3.4062,0.0,0.0,0.0,0.0,0.0,0.0,0.0,0.0,0.0,0.0,0.0,0.0,0.0,0.0,0.0,0.0,0.0,0.0,0.0,0.0,0.0,0.0,0.0,0.0,0.0,0.0,0.0,0.0,0.0,0.0,0.0,0.0,0.0,0.0,0.0,0.0,0.0,0.0,0.0,0.0,0.0,0.0,0.0,0.0,0.0,0.0,0.0,0.0,0.0,0.0,0.0,0.0,0.0,0.0,0.0,1.9345,2.0595,2.1309,2.1748,2.1866,2.128,2.083,2.0595,2.0126,1.9365,0.0,0.0,0.0,0.0,0.0,0.0,0.0,0.0,0.0,0.0,0.0,0.0,0.0,0.0,0.0,0.0,0.0,0.0,0.0,0.0,0.0,0.0,0.0,0.0,0.0,0.0,0.0,0.0,0.0,0.0,0.0,0.0,0.0,0.0,0.0,0.0,0.0,0.0,0.0,0.0,0.0,0.0,3.3931,3.4886,0.0,0.0,0.0,3.4374,3.4374,0.0,0.0,0.0,0.0,0.0,0.0,0.0,0.0,0.0,0.0,0.0,0.0,0.0,0.0,0.0,0.0,0.0,0.0,0.0,0.0,0.0,0.0,0.0,0.0,0.0,0.0,0.0,0.0,0.0,0.0,0.0,0.0,0.0,0.0,0.0,0.0,0.0,0.0,0.0,0.0,0.0,0.0,0.0,0.0,0.0,0.0,0.0,0.0,0.0,0.0,0.0,0.0,0.0,0.0,0.0,0.0,0.0,2.0595,2.1866,2.2353,2.2031,2.1494,2.1064,2.0742,2.0028,0.0,0.0,0.0,0.0,0.0,0.0,0.0,0.0,0.0,0.0,0.0,0.0,0.0,0.0,0.0,0.0,0.0,0.0,0.0,0.0,0.0,0.0,0.0,0.0,0.0,0.0,0.0,2.227,0.0,0.0,0.0,0.0,0.0,0.0,0.0,0.0,0.0,0.0,0.0,0.0,0.0,0.0,3.5079,3.4929,3.5894,3.6358,0.0,0.0,3.5066,3.4917,3.4689,3.3972,0.0,0.0,0.0,0.0,0.0,0.0,0.0,0.0,0.0,0.0,0.0,0.0,0.0,0.0,0.0,0.0,0.0,0.0,0.0,0.0,0.0,0.0,0.0,0.0,0.0,0.0,0.0,0.0,0.0,0.0,0.0,0.0,0.0,0.0,0.0,0.0,0.0,0.0,0.0,0.0,0.0,0.0,0.0,0.0,0.0,0.0,0.0,0.0,0.0,0.0,0.0,0.0,0.0,0.0,0.0,2.0605,2.1866,2.25,2.2431,2.164,2.1171,2.1161,2.0732,1.9706,0.0,0.0,0.0,0.0,0.0,0.0,0.0,0.0,0.0,0.0,0.0,0.0,0.0,0.0,0.0,0.0,0.0,0.0,0.0,0.0,0.0,0.0,0.0,0.0,0.0,0.0,0.0,0.0,0.0,0.0,0.0,0.0,0.0,0.0,0.0,0.0,0.0,0.0,0.0,0.0,0.0,3.6083,3.5533,3.6421,3.7299,0.0,0.0,3.6105,3.5545,3.5881,3.5337,3.2641,0.0,0.0,0.0,0.0,0.0,0.0,0.0,0.0,0.0,0.0,0.0,0.0,0.0,0.0,0.0,0.0,0.0,0.0,0.0,0.0,0.0,0.0,0.0,0.0,0.0,0.0,0.0,0.0,0.0,0.0,0.0,0.0,0.0,0.0,0.0,0.0,0.0,0.0,0.0,0.0,0.0,0.0,0.0,0.0,0.0,0.0,0.0,0.0,0.0,0.0,0.0,0.0,0.0,2.0866,2.1232,2.3022,2.345,2.2521,2.1934,2.1494,2.122,2.0811,2.0126,0.0,0.0,0.0,0.0,0.0,0.0,0.0,0.0,0.0,0.0,0.0,0.0,0.0,0.0,0.0,0.0,0.0,0.0,0.0,0.0,0.0,0.0,0.0,0.0,0.0,0.0,0.0,0.0,2.7076,2.7601,2.8244,0.0,0.0,0.0,0.0,0.0,0.0,0.0,0.0,0.0,0.0,3.6445,3.6533,3.7211,0.0,0.0,3.716,3.6808,3.6584,3.6145,3.5278,3.352,3.318,0.0,0.0,0.0,0.0,0.0,0.0,0.0,0.0,0.0,0.0,0.0,0.0,0.0,0.0,0.0,0.0,0.0,0.0,0.0,0.0,0.0,0.0,0.0,0.0,0.0,0.0,0.0,0.0,0.0,0.0,0.0,0.0,0.0,0.0,0.0,0.0,0.0,0.0,0.0,0.0,0.0,0.0,0.0,0.0,0.0,0.0,0.0,0.0,0.0,0.0,0.0,0.0,2.2066,2.2219,2.3937,2.4238,2.3112,2.2432,2.1865,2.1425,2.1006,2.0413,0.0,0.0,0.0,0.0,0.0,0.0,0.0,0.0,0.0,0.0,0.0,0.0,0.0,0.0,0.0,0.0,0.0,0.0,0.0,0.0,0.0,0.0,0.0,0.0,0.0,0.0,0.0,0.0,2.822,2.8715,2.9679,0.0,0.0,0.0,0.0,0.0,0.0,0.0,0.0,0.0,0.0,3.6959,3.7185,3.7663,3.7889,3.7487,3.7185,3.6947,3.6959,3.6282,3.5467,3.4539,0.0,0.0,0.0,0.0,0.0,0.0,0.0,0.0,0.0,0.0,0.0,0.0,0.0,0.0,0.0,0.0,0.0,0.0,0.0,0.0,0.0,0.0,0.0,0.0,0.0,0.0,0.0,0.0,0.0,0.0,0.0,0.0,0.0,0.0,0.0,0.0,0.0,0.0,0.0,0.0,0.0,0.0,0.0,0.0,0.0,0.0,0.0,0.0,0.0,0.0,0.0,0.0,0.0,0.0,2.3656,2.4433,2.4712,2.4403,2.3155,2.2285,2.1885,2.1435,2.0605,1.9351,0.0,0.0,0.0,0.0,0.0,0.0,0.0,0.0,0.0,0.0,0.0,0.0,0.0,0.0,0.0,0.0,0.0,0.0,0.0,0.0,0.0,0.0,0.0,0.0,0.0,0.0,2.8147,2.858,2.9132,0.0,0.0,0.0,0.0,0.0,0.0,0.0,0.0,0.0,0.0,3.6597,3.7789,3.7299,3.7663,3.799,3.7977,3.7135,3.6443,3.6468,3.6418,3.618,0.0,0.0,0.0,0.0,0.0,0.0,0.0,0.0,0.0,0.0,0.0,0.0,0.0,0.0,0.0,0.0,0.0,0.0,0.0,0.0,0.0,0.0,0.0,0.0,0.0,0.0,0.0,2.7199,2.6531,0.0,0.0,0.0,0.0,0.0,0.0,0.0,0.0,0.0,0.0,0.0,3.0194,3.0868,0.0,0.0,0.0,0.0,0.0,0.0,0.0,0.0,0.0,0.0,0.0,0.0,2.43,2.447,2.542,2.5484,2.4509,2.3185,2.2314,2.1894,2.1455,2.0615,1.9345,0.0,0.0,0.0,0.0,0.0,0.0,0.0,0.0,0.0,0.0,0.0,0.0,0.0,0.0,0.0,0.0,0.0,0.0,0.0,0.0,0.0,0.0,0.0,0.0,0.0,2.879,0.0,0.0,0.0,0.0,0.0,0.0,0.0,0.0,0.0,0.0,0.0,3.5305,3.6232,3.7312,3.7927,3.7739,3.7877,3.799,0.0,0.0,0.0,0.0,0.0,0.0,0.0,0.0,0.0,0.0,0.0,0.0,0.0,0.0,4.0564,3.8178,3.7588,3.7412,3.7187,0.0,0.0,0.0,0.0,0.0,0.0,0.0,0.0,0.0,0.0,0.0,0.0,0.0,0.0,0.0,0.0,2.86,0.0,0.0,0.0,0.0,0.0,0.0,0.0,0.0,3.0974,3.1672,3.2124,3.2777,3.2933,0.0,3.2036,3.0642,0.0,0.0,0.0,0.0,0.0,0.0,0.0,0.0,2.5801,2.5953,2.6592,2.6462,2.5431,2.4262,2.345,2.3053,2.2301,2.1293,1.9991,2.0281,2.0473,0.0,0.0,0.0,0.0,0.0,0.0,0.0,0.0,0.0,0.0,0.0,0.0,0.0,0.0,0.0,0.0,0.0,0.0,0.0,0.0,0.0,0.0,0.0,2.9368,0.0,0.0,0.0,0.0,0.0,0.0,0.0,0.0,0.0,3.4488,3.5581,3.6635,3.7399,3.8115,3.8442,3.8065,0.0,0.0,0.0,0.0,0.0,0.0,0.0,3.7788,3.7788,3.7952,3.8379,3.9308,4.113,4.2425,4.2238,0.0,0.0,4.0124,3.9584,3.9459,3.9459,4.0062,4.0388,3.9848,4.045,4.0927,0.0,0.0,0.0,0.0,0.0,0.0,0.0,0.0,3.1455,3.1455,0.0,3.0497,0.0,0.0,0.0,0.0,0.0,0.0,0.0,0.0,3.3515,3.4094,3.3666,3.4136,3.412,3.3676,3.411,3.3407,3.161,2.9069,0.0,0.0,0.0,0.0,0.0,0.0,2.7555,2.7921,2.784,2.7599,2.7154,2.6204,2.5518,2.5028,2.3816,2.2564,2.1319,2.1693,2.196,2.1934,2.1917,0.0,0.0,0.0,0.0,0.0,0.0,0.0,0.0,0.0,0.0,0.0,0.0,0.0,0.0,0.0,0.0,0.0,0.0,0.0,0.0,2.9478,0.0,0.0,0.0,0.0,0.0,0.0,0.0,0.0,0.0,0.0,3.572,3.7011,3.8015,3.8028,0.0,0.0,0.0,0.0,3.8718,3.8153,3.8053,3.809,3.8078,3.8529,3.8894,3.8919,0.0,0.0,4.0462,4.1907,4.2799,4.2299,4.2637,4.2975,4.2838,4.2386,4.2174,4.2187,4.2174,4.2034,4.1542,4.177,4.2023,3.2962,0.0,0.0,0.0,0.0,3.2353,3.2912,3.3695,3.3867,3.3638,3.3137,3.2948,0.0,0.0,0.0,0.0,0.0,0.0,3.2958,3.3091,3.3623,3.3953,3.4162,3.4319,3.4319,3.4188,3.4319,3.4141,3.3548,3.2117,3.0034,2.7426,0.0,0.0,0.0,0.0,2.7817,2.7989,2.787,2.7599,2.7205,2.5694,2.4376,2.3313,2.3217,2.2737,2.175,2.303,2.3479,2.2868,2.3587,0.0,0.0,0.0,0.0,0.0,0.0,0.0,0.0,0.0,0.0,0.0,0.0,0.0,0.0,0.0,0.0,0.0,0.0,0.0,3.0061,3.0271,3.0859,0.0,0.0,0.0,0.0,0.0,0.0,0.0,0.0,0.0,3.7889,3.8329,3.8642,0.0,0.0,3.9007,3.8693,3.8793,3.8969,3.917,0.0,0.0,0.0,3.9032,3.9044,3.9409,4.0249,4.104,4.1619,4.2411,4.2852,4.2299,4.2637,4.2749,4.2019,4.2685,4.3277,4.3327,4.3352,4.3151,4.266,4.2663,4.2699,3.5208,3.4084,3.3486,3.3403,3.3723,3.3942,3.4461,3.5106,3.5372,3.5184,3.4681,3.4671,3.384,3.2427,3.2563,0.0,0.0,0.0,3.4096,3.4421,3.4285,3.4362,3.4657,3.4481,3.4387,3.4387,3.4387,3.4387,3.4387,3.3809,3.2107,2.9453,0.0,0.0,2.7657,2.8066,2.8334,2.8421,2.8355,2.8125,2.7736,2.6309,2.502,2.3863,2.3763,2.3463,2.2963,2.3928,2.4419,2.4246,2.5018,2.5408,0.0,0.0,0.0,0.0,0.0,0.0,0.0,0.0,0.0,0.0,0.0,2.7428,2.6682,0.0,0.0,0.0,2.9789,3.0984,3.1526,3.1978,0.0,0.0,0.0,0.0,0.0,0.0,0.0,3.7852,3.8379,3.8831,3.9157,3.9208,3.922,3.922,3.922,3.922,3.922,0.0,3.9333,3.966,3.971,3.971,3.971,3.9434,3.9346,3.966,4.0399,4.1165,4.1744,4.2108,4.2283,4.2235,4.2286,4.2183,4.1731,4.2484,4.3237,4.3438,4.3664,4.3689,4.3377,4.3126,4.3,3.6988,3.6875,3.5392,3.4796,3.4852,3.5396,3.5579,3.5596,3.6196,3.6198,3.581,3.58,3.5232,3.4208,3.3654,0.0,0.0,3.4759,3.5244,3.5639,3.528,3.5086,3.5024,3.4605,3.4387,3.4387,3.4387,3.4387,3.4387,3.4366,3.3596,3.2136,3.0669,2.9889,2.9789,2.9258,2.9033,2.9106,2.9111,2.8855,2.8389,2.7565,2.6689,2.5694,2.4988,2.4563,2.4499,2.4648,2.5084,2.586,2.6333,2.6689,2.6951,0.0,0.0,0.0,0.0,0.0,0.0,0.0,0.0,0.0,0.0,0.0,0.0,0.0,0.0,0.0,3.1461,0.0,3.3241,3.4162,0.0,0.0,0.0,3.5683,3.5855,3.7186,3.8078,3.814,0.0,0.0,0.0,0.0,3.971,3.971,3.971,3.971,3.971,3.9685,3.971,3.971,3.971,3.971,3.971,3.9672,3.966,3.9697,4.0149,4.07,4.1152,4.1339,4.1528,4.1895,4.163,4.1403,4.1895,4.2048,4.235,4.2774,4.3277,4.3653,4.36,4.3251,4.2914,3.6988,3.696,3.6582,3.6432,3.6432,3.6572,3.6628,3.6636,3.6786,3.6783,3.6685,3.6695,3.6528,3.6268,3.6138,3.5992,3.5825,3.5963,3.5742,3.527,3.5147,3.4905,3.4564,3.446,3.4387,3.4387,3.4387,3.4387,3.4377,3.4031,3.3471,3.2695,3.1569,3.0628,2.9804,2.9663,2.9493,2.9331,2.918,2.8598,2.7541,2.6895,2.6002,2.484,2.5253,2.5189,2.4541,2.583,2.665,2.6866,2.7586,2.7908,2.7738,2.676,0.0,0.0,0.0,0.0,0.0,0.0,0.0,0.0,0.0,3.004,2.8247,0.0,3.1788,0.0,3.3133,3.4327,3.4867,3.5168,0.0,0.0,3.7105,3.7371,3.8842,3.8806,3.8831,3.9245,3.9521,3.971,3.971,3.971,3.971,3.971,3.971,3.971,3.971,3.971,3.971,3.971,3.971,3.971,3.971,3.971,3.971,3.971,4.0136,4.0538,4.0688,4.1051,4.1227,4.1003,4.1152,4.1026,4.0463,4.1281,4.1984,4.1818,4.2158,4.2727,4.3076,4.2749,4.2512,3.6988,3.6988,3.6988,3.6988,3.6988,3.6988,3.6988,3.6988,3.6988,3.6988,3.6988,3.6988,3.6988,3.6988,3.6988,3.6889,3.6664,3.6664,3.6417,3.5931,3.5528,3.5249,3.4956,3.4585,3.4387,3.4387,3.4387,3.4387,3.435,3.3903,3.3395,3.2875,3.1818,3.0933,3.0166,2.9669,2.9153,2.8694,2.8384,2.768,2.6529,2.6032,2.5455,2.4766,2.4629,2.4744,2.5084,2.606,2.6763,2.7195,2.8028,2.8564,2.8684,2.8002,2.7741,0.0,0.0,0.0,0.0,0.0,0.0,0.0,0.0,0.0,0.0,0.0,3.3212,0.0,3.5183,0.0,3.6915,3.7447,3.8167,3.9218,3.8816,3.8981,4.0147,3.9689,3.9409,3.984,3.9787,3.971,3.971,3.971,3.971,3.971,3.971,3.971,3.971,3.971,3.971,3.971,3.971,3.971,3.971,3.971,3.971,3.9722,3.9948,4.0224,4.0437,4.0538,4.0549,4.0499,4.0563,4.0412,3.9873,4.0589,4.1304,4.114,4.1391,4.2071,4.2838,4.2763,4.2663,3.6791,3.6876,3.6885,3.6942,3.6988,3.6988,3.6988,3.6988,3.6988,3.6988,3.6988,3.6988,3.6988,3.6988,3.6988,3.6969,3.692,3.692,3.6852,3.6715,3.5981,3.5588,3.5497,3.476,3.4387,3.4387,3.4387,3.4382,3.4303,3.3755,3.3254,3.2654,3.1626,3.0863,3.0357,2.9399,2.8534,2.7779,2.724,2.6524,2.5621,2.5207,2.4999,2.4988,2.405,2.4287,2.5882,2.6041,2.6512,2.743,2.8271,2.9058,2.9697,2.9424,2.9347,0.0,2.9278,0.0,0.0,0.0,0.0,0.0,0.0,0.0,0.0,3.4156,3.5161,3.6266,3.7443,3.8394,3.8966,3.9927,4.0504,4.0529,4.03,4.0262,4.0517,4.007,3.9865,4.0121,3.9878,3.971,3.9762,3.9736,3.971,3.971,3.971,3.971,3.971,3.971,3.971,3.971,3.971,3.971,3.971,3.971,3.971,3.971,3.9722,3.9873,4.0287,4.001,3.9873,4.0211,4.0049,3.9785,3.9772,4.0199,4.0538,4.0675,4.114,4.1806,4.2612,4.2838,4.29,3.5827,3.6239,3.6277,3.6548,3.6988,3.6988,3.6988,3.6988,3.6988,3.6988,3.6988,3.6988,3.6988,3.6988,3.6988,3.6821,3.6506,3.6524,3.6128,3.5447,3.53,3.5008,3.4657,3.447,3.4387,3.4387,3.4387,3.4188,3.3744,3.3266,3.252,3.1537,3.0971,3.0205,0.0,0.0,0.0,0.0,2.6408,2.577,2.5685,2.5182,2.5005,2.5179,2.5563,0.0,2.6896,2.7368,2.8003,2.8872,2.9625,0.0,0.0,0.0,0.0,0.0,0.0,0.0,0.0,0.0,0.0,0.0,3.4928,3.4741,3.423,3.7137,3.8859,3.8397,4.0021,4.09,4.0246,4.0363,4.058,4.0782,4.0593,4.0516,4.077,4.0351,4.0121,4.0377,3.9981,3.98,3.9968,3.9826,3.971,3.971,3.971,3.971,3.971,3.971,3.971,3.971,3.971,3.971,3.971,3.971,3.971,3.971,3.971,3.9747,3.9848,3.9836,3.971,3.9873,3.9785,3.9848,4.0249,4.0424,4.065,4.1063,4.1605,4.2085,4.2299,4.235,4.2462,3.5395,0.0,3.5977,3.6277,0.0,3.6876,3.6988,3.6988,3.6988,3.6988,3.6988,3.6988,3.6988,3.6988,3.6988,3.6792,3.6405,3.6405,3.6028,3.5386,3.5198,3.4956,3.4756,3.4512,3.4387,3.4397,3.412,3.3807,3.3429,3.2599,3.1802,3.1047,3.0587,3.0002,2.9368,2.9343,2.8603,2.713,2.6696,2.6418,2.6306,2.6132,2.6213,2.6553,0.0,0.0,0.0,0.0,0.0,0.0,0.0,0.0,0.0,0.0,0.0,3.2549,3.262,3.2721,3.3043,3.4095,3.5063,3.5892,3.7582,3.7989,3.6618,3.911,4.0694,4.0637,4.2015,4.2789,4.2416,4.1953,4.1693,4.1792,4.1159,4.0795,4.0984,4.0618,4.0402,4.0593,4.0224,3.9955,4.0083,3.9877,3.9723,3.971,3.971,3.971,3.971,3.971,3.971,3.971,3.971,3.971,3.971,3.971,3.971,3.971,3.971,3.971,3.971,3.971,3.971,3.971,3.971,3.9873,4.0387,4.07,4.0976,4.1314,4.2007,4.245,4.2299,4.24,4.2663,3.4936,3.5067,3.5536,3.5827,3.5977,3.6473,3.6745,3.6857,0.0,0.0,0.0,3.6988,3.6949,3.6891,3.6881,3.6634,3.6168,3.6186,3.5918,3.5457,3.511,3.4983,3.4962,3.4574,3.4335,3.4241,3.3796,3.3375,3.2949,3.1956,3.1221,3.0767,3.0363,3.0155,3.01,3.009,2.9161,2.7394,2.7491,2.7355,2.6995,2.7132,2.7466,2.8004,2.784,2.8121,2.8912,2.9037,2.9471,3.0262,3.0705,3.1405,3.2512,3.2939,3.3584,3.458,3.4803,3.4865,3.4879,3.6039,3.6877,3.7175,3.98,4.0766,3.9291,4.0918,4.2118,4.2462,4.3555,4.4273,4.4289,4.3404,4.2876,4.3021,4.1805,4.1122,4.146,4.0946,4.0669,4.0871,4.0504,4.0185,4.0173,3.9942,3.9749,3.971,3.971,3.971,3.971,3.971,3.971,3.971,3.971,3.971,3.971,3.971,3.971,3.971,3.971,3.971,3.971,3.971,3.971,3.971,3.976,4.0099,4.0563,4.1115,4.1478,4.1578,4.2347,4.2889,4.2526,4.2688,4.295,3.387,3.4338,3.4431,3.4787,3.5339,3.5423,3.5742,3.6248,3.6763,3.6988,3.6988,3.6988,3.6811,3.6504,3.6494,3.6048,3.53,3.528,3.5008,0.0,3.4522,3.4501,3.4491,3.4429,3.4162,3.3718,3.3639,3.2964,3.1821,3.1418,3.088,3.0335,3.0419,3.0748,3.1155,3.118,3.0633,2.9544,2.8406,2.7659,2.7271,2.7276,2.7548,2.8085,2.8724,2.9294,2.9883,3.0337,3.0748,3.1059,3.2163,3.2972,3.3341,3.4034,3.4519,3.4692,3.5143,3.5382,3.5419,3.709,3.8734,4.0164,4.1491,4.1769,4.08,4.3425,4.449,4.3069,4.4431,4.5161,4.4394,4.3448,4.3273,4.3843,4.2382,4.161,4.2406,4.1507,4.0946,4.1173,4.0757,4.0427,4.0389,4.0198,3.9929,3.9774,3.971,3.971,3.971,3.971,3.971,3.971,3.971,3.971,3.971,3.971,3.971,3.971,3.971,3.971,3.971,3.971,3.9735,3.9735,4.0049,4.0524,4.1063,4.1681,4.2135,4.2498,4.2875,4.2964,4.2838,4.2964,4.3025,3.3468,3.3748,3.4076,3.4375,3.4702,3.5039,3.5545,3.6108,3.6379,3.6698,3.6969,3.6772,3.6565,3.6395,3.6128,3.5696,3.5106,3.5106,3.4843,3.4408,3.4387,3.4387,3.4387,3.4387,3.4287,3.4005,3.3718,3.3112,3.2282,3.1889,3.1388,3.0852,3.0959,3.116,3.1386,3.1698,3.1558,3.1024,3.001,2.9268,2.8836,2.9109,2.9508,3.0026,3.0428,3.0708,3.096,3.1311,3.1541,3.1625,3.2733,3.3569,3.399,3.4692,3.528,3.5616,3.5855,3.6179,3.6622,3.8177,3.962,4.0818,4.1984,4.2288,4.1462,4.4088,4.5262,4.4076,4.5553,4.6462,4.5954,4.5041,4.461,4.5075,4.3321,4.2345,4.2562,4.1805,4.1199,4.1249,4.0959,4.0669,4.0517,4.0262,3.9993,3.9762,3.971,3.971,3.971,3.971,3.971,3.971,3.971,3.971,3.971,3.971,3.971,3.971,3.971,3.971,3.971,3.971,3.9836,4.0074,4.0362,4.0839,4.158,4.197,4.2411,4.2864,4.3,4.3,4.3,4.3201,4.3427,3.3308,3.3327,3.3805,3.4076,3.4245,3.4927,3.5564,3.6061,3.5994,3.6292,3.6775,3.6544,3.6355,3.6188,3.5787,3.5335,3.4993,3.4925,3.474,3.4429,3.4387,3.4387,3.4387,3.4387,3.4335,3.4178,3.3719,3.3234,3.2726,3.224,3.1874,3.1603,3.1572,3.1647,3.1773,3.22,3.2299,3.2052,3.147,3.0957,3.0542,3.0898,3.1286,3.1658,3.1693,3.1717,3.1772,3.2037,3.2218,3.2388,3.3321,3.4101,3.4617,3.5302,3.5907,3.6343,3.6405,3.6825,3.7833,3.9057,4.0087,4.0762,4.2141,4.2636,4.2061,4.4316,4.5613,4.5116,4.6107,4.7076,4.7032,4.6333,4.588,4.5969,4.4331,4.3213,4.3069,4.2247,4.151,4.1348,4.111,4.0871,4.0542,4.0313,4.007,3.9787,3.971,3.971,3.971,3.971,3.971,3.971,3.971,3.971,3.971,3.971,3.971,3.971,3.971,3.9785,3.9848,3.9898,4.0086,4.0563,4.0827,4.1242,4.1998,4.2324,4.2537,4.2925,4.3,4.3,4.3025,4.3402,4.374,3.3308,3.3308,3.342,3.3692,3.4282,3.4918,3.5517,3.6004,3.5668,3.5826,3.6447,3.6415,3.6128,3.5757,3.5351,3.4905,3.4501,3.446,3.4449,3.4408,3.4387,3.4387,3.4424,3.4387,3.4146,3.3739,3.3425,3.2961,3.2306,3.194,3.1868,3.21,3.2129,3.239,3.2864,3.2964,3.2896,3.2602,3.2386,3.2098,3.1825,3.1698,3.1658,3.1693,3.1717,3.1794,3.1997,3.2452,3.2932,3.3374,3.439,3.5125,3.5411,3.5981,3.6343,3.6393,3.643,3.706,3.856,3.9545,4.0153,4.0549,4.2144,4.2721,4.1797,4.441,4.5838,4.5233,4.5787,4.6708,4.7165,4.6421,4.6199,4.6715,4.5292,4.4172,4.3925,4.3285,4.2321,4.136,4.1223,4.1047,4.0606,4.0428,4.0224,3.9762,3.971,3.971,3.971,3.971,3.971,3.971,3.971,3.971,3.971,3.971,3.9747,3.9722,3.9735,3.9961,4.0249,4.0412,4.0588,4.114,4.1605,4.1973,4.2249,4.2562,4.2889,4.295,4.3025,4.3025,4.3065,4.3528,4.3865,3.3496,3.3824,3.3824,3.4216,3.4805,3.5077,3.5564,3.6042,3.5592,3.5768,3.626,3.5848,3.5524,3.5331,3.4874,3.4564,3.4387,3.4387,3.4387,3.4387,3.4387,3.458,3.4868,3.4554,3.4361,3.4318,3.3949,3.3425,3.2908,3.2621,3.26,3.2713,3.2727,3.2853,3.309,3.3126,3.3025,3.2928,3.2596,3.2356,3.2225,3.1882,3.1717,3.1728,3.1805,3.2061,3.2474,3.2975,3.3455,3.4029,3.4887,3.5402,3.5508,3.6068,3.6452,3.6593,3.7216,3.8156,3.948,3.9738,3.9986,4.0371,4.1524,4.1998,4.1665,4.3743,4.5087,4.5262,4.6177,4.7029,4.7195,4.692,4.6638,4.6377,4.5621,4.4725,4.3523,4.3057,4.2418,4.1473,4.1147,4.0934,4.0529,4.0224,3.9967,3.9736,3.971,3.971,3.971,3.971,3.971,3.971,3.971,3.971,3.9735,3.9998,3.9998,3.9898,4.0236,4.0725,4.0538,4.0826,4.1152,4.1706,4.2034,4.2375,4.2637,4.2788,4.3,4.3076,4.3327,4.3478,4.3463,4.4166,4.4669,3.4075,3.4459,3.4619,3.4919,3.5265,3.5461,3.5702,3.5892,3.5501,3.5598,3.5921,3.5223,3.5001,3.5081,3.4622,3.4476,3.4633,3.4643,3.4737,3.4842,3.4868,3.5093,3.5443,3.5103,3.4975,3.5046,3.4687,3.4223,3.3803,3.3618,3.352,3.3556,3.3556,3.352,3.3531,3.3542,3.3567,3.3513,3.3151,3.292,3.2809,3.2508,3.2201,3.198,3.2246,3.2669,3.3111,3.3666,3.4187,3.469,3.5375,3.5757,3.5768,3.6227,3.6582,3.6879,3.7811,3.8744,3.9597,3.9623,3.9679,3.9993,4.0852,4.1504,4.1842,4.3403,4.4803,4.5521,4.6366,4.6901,4.7287,4.7298,4.6876,4.5987,4.5801,4.4978,4.3153,4.2792,4.2418,4.1485,4.1072,4.077,4.0415,4.0032,3.9723,3.971,3.971,3.971,3.971,3.971,3.9747,3.986,3.9923,3.991,3.9948,4.0186,4.0287,4.0437,4.0851,4.1127,4.0978,4.1366,4.1742,4.2247,4.235,4.2526,4.2838,4.3,4.3327,4.3478,4.3754,4.4091,4.4317,4.502,4.5422,3.5142,3.5236,3.5761,3.571,3.5446,3.6038,3.6086,3.5803,3.5355,3.5188,3.5248,3.4757,3.4779,3.5272,3.4769,3.4737,3.5208,3.526,3.5495,3.5876,3.594,3.6018,3.607,3.6022,3.5902,3.569,3.5352,3.4994,3.4572,3.46,3.4628,3.4603,3.4527,3.4577,3.4552,3.4502,3.4603,3.448,3.428,3.4125,3.3934,3.3875,3.3404,3.27,3.3164,3.3623,3.4,3.4707,3.5211,3.5435,3.6006,3.6343,3.6366,3.6543,3.6816,3.715,3.7917,3.8444,3.8687,3.9304,3.9464,3.9181,4.0681,4.1559,4.174,4.3741,4.5357,4.617,4.6042,4.6311,4.7029,4.7106,4.6682,4.5756,4.5756,4.4863,4.2985,4.2707,4.2333,4.1498,4.0997,4.0631,4.0185,3.9865,3.9748,3.9747,3.9722,3.9772,3.9873,3.9798,4.001,4.0387,4.0512,4.0487,4.0487,4.0727,4.0889,4.0989,4.1202,4.1503,4.187,4.2199,4.25,4.2713,4.2788,4.2889,4.3051,4.3402,4.389,4.4152,4.4378,4.4679,4.4945,4.5271,4.5648,3.5246,3.5334,3.5701,3.5722,3.5675,3.6248,3.6412,3.6303,3.6207,3.6167,3.6093,3.5688,3.56,3.5783,3.56,3.56,3.5809,3.5809,3.5913,3.6096,3.6096,3.6294,3.6597,3.6177,3.6004,3.6028,3.551,3.5029,3.4737,3.4692,3.4692,3.4692,3.4692,3.4692,3.4692,3.4692,3.4692,3.468,3.4488,3.4365,3.4289,3.4435,3.4323,3.4013,3.4049,3.4319,3.4756,3.5163,3.5612,3.6056,3.6292,3.6405,3.644,3.6758,3.7276,3.7868,3.8359,3.8905,3.9603,4.0221,4.018,3.9573,4.163,4.2566,4.2178,4.3629,4.5352,4.601,4.6013,4.6048,4.6211,4.6333,4.5655,4.4366,4.4967,4.469,4.2659,4.2211,4.2161,4.1234,4.0669,4.0249,4.0031,3.9762,3.9823,4.0136,4.0211,4.0337,4.0625,4.0713,4.0864,4.1343,4.1304,4.1277,4.2096,4.177,4.1644,4.1592,4.1704,4.2032,4.2375,4.2576,4.2838,4.3025,4.3126,4.3327,4.3503,4.3991,4.4453,4.4654,4.4865,4.5231,4.5462,4.5723,4.5999,3.5566,3.5552,3.5855,3.5906,3.5865,3.6404,3.659,3.648,3.6534,3.658,3.6515,3.6227,3.6201,3.6373,3.641,3.6515,3.6634,3.6515,3.6488,3.666,3.6671,3.6862,3.7033,3.6615,3.6378,3.6339,3.5832,3.5413,3.5264,3.5253,3.5241,3.5278,3.5253,3.5253,3.5253,3.5241,3.5253,3.5218,3.5115,3.5025,3.4971,3.5176,3.5267,3.5195,3.5084,3.5175,3.5467,3.5665,3.5956,3.6331,3.6405,3.6464,3.664,3.71,3.7709,3.8426,3.8799,3.9299,4.0013,4.0437,4.054,4.0478,4.2035,4.295,4.2958,4.3988,4.5027,4.576,4.5589,4.527,4.4978,4.5092,4.4598,4.3269,4.4027,4.3886,4.1695,4.167,4.155,4.1092,4.0823,4.0525,4.0251,4.0224,4.0412,4.0725,4.075,4.0926,4.1188,4.1314,4.1517,4.2034,4.182,4.2021,4.2498,4.2423,4.2297,4.2258,4.227,4.2548,4.2813,4.2989,4.319,4.3352,4.3553,4.374,4.4091,4.4593,4.4895,4.5081,4.5432,4.5809,4.5999,4.615,4.6371,3.6054,3.5737,3.6303,3.6219,3.5944,3.6519,3.6536,3.6254,3.6256,3.6371,3.6435,3.6227,3.6567,3.6895,3.7011,3.7287,3.7575,3.7209,3.7261,3.7679,3.7709,3.7609,3.7451,3.7292,3.7001,3.6645,3.6461,3.6366,3.6242,3.6217,3.6242,3.6318,3.6242,3.6192,3.6355,3.6242,3.6292,3.6267,3.6207,3.6151,3.6038,3.6129,3.6166,3.6001,3.6127,3.6151,3.5989,3.6226,3.6343,3.6393,3.6405,3.6629,3.7096,3.7609,3.8205,3.8737,3.9261,3.9575,3.9665,3.9926,4.0864,4.1522,4.2006,4.3183,4.4499,4.4578,4.4663,4.5342,4.4927,4.4055,4.3392,4.3796,4.3855,4.2985,4.3009,4.2613,4.165,4.1099,4.0938,4.1038,4.1248,4.1508,4.1358,4.1227,4.1277,4.1378,4.1503,4.154,4.1704,4.1729,4.1717,4.211,4.2286,4.2512,4.2788,4.2975,4.295,4.295,4.2961,4.3101,4.3327,4.3528,4.374,4.394,4.4156,4.4382,4.4995,4.5447,4.5698,4.5924,4.6225,4.6361,4.6537,4.6647,4.6702,3.5433,3.5313,3.5573,3.5627,3.562,3.6514,3.6846,3.6776,3.7142,3.7351,3.7351,3.7351,3.7456,3.756,3.7612,3.7717,3.7874,3.7691,3.7717,3.7828,3.7727,3.7575,3.7447,3.712,3.6793,3.6535,3.6428,3.6405,3.6405,3.6405,3.6405,3.6405,3.6405,3.6405,3.6405,3.6405,3.6405,3.6405,3.6405,3.6346,3.6263,3.6371,3.6383,3.6287,3.6358,3.6346,3.6275,3.6346,3.6393,3.6405,3.6405,3.6782,3.7566,3.7903,3.8436,3.9254,3.9848,4.0162,4.0364,4.1507,4.201,4.2067,4.3082,4.3784,4.3855,4.4102,4.4324,4.4742,4.4441,4.389,4.3129,4.3057,4.2852,4.1905,4.237,4.2432,4.1745,4.153,4.1585,4.1722,4.1576,4.1572,4.1847,4.1945,4.2133,4.2459,4.2721,4.2897,4.2947,4.2797,4.3048,4.3277,4.314,4.2889,4.3176,4.3352,4.3327,4.3352,4.3402,4.3514,4.3765,4.4116,4.4328,4.4654,4.4844,4.5236,4.5849,4.615,4.6336,4.6486,4.6587,4.6772,4.6998,4.7093,4.7138,3.5631,3.5505,3.5823,3.595,3.6044,3.6959,3.7351,3.7403,3.7732,3.79,3.79,3.79,3.7911,3.7911,3.7911,3.7911,3.7877,3.7808,3.7736,3.7739,3.7586,3.7424,3.719,3.6793,3.6535,3.6417,3.6405,3.6405,3.6405,3.6405,3.6405,3.6405,3.6405,3.6405,3.6405,3.6405,3.6405,3.6405,3.6405,3.6405,3.6393,3.6405,3.6405,3.6393,3.6393,3.6405,3.6405,3.6405,3.6405,3.6467,3.6652,3.723,3.7944,3.8484,3.9126,3.9856,4.0618,4.1089,4.1216,4.2442,4.3295,4.2915,4.3699,4.4282,4.3718,4.3902,4.3523,4.3705,4.3713,4.3333,4.2491,4.2525,4.2211,4.1398,4.1831,4.2101,4.188,4.215,4.2447,4.267,4.2699,4.276,4.2975,4.3101,4.3201,4.3564,4.3714,4.379,4.374,4.3539,4.3589,4.3603,4.3452,4.3402,4.3664,4.3714,4.3639,4.3704,4.3754,4.3915,4.4102,4.4644,4.502,4.5668,4.601,4.6311,4.6838,4.6672,4.6722,4.6848,4.7089,4.729,4.7516,4.749,4.7494,3.6477,3.6197,3.6724,3.6895,3.6974,3.7575,3.7821,3.7862,3.79,3.7911,3.7911,3.7911,3.7911,3.7911,3.7911,3.7911,3.7865,3.7632,3.7517,3.7482,3.7401,3.7155,3.6758,3.6535,3.6428,3.6405,3.6405,3.6405,3.6405,3.6405,3.6405,3.6405,3.6405,3.6405,3.6405,3.6405,3.6405,3.6405,3.6405,3.6405,3.6405,3.6405,3.6405,3.6405,3.6405,3.6405,3.6405,3.648,3.6505,3.6578,3.7173,3.7717,3.8311,3.9413,4.01,4.0541,4.1598,4.1989,4.2238,4.2668,4.3332,4.3903,4.3509,4.3558,4.4352,4.3473,4.2735,4.2752,4.2852,4.2491,4.1757,4.1923,4.1976,4.1582,4.1717,4.1892,4.2195,4.293,4.349,4.3872,4.4303,4.4589,4.4453,4.4453,4.4453,4.4503,4.4292,4.4166,4.4055,4.393,4.3327,4.3402,4.3754,4.3865,4.4091,4.4127,4.4102,4.4192,4.4367,4.4744,4.493,4.5457,4.5949,4.6612,4.6998,4.735,4.7541,4.735,4.7415,4.7691,4.7857,4.7933,4.7942,4.7936,4.7914,3.6206,3.6175,3.675,3.7,3.709,3.7639,3.7911,3.7911,3.7911,3.7911,3.7911,3.7911,3.79,3.79,3.79,3.7911,3.7808,3.7624,3.7378,3.719,3.7003,3.6781,3.6535,3.6428,3.6405,3.6405,3.6405,3.6405,3.6405,3.6405,3.6405,3.6405,3.6405,3.6405,3.6405,3.6405,3.6405,3.6405,3.6405,3.6405,3.6405,3.6418,3.6405,3.6405,3.6418,3.6443,3.6443,3.6795,3.708,3.7273,3.7471,3.8257,3.9389,3.9989,4.0682,4.1586,4.1977,4.2225,4.2356,4.2762,4.3192,4.336,4.3297,4.3178,4.3507,4.346,4.2742,4.2223,4.2284,4.2323,4.14,4.1589,4.1995,4.2499,4.2523,4.2711,4.3112,4.3782,4.449,4.4934,4.478,4.4855,4.507,4.4955,4.4905,4.5196,4.5211,4.501,4.4909,4.4758,4.4357,4.4217,4.4378,4.4378,4.4453,4.4529,4.4564,4.4679,4.5131,4.5899,4.62,4.6662,4.7129,4.7641,4.7616,4.7867,4.8058,4.8083,4.8309,4.8451,4.8309,4.8218,4.8365,4.8428,4.8375,3.6854,3.6869,3.7246,3.7377,3.7418,3.7769,3.7911,3.7911,3.7911,3.7911,3.7911,3.7911,3.7842,3.7739,3.775,3.7655,3.7528,3.7297,3.7085,3.6922,3.6699,3.6535,3.6417,3.6405,3.6405,3.6405,3.6405,3.6405,3.6405,3.6405,3.6405,3.6405,3.6405,3.6405,3.6405,3.6405,3.643,3.6405,3.6405,3.6405,3.6405,3.6644,3.6745,3.682,3.6909,3.7085,3.7123,3.7362,3.766,3.7992,3.8506,3.9325,4.0314,4.1047,4.1681,4.2539,4.2748,4.2957,4.3023,4.3415,4.3572,4.3441,4.3376,4.3219,4.314,4.3261,4.2826,4.2337,4.2323,4.2071,4.1864,4.1996,4.244,4.291,4.3482,4.3862,4.4063,4.4591,4.5075,4.5311,4.5246,4.5196,4.5763,4.5497,4.5784,4.621,4.6336,4.61,4.5849,4.5673,4.5422,4.5131,4.5056,4.5106,4.5332,4.5468,4.5744,4.5809,4.625,4.6994,4.7179,4.7631,4.7983,4.8259,4.8259,4.836,4.8586,4.8736,4.8752,4.8777,4.8611,4.8654,4.8851,4.8722,4.8704,3.7911,3.79,3.79,3.7911,3.7874,3.79,3.7911,3.7911,3.7911,3.7911,3.7911,3.7911,3.7796,3.7566,3.7575,3.739,3.7178,3.6945,3.6732,3.6627,3.6523,3.6455,3.6581,3.6443,3.6418,3.6405,3.6405,3.6405,3.6455,3.6468,3.6519,3.6619,3.6619,3.6631,3.677,3.6695,3.6594,3.6695,3.6758,3.6758,3.682,3.7085,3.7286,3.7349,3.7613,3.7889,3.8027,3.8215,3.8427,3.8688,3.9866,4.0553,4.1141,4.241,4.2945,4.3114,4.348,4.3755,4.3912,4.4121,4.4316,4.3899,4.382,4.369,4.331,4.3258,4.3127,4.2814,4.2307,4.2229,4.2408,4.2761,4.2985,4.3274,4.4186,4.4839,4.5128,4.5357,4.5598,4.5663,4.5688,4.5924,4.6261,4.6502,4.6728,4.7014,4.7064,4.6763,4.6602,4.6527,4.615,4.5708,4.5708,4.5849,4.6185,4.6522,4.6913,4.7189,4.7697,4.8165,4.8008,4.8309,4.8652,4.8853,4.8878,4.8987,4.9238,4.9305,4.9204,4.9156,4.9058,4.9218,4.9395,4.8992,4.8813,3.7911,3.7911,3.7911,3.7911,3.7911,3.7911,3.7911,3.7911,3.7911,3.79,3.79,3.79,3.7831,3.7773,3.7528,3.7447,3.7285,3.6898,3.664,3.6464,3.6428,3.6658,3.6833,3.6695,3.6443,3.6468,3.6418,3.643,3.6531,3.6859,3.7034,3.7085,3.7349,3.765,3.76,3.7525,3.765,3.7638,3.7613,3.7563,3.7575,3.7726,3.7839,3.7889,3.804,3.8291,3.8768,3.9323,3.9854,4.0248,4.0555,4.126,4.2268,4.2853,4.3271,4.3637,4.3794,4.3899,4.3925,4.4056,4.4056,4.4003,4.3951,4.386,4.3742,4.3702,4.3454,4.3088,4.2658,4.2445,4.2546,4.283,4.3196,4.3635,4.4299,4.4971,4.5345,4.5803,4.62,4.6552,4.6687,4.6923,4.7415,4.7089,4.7315,4.7741,4.7691,4.7365,4.729,4.733,4.6979,4.6552,4.6627,4.6803,4.6938,4.734,4.7757,4.8109,4.8626,4.8944,4.8802,4.8912,4.9229,4.938,4.9455,4.959,4.969,4.9606,4.943,4.9459,4.9462,4.9489,4.9426,4.9109,4.9147,3.7911,3.7911,3.7911,3.7911,3.7911,3.7911,3.7911,3.7911,3.7911,3.7819,3.7739,3.7727,3.7575,3.7355,3.7204,3.7062,3.6933,3.6723,3.6662,3.6732,3.6808,3.7085,3.7449,3.7336,3.7148,3.7148,3.7185,3.716,3.7248,3.7399,3.7563,3.7588,3.7889,3.7914,3.799,3.804,3.7965,3.7965,3.799,3.799,3.8015,3.8291,3.8592,3.8818,3.9019,3.9333,3.9698,4.0474,4.1176,4.1678,4.1889,4.2241,4.3073,4.3584,4.3951,4.4199,4.4278,4.4278,4.4278,4.4278,4.4304,4.4278,4.4278,4.4278,4.4224,4.417,4.4115,4.3786,4.3219,4.2558,4.2484,4.3075,4.3478,4.3915,4.478,4.5497,4.5824,4.615,4.6361,4.6712,4.6863,4.729,4.7541,4.7641,4.8068,4.856,4.8761,4.8485,4.8134,4.8124,4.7933,4.7682,4.7707,4.7757,4.7807,4.8083,4.8501,4.8827,4.9154,4.9305,4.9254,4.9464,4.9766,4.9715,4.9606,4.9841,4.9916,4.9791,4.9816,4.9959,4.992,4.9707,4.9586,4.9602,4.9686,3.7911,3.7911,3.7911,3.7911,3.7911,3.7911,3.7911,3.7911,3.7911,3.7773,3.754,3.7505,3.7308,3.6887,3.6781,3.6642,3.6652,3.6781,3.7046,3.7274,3.7324,3.765,3.8002,3.8102,3.8153,3.8216,3.7965,3.7902,3.7914,3.8078,3.814,3.8165,3.8279,3.8442,3.8341,3.8279,3.8404,3.8429,3.8442,3.8417,3.8442,3.8818,3.9258,3.9722,4.0211,4.0462,4.0717,4.1411,4.2223,4.2922,4.3425,4.3664,4.3862,4.422,4.4721,4.4708,4.4747,4.4825,4.4825,4.4825,4.4825,4.4852,4.4721,4.4654,4.456,4.4397,4.4468,4.4337,4.3817,4.2858,4.2466,4.3126,4.3714,4.4166,4.5347,4.6125,4.6411,4.6486,4.6712,4.6938,4.744,4.7933,4.8168,4.8344,4.8887,4.933,4.948,4.9506,4.9104,4.8853,4.8652,4.8586,4.8586,4.8586,4.8636,4.8611,4.9053,4.9204,4.9531,4.9556,4.9581,4.9841,4.9992,4.9757,4.9707,5.0067,5.0343,5.0343,5.0419,5.0503,5.0396,5.0165,5.0116,5.0145,5.0183,3.7911,3.7911,3.7911,3.7911,3.7911,3.7911,3.7911,3.7911,3.79,3.7762,3.752,3.7494,3.7337,3.708,3.6781,3.6846,3.7121,3.7374,3.7701,3.7864,3.7889,3.8165,3.8655,3.873,3.8969,3.9057,3.8642,3.8165,3.8241,3.8479,3.8705,3.8831,3.9094,3.9295,3.9308,3.9409,3.932,3.9308,3.9371,3.9396,3.9446,3.9572,3.9848,4.0387,4.0901,4.1152,4.1423,4.2178,4.2764,4.2807,4.4049,4.4684,4.4835,4.4847,4.4838,4.493,4.5202,4.5371,4.5348,4.5385,4.5452,4.5362,4.5032,4.4676,4.4513,4.4363,4.4543,4.4577,4.435,4.37,4.2967,4.3514,4.3976,4.4503,4.5181,4.605,4.6763,4.7315,4.7757,4.8058,4.8375,4.856,4.8761,4.8921,4.9213,4.9439,4.9515,4.959,4.9389,4.9314,4.9314,4.9314,4.9389,4.9389,4.9414,4.9339,4.9439,4.9414,4.959,4.9656,4.9766,5.0117,5.0167,5.0268,5.046,5.0837,5.0971,5.0921,5.0996,5.1071,5.088,5.0663,5.0577,5.0536,5.0431,3.7911,3.7911,3.7911,3.7911,3.7911,3.7911,3.7911,3.7877,3.7773,3.771,3.7669,3.7605,3.7557,3.7509,3.7453,3.7484,3.7675,3.7839,3.8165,3.8366,3.8504,3.8756,3.9271,3.9283,3.9459,3.9509,3.9132,3.8843,3.8894,3.9157,3.9296,3.9371,3.9609,3.9697,3.9772,3.9948,4.0074,4.0136,4.0324,4.0474,4.0512,4.0512,4.07,4.0951,4.143,4.1731,4.1938,4.2653,4.3373,4.3827,4.4621,4.5326,4.5649,4.5735,4.5623,4.5634,4.5745,4.5731,4.5641,4.5569,4.5533,4.5566,4.5242,4.5193,4.5081,4.4951,4.4693,4.4678,4.4929,4.4616,4.3955,4.4091,4.4328,4.4679,4.5382,4.6235,4.7023,4.7857,4.8526,4.9079,4.9154,4.9213,4.9339,4.9464,4.9565,4.959,4.959,4.9615,4.964,4.969,4.9715,4.9715,4.9715,4.9741,4.9791,4.9841,4.9866,4.9841,4.9816,4.9866,5.0117,5.0528,5.0979,5.1281,5.1498,5.1548,5.1498,5.1448,5.1548,5.1624,5.1523,5.137,5.1063,5.0884,5.0784,3.7911,3.7911,3.7911,3.7911,3.7911,3.7911,3.7865,3.7785,3.7742,3.7758,3.7809,3.782,3.7856,3.7989,3.8102,3.8203,3.8203,3.8291,3.8668,3.8956,3.907,3.9321,3.9584,3.971,3.9685,3.966,3.9635,3.971,3.9546,3.9597,3.9685,3.966,3.9685,3.9798,3.9948,4.0261,4.0487,4.0775,4.1013,4.1264,4.1314,4.1428,4.1478,4.1528,4.2046,4.235,4.2427,4.3169,4.3836,4.4454,4.5133,4.575,4.6366,4.6621,4.6699,4.6602,4.6339,4.6073,4.5941,4.5764,4.5794,4.5847,4.5599,4.5619,4.5582,4.5245,4.5085,4.4938,4.511,4.5276,4.4794,4.4794,4.488,4.5181,4.5909,4.6778,4.749,4.8259,4.8962,4.9405,4.964,4.9715,4.969,4.959,4.959,4.959,4.9615,4.9825,4.985,4.9916,4.9941,4.9941,4.9941,4.9992,5.0067,5.0193,5.0268,5.0368,5.0368,5.0419,5.072,5.1071,5.1481,5.1858,5.2026,5.2026,5.1975,5.1983,5.2126,5.2184,5.2184,5.2029,5.1703,5.1336,5.109,3.7911,3.7911,3.7911,3.7911,3.7926,3.7915,3.7788,3.7681,3.8039,3.7974,3.7847,3.8092,3.8211,3.824,3.863,3.8768,3.8894,3.9157,3.9371,3.9484,3.9534,3.9609,3.9722,3.971,3.9861,3.9923,3.9848,3.971,3.9823,3.9848,3.9747,3.9747,3.9873,3.9923,4.0412,4.0676,4.075,4.1152,4.1289,4.1364,4.1453,4.187,4.2046,4.2235,4.2537,4.2813,4.2916,4.3568,4.421,4.4498,4.5607,4.6238,4.6516,4.715,4.7298,4.7151,4.6908,4.6774,4.6588,4.6376,4.6191,4.6134,4.5844,4.5488,4.5566,4.5638,4.5546,4.5426,4.5547,4.5547,4.5447,4.5386,4.5623,4.5949,4.6386,4.733,4.8134,4.8109,4.8887,4.9615,4.9841,4.9816,4.9791,4.969,4.959,4.959,4.9665,4.9941,5.0167,5.0268,5.0343,5.0368,5.0444,5.0469,5.0444,5.0569,5.0686,5.0837,5.0845,5.0921,5.1222,5.1507,5.1808,5.2134,5.2327,5.2451,5.2383,5.2433,5.2652,5.2541,5.2295,5.2308,5.2312,5.19,5.1306,3.8489,3.79,3.7911,3.8083,3.8321,3.8196,3.8261,3.8415,3.8374,3.8426,3.8523,3.859,3.8768,3.8931,3.9283,3.9358,3.9421,3.9635,3.971,3.9722,3.9747,3.9898,4.0124,4.0186,4.0236,4.0512,4.06,4.0688,4.0538,4.0287,4.0136,4.0186,4.0437,4.0725,4.0989,4.1304,4.1569,4.1845,4.2069,4.2258,4.2333,4.2498,4.2637,4.2651,4.2889,4.2975,4.3168,4.3627,4.4319,4.4765,4.5853,4.6524,4.6854,4.7302,4.7519,4.7224,4.6952,4.6759,4.6604,4.6601,4.6532,4.64,4.6141,4.6085,4.6138,4.6275,4.6386,4.6411,4.6411,4.6261,4.6024,4.5949,4.6075,4.6336,4.6562,4.7064,4.7741,4.8134,4.851,4.9289,5.0026,5.0167,5.0318,5.0419,5.0343,5.0126,5.0318,5.0661,5.0812,5.0912,5.0921,5.0921,5.0996,5.1088,5.1038,5.1038,5.1088,5.1188,5.1163,5.1297,5.1649,5.1958,5.2209,5.2435,5.2619,5.2701,5.2688,5.2611,5.2537,5.2423,5.23,5.2127,5.1953,5.1691,5.1165,3.9067,3.8251,3.8295,3.8542,3.8896,3.8638,3.8714,3.9017,3.8758,3.8816,3.9032,3.9095,3.9346,3.9609,3.966,3.9635,3.9685,3.9823,3.9898,3.9923,4.0074,4.0362,4.0613,4.0725,4.0887,4.1314,4.1138,4.1177,4.1152,4.1065,4.0902,4.0725,4.0963,4.1327,4.1605,4.187,4.2135,4.2411,4.2699,4.2875,4.2925,4.2925,4.2975,4.2975,4.3,4.3,4.3101,4.3729,4.445,4.4911,4.5963,4.6641,4.6877,4.7224,4.725,4.7027,4.6843,4.6771,4.6588,4.6491,4.6531,4.6446,4.6509,4.6622,4.6903,4.7159,4.7299,4.7239,4.7039,4.6823,4.6572,4.6411,4.6261,4.6261,4.6361,4.6672,4.7124,4.7933,4.8786,4.9741,5.0452,5.0904,5.1096,5.1297,5.1172,5.0804,5.0946,5.1314,5.1465,5.154,5.1548,5.1574,5.1749,5.1749,5.1574,5.1548,5.1565,5.1615,5.1615,5.1749,5.2134,5.2335,5.2511,5.2719,5.2853,5.2705,5.255,5.2464,5.2335,5.2144,5.1935,5.1621,5.1369,5.1176,5.106,3.9429,3.9132,3.9387,3.9446,3.9487,3.9244,3.9017,3.9003,3.9105,3.9057,3.907,3.9371,3.9609,3.9672,3.971,3.9735,3.976,4.0211,4.0362,4.0575,4.0901,4.1102,4.1227,4.1277,4.1314,4.1414,4.1553,4.1503,4.1478,4.192,4.163,4.1339,4.154,4.1756,4.197,4.2261,4.2512,4.2738,4.2964,4.2989,4.3,4.3,4.3,4.3,4.3,4.3,4.3065,4.394,4.4593,4.4831,4.6007,4.6543,4.665,4.6993,4.6964,4.668,4.6815,4.6694,4.6485,4.641,4.6381,4.6461,4.6657,4.6973,4.7375,4.7651,4.7792,4.7782,4.7516,4.7199,4.6923,4.6687,4.6486,4.6612,4.6788,4.7039,4.7566,4.8309,4.9204,5.0201,5.0829,5.1222,5.1498,5.1641,5.1674,5.1322,5.1481,5.185,5.2101,5.2159,5.2209,5.2285,5.2536,5.2485,5.2159,5.2151,5.2234,5.2285,5.231,5.2435,5.2669,5.2795,5.2719,5.276,5.2809,5.2602,5.2394,5.2265,5.2092,5.1813,5.1551,5.1253,5.1095,5.0972,5.0866,4.0336,4.0235,4.0174,3.9931,3.9571,3.93,3.9343,3.9549,3.9538,3.9473,3.9383,3.9622,3.971,3.971,3.9722,3.9898,4.0161,4.0362,4.0688,4.0964,4.1227,4.1517,4.1681,4.1882,4.2007,4.2233,4.2308,4.2359,4.2434,4.2562,4.2562,4.2384,4.2219,4.2448,4.2663,4.2637,4.2813,4.2914,4.3,4.3,4.3,4.3,4.3,4.3,4.3,4.3201,4.3539,4.4202,4.4704,4.5305,4.6222,4.641,4.6401,4.6751,4.6691,4.6376,4.6616,4.6526,4.6436,4.6446,4.6662,4.6728,4.6763,4.7039,4.7832,4.8058,4.8159,4.8109,4.7958,4.7691,4.7516,4.7164,4.6898,4.7164,4.734,4.7531,4.8033,4.8727,4.9389,5.0302,5.0896,5.1322,5.1615,5.1841,5.185,5.185,5.2109,5.2335,5.2511,5.2644,5.2594,5.2594,5.277,5.2845,5.2561,5.2694,5.2895,5.2895,5.2895,5.2895,5.2895,5.2895,5.2828,5.2843,5.2705,5.2481,5.2273,5.2074,5.1813,5.1481,5.1207,5.0925,5.082,5.0784,5.0749,4.0858,4.0757,4.0491,4.0235,3.9952,3.9626,3.9702,4.0007,3.9814,3.971,3.971,3.971,3.9798,3.9898,3.9973,4.0261,4.0688,4.1003,4.124,4.1542,4.1831,4.2046,4.2311,4.2462,4.2573,4.295,4.3,4.295,4.2875,4.2975,4.2925,4.29,4.3,4.295,4.295,4.3,4.3,4.3,4.3,4.3126,4.3201,4.3076,4.319,4.3226,4.3302,4.3427,4.389,4.4493,4.507,4.5556,4.6098,4.6431,4.6476,4.6476,4.6496,4.6376,4.6311,4.6311,4.6361,4.6486,4.6804,4.6944,4.7064,4.7606,4.8275,4.8551,4.8736,4.8652,4.8485,4.8309,4.8134,4.7691,4.7541,4.7732,4.7682,4.7857,4.8435,4.9104,4.969,5.0352,5.087,5.1414,5.185,5.2126,5.2302,5.231,5.246,5.2594,5.2694,5.2795,5.282,5.2795,5.2845,5.2895,5.287,5.2895,5.2895,5.2895,5.2895,5.2895,5.2895,5.2878,5.2861,5.2843,5.2654,5.236,5.203,5.1716,5.1394,5.1113,5.0908,5.0749,5.0731,5.0731,5.0713,4.0744,4.0504,4.0224,4.0376,4.0629,4.0262,4.0058,4.0057,3.9876,3.9772,3.9798,3.981,4.0086,4.0412,4.0474,4.08,4.1304,4.1783,4.206,4.221,4.2473,4.2824,4.2875,4.2914,4.2864,4.295,4.3,4.3,4.3,4.3,4.3,4.3,4.3,4.3,4.3,4.3,4.3,4.3,4.3,4.3327,4.3402,4.3277,4.3503,4.3578,4.3765,4.3865,4.4292,4.4869,4.5397,4.5728,4.612,4.6346,4.6356,4.6341,4.6331,4.6301,4.6311,4.6311,4.6326,4.6341,4.6677,4.7164,4.739,4.8083,4.8752,4.9129,4.9389,4.9371,4.9305,4.8962,4.8636,4.836,4.8335,4.8284,4.8259,4.846,4.9088,4.9464,5.0042,5.0569,5.0996,5.149,5.2026,5.2435,5.2686,5.277,5.2845,5.2895,5.2895,5.2895,5.2895,5.2895,5.2895,5.2895,5.2895,5.2895,5.2895,5.2895,5.2895,5.2895,5.2843,5.2792,5.2792,5.2809,5.2456,5.2022,5.1646,5.126,5.1049,5.089,5.0802,5.0696,5.0678,5.0678,5.0678,4.0326,4.0211,3.9942,4.0045,4.0313,3.9993,3.9839,3.9876,4.0088,4.0249,4.0312,4.0575,4.0826,4.0988,4.1076,4.1341,4.187,4.2009,4.2274,4.2738,4.2939,4.295,4.3,4.3025,4.3025,4.3,4.3,4.3025,4.3,4.3,4.3,4.3,4.3,4.3,4.3,4.3,4.3,4.309,4.3277,4.3503,4.3402,4.3754,4.3966,4.389,4.4177,4.4478,4.4794,4.5372,4.5723,4.5974,4.6336,4.6351,4.6336,4.6336,4.6311,4.6311,4.6336,4.6512,4.6712,4.6888,4.7114,4.7516,4.7883,4.8535,4.9615,4.959,4.9882,5.0209,5.0167,4.9941,4.9766,4.9364,4.9213,4.9163,4.9213,4.9439,4.9866,5.0042,5.0377,5.0845,5.1314,5.1615,5.2026,5.241,5.2711,5.2845,5.2895,5.2895,5.2895,5.2895,5.2895,5.2895,5.2895,5.2895,5.2895,5.2895,5.2895,5.2895,5.2895,5.2895,5.2826,5.2723,5.2585,5.2533,5.2109,5.1691,5.1365,5.1049,5.0837,5.0696,5.0726,5.0774,5.0798,5.075,5.0678,4.0109,4.0083,3.9801,3.9788,3.9916,3.9787,3.971,3.9785,4.0074,4.0312,4.0524,4.0889,4.1266,4.1466,4.1656,4.1907,4.2411,4.25,4.2551,4.3,4.3,4.3,4.3025,4.3151,4.3176,4.3126,4.3176,4.3226,4.3,4.3,4.3,4.3,4.3,4.3,4.3051,4.3151,4.3327,4.3478,4.374,4.4116,4.4116,4.4317,4.4503,4.4568,4.4769,4.5056,4.5472,4.5849,4.62,4.6461,4.6587,4.6587,4.6547,4.6411,4.6436,4.6486,4.6813,4.6938,4.7048,4.7657,4.7908,4.8184,4.8225,4.8937,5.0017,5.0067,5.0444,5.0812,5.0971,5.072,5.0402,5.0017,5.0008,4.9958,4.9741,4.9941,5.0419,5.0594,5.0703,5.1172,5.1414,5.1716,5.2051,5.2352,5.2661,5.2795,5.2895,5.2895,5.2895,5.2895,5.2895,5.2895,5.2895,5.2895,5.2895,5.2895,5.2895,5.2895,5.2861,5.2843,5.2688,5.255,5.2412,5.2203,5.1778,5.1411,5.1113,5.0873,5.0797,5.0774,5.0798,5.0846,5.0918,5.087,5.0774,4.0096,4.0057,3.9826,3.971,3.971,3.976,3.9772,3.9747,3.9836,4.0149,4.0638,4.0802,4.1379,4.211,4.2224,4.2462,4.2813,4.2914,4.295,4.3025,4.3126,4.3101,4.3288,4.3564,4.3514,4.3388,4.3363,4.3363,4.3051,4.3,4.3,4.3101,4.3151,4.3226,4.3388,4.3729,4.3854,4.389,4.4303,4.4629,4.4744,4.488,4.5031,4.5171,4.5397,4.5612,4.5974,4.6411,4.6863,4.7074,4.7124,4.7124,4.6973,4.6637,4.6798,4.7074,4.7566,4.7475,4.7566,4.825,4.8617,4.8793,4.8903,4.949,5.0117,5.0619,5.1071,5.1448,5.1649,5.1147,5.0678,5.067,5.0661,5.0334,4.9907,5.0268,5.0887,5.1096,5.1172,5.1348,5.1465,5.1749,5.2209,5.2536,5.2711,5.2795,5.2895,5.2895,5.2895,5.2895,5.2895,5.2895,5.2895,5.2895,5.2895,5.2895,5.2895,5.2895,5.2774,5.2705,5.2567,5.23,5.2022,5.1744,5.1446,5.113,5.0908,5.0856,5.09,5.0888,5.0798,5.1177,5.1321,5.1056,5.0984,3.9826,3.9813,3.9736,3.971,3.9747,4.0111,4.0287,4.0299,4.0663,4.1165,4.1733,4.2121,4.2336,4.2763,4.2763,4.2864,4.2925,4.3,4.3,4.3101,4.3327,4.3489,4.3725,4.3976,4.3926,4.3765,4.3639,4.3564,4.3176,4.3051,4.3327,4.3528,4.3564,4.374,4.4127,4.4694,4.4367,4.4317,4.4819,4.5056,4.5307,4.5432,4.5547,4.5663,4.5874,4.61,4.6612,4.6888,4.729,4.7616,4.7666,4.7666,4.7641,4.7531,4.7591,4.7616,4.7842,4.7942,4.8275,4.8601,4.8994,4.943,4.9715,5.0268,5.0896,5.1348,5.1732,5.2051,5.2126,5.1632,5.1205,5.1096,5.0912,5.0444,5.0268,5.0787,5.1314,5.1373,5.1473,5.1649,5.1766,5.2076,5.2511,5.2644,5.282,5.287,5.2895,5.2895,5.2895,5.2895,5.2895,5.2895,5.2895,5.2895,5.2895,5.2895,5.2895,5.2878,5.2774,5.2602,5.236,5.2057,5.1656,5.1341,5.1113,5.0919,5.0749,5.075,5.084,5.0816,5.0774,5.1297,5.1628,5.1339,5.1297,3.9836,3.9985,4.0023,4.0111,4.0387,4.0688,4.0939,4.1153,4.1277,4.1656,4.2185,4.2462,4.2802,4.295,4.2975,4.2975,4.2975,4.3,4.3,4.3126,4.3603,4.3689,4.3966,4.4328,4.4338,4.4152,4.3926,4.379,4.3564,4.3639,4.389,4.4077,4.4102,4.4303,4.4629,4.498,4.507,4.506,4.5236,4.5447,4.5683,4.5909,4.5924,4.5949,4.6185,4.6562,4.7074,4.7224,4.7707,4.8159,4.8234,4.8259,4.825,4.825,4.8033,4.8083,4.846,4.856,4.8777,4.9254,4.9581,5.0017,5.0619,5.1172,5.1498,5.1825,5.226,5.2611,5.2435,5.2184,5.1774,5.1373,5.0946,5.0477,5.0921,5.1339,5.1515,5.1599,5.1774,5.2,5.2251,5.2511,5.2744,5.2845,5.2895,5.2895,5.2895,5.2895,5.2895,5.2895,5.2895,5.2895,5.2895,5.2895,5.2895,5.2895,5.2895,5.2878,5.2826,5.2619,5.2256,5.1908,5.1551,5.1183,5.0848,5.0749,5.0678,5.0702,5.075,5.075,5.0912,5.1363,5.1604,5.1393,5.1562,4.0099,4.0563,4.0563,4.08,4.1264,4.1314,4.1656,4.211,4.1692,4.1742,4.2249,4.2299,4.2612,4.2964,4.3,4.3,4.3,4.3,4.3101,4.3076,4.3714,4.4016,4.4292,4.4464,4.483,4.4579,4.4353,4.4292,4.4453,4.4428,4.4378,4.464,4.4679,4.483,4.5081,4.5447,4.5587,4.5598,4.5824,4.6085,4.616,4.6261,4.6311,4.6261,4.6361,4.6587,4.7149,4.7666,4.82,4.8601,4.8853,4.8853,4.8853,4.8843,4.8535,4.8636,4.9113,4.9264,4.948,4.9907,5.0293,5.0795,5.1431,5.1699,5.1825,5.2159,5.2594,5.2586,5.236,5.2009,5.1624,5.1674,5.1473,5.1281,5.1523,5.1875,5.2101,5.2176,5.226,5.2435,5.2561,5.2795,5.2795,5.2895,5.2895,5.2895,5.2895,5.2895,5.2895,5.2895,5.2895,5.2895,5.2895,5.2895,5.2895,5.2895,5.2895,5.2878,5.2826,5.2636,5.2273,5.189,5.1488,5.1119,5.0749,5.0713,5.0702,5.0702,5.0792,5.0936,5.1129,5.1483,5.1531,5.1369,5.197,4.06,4.1088,4.1088,4.1202,4.1364,4.1781,4.206,4.2224,4.2512,4.2649,4.2788,4.2813,4.2838,4.2975,4.3,4.3,4.3,4.3025,4.3251,4.3589,4.4066,4.4493,4.4995,4.5231,4.5482,4.5347,4.5121,4.4895,4.4754,4.4715,4.4865,4.5221,4.5296,4.5397,4.5708,4.6024,4.6024,4.601,4.6135,4.6311,4.6311,4.6311,4.6311,4.6311,4.6361,4.6788,4.7299,4.7767,4.851,4.9163,4.9339,4.9389,4.9405,4.9405,4.9314,4.9339,4.9741,4.9916,5.0167,5.0544,5.0971,5.1222,5.1599,5.1624,5.1875,5.2385,5.2561,5.2385,5.2201,5.1825,5.1649,5.1875,5.2051,5.2034,5.2059,5.236,5.2661,5.2711,5.2762,5.2795,5.287,5.2895,5.2895,5.2895,5.2895,5.2895,5.2895,5.2895,5.2895,5.2895,5.2895,5.2895,5.2895,5.2895,5.2895,5.2895,5.2895,5.2809,5.2757,5.2533,5.228,5.1716,5.1207,5.0943,5.0696,5.0678,5.0678,5.0702,5.0798,5.0936,5.1008,5.1219,5.1345,5.1249,5.2193,4.0964,4.1692,4.1968,4.2044,4.2119,4.2436,4.2562,4.2626,4.2875,4.3,4.3,4.3,4.3,4.3,4.3,4.3,4.3,4.3,4.3327,4.379,4.4217,4.4719,4.5246,4.5673,4.5748,4.5673,4.5773,4.5583,4.5106,4.5332,4.5633,4.5799,4.5874,4.5974,4.6311,4.6311,4.6336,4.6286,4.6336,4.6336,4.6336,4.6311,4.6311,4.6311,4.6436,4.6863,4.7189,4.7616,4.8218,4.9012,4.9364,4.954,4.954,4.954,4.9565,4.969,4.9992,5.0402,5.067,5.1096,5.1624,5.18,5.185,5.1925,5.18,5.2184,5.1925,5.1774,5.2126,5.1875,5.1774,5.1925,5.2126,5.2159,5.241,5.2694,5.2795,5.282,5.282,5.2845,5.2895,5.2895,5.2895,5.2895,5.2895,5.2895,5.2895,5.2895,5.2895,5.2895,5.2895,5.2895,5.2895,5.2895,5.2895,5.2895,5.2895,5.2792,5.268,5.2543,5.2329,5.1509,5.0908,5.0887,5.0798,5.0678,5.0678,5.0726,5.0702,5.0774,5.0816,5.084,5.0984,5.1249,5.2067,4.1368,4.2324,4.2788,4.2975,4.3,4.2975,4.2975,4.2975,4.3,4.3,4.3,4.3,4.3,4.3,4.3,4.3,4.3,4.3,4.3352,4.384,4.3991,4.4819,4.5246,4.5332,4.5708,4.601,4.616,4.5974,4.5598,4.5899,4.6085,4.6261,4.6311,4.6311,4.6326,4.6386,4.6471,4.6512,4.6512,4.6461,4.6411,4.6336,4.6311,4.6311,4.6411,4.6672,4.7023,4.749,4.7967,4.8611,4.938,4.9515,4.9674,4.9724,4.9816,4.9967,5.0544,5.0754,5.0996,5.1682,5.2026,5.2226,5.2201,5.2126,5.2026,5.18,5.1523,5.1523,5.185,5.2,5.19,5.2076,5.2277,5.2385,5.2694,5.2895,5.2895,5.2895,5.2895,5.2895,5.2895,5.2895,5.2895,5.2895,5.2895,5.2895,5.2895,5.2895,5.2895,5.2895,5.2895,5.2895,5.2895,5.2895,5.2895,5.2895,5.2895,5.2826,5.2713,5.2623,5.2344,5.1529,5.1057,5.111,5.1008,5.0888,5.084,5.0864,5.0816,5.0726,5.0702,5.0792,5.0984,5.1273,5.1844,4.2235,4.2864,4.2964,4.3,4.3,4.3,4.3,4.3,4.3,4.3,4.3,4.3,4.3,4.3,4.3,4.3,4.3,4.3,4.3664,4.4342,4.4242,4.5095,4.5748,4.5784,4.606,4.621,4.6311,4.621,4.5999,4.616,4.6311,4.6311,4.6311,4.6311,4.6361,4.6522,4.6798,4.6798,4.6798,4.6772,4.6747,4.6597,4.6336,4.6436,4.6737,4.7214,4.7691,4.8209,4.8802,4.928,4.9515,4.959,4.9699,4.9925,5.0076,5.0368,5.0954,5.1406,5.1783,5.2234,5.2536,5.2611,5.2536,5.2335,5.2184,5.195,5.1674,5.1423,5.1649,5.18,5.1875,5.241,5.2711,5.2694,5.287,5.2895,5.2895,5.2895,5.2895,5.2895,5.2895,5.2895,5.2895,5.2895,5.2895,5.2895,5.2895,5.2895,5.2895,5.2895,5.2895,5.2895,5.2895,5.2895,5.2895,5.2895,5.2878,5.2809,5.261,5.2304,5.1926,5.1474,5.1188,5.1218,5.1201,5.1105,5.1056,5.0888,5.0888,5.0792,5.0726,5.075,5.096,5.1177,5.1604]}]]